     2              OBSERVATION DATA    GPS                 RINEX VERSION / TYPE
teqc 1997Jun30 19970702                                     PGM / RUN BY / DATE
                                                            COMMENT
Original Marker Name: HMCP                                  COMMENT
Campaign Name: HMC San Gabriel Valley 1993-1996             COMMENT
4-Character Station Name: HMCP                              COMMENT
6-Character Antenna Code: DMRCHT                            COMMENT
Vertical Measurement Point: BPA                             COMMENT
Vertical Offset to Rinex Ref. Point: 0.0000                 COMMENT
Radial Measurement Point: RRP                               COMMENT
Radial Offset to Rinex Ref. Point: 0.0000                   COMMENT
Antenna Height from Field Measurement: 0.0000 m             COMMENT
Additional Antenna Identification Info.:                    COMMENT
Turborogue and Ashtech Choke Ring                           COMMENT
Original XYZ: -2458607.8934 -4680468.7132 3556436.6467      COMMENT
New XYZ position is based on association with SCEC monument COMMENT
E1D0R2C7+0011. Position of that monument is believed to be  COMMENT
valid to within 1 m horizontally; vertical accuracy         COMMENT
should be no worse than 3-times this value.                 COMMENT
                                                            COMMENT
Revised Rinex header created by UCSD GPS archive for        COMMENT
GSAC on 13-Apr-1999 (1999:103) 17:26:14 GMT                 COMMENT
For assistance contact dagnew@ucsd.edu or hjohnson@ucsd.edu COMMENT
                                                            COMMENT
HMC PHYSICS                                                 MARKER NAME
GAL HARVEY MUDD COLLEGE                                     OBSERVER / AGENCY
262 TURBOROGUE SNR-8000 95.03.08                            REC # / TYPE / VERS
260 DORNE-MARGOL. TYPE T                                    ANT # / TYPE
 -2458598.0000 -4680494.0000  3556451.0000                  APPROX POSITION XYZ
        0.0000        0.0000        0.0000                  ANTENNA: DELTA H/E/N
     1     1     0                                          WAVELENGTH FACT L1/2
     5    L1    L2    C1    P2    P1                        # / TYPES OF OBSERV
     0                                                      INTERVAL
  1996     3    24     0     0    0.000000                  TIME OF FIRST OBS
  1996     3    24    23    59   30.000000                  TIME OF LAST OBS
     0                                                      # OF SATELLITES
                                                            END OF HEADER
 96  3 24  0  0  0.0000000  0  7G 5G 9G20G12G 4G24G 7
 -17330154.82244 -13504006.77644  21972171.5914   21972171.7064
 -19066559.45244 -14857052.75244  21260392.2824   21260392.3974
  -2621459.91344  -2042694.30544  24456574.7624
   -678274.972 4   -528531.774 4  24476948.183    24476944.486
 -16765297.24944 -13063852.69544  20817292.1864   20817291.4514
 -19386815.44244 -15106593.33344  20660331.9494   20660332.5024
  -8364678.64644  -6517922.28644  22854224.8114   22854225.1974
 96  3 24  0  0 30.0000000  0  7G 5G 9G20G12G 7G 4G24
 -17404991.60844 -13562321.12644  21957931.1524   21957930.8424
 -19032828.73544 -14830769.08744  21266810.6674   21266810.7684
  -2718879.62444  -2118605.69344  24438036.5264   24438041.3524
   -572903.457 4   -446424.226 4  24497000.073    24496996.123
  -8297687.77644  -6465721.62344  22866972.9574   22866972.5914
 -16727560.30644 -13034447.28444  20824473.2654   20824472.5984
 -19426068.18444 -15137179.86744  20652862.5894   20652863.1804
 96  3 24  0  1  0.0000000  0  7G 5G20G 9G 4G24G12G 7
 -17479694.48844 -13620531.13644  21943715.7064   21943715.5634
  -2816336.86244  -2194546.31144  24419487.4514
 -18998600.37044 -14804097.64544  21273323.9504   21273324.1844
 -16689326.09544 -13004654.39544  20831748.9934   20831748.4834
 -19464803.44144 -15167363.16544  20645491.3614   20645491.9014
   -467414.514 4   -364225.174 4  24517073.801    24517069.880
  -8230681.43644  -6413508.91944  22879724.0094   22879724.8494
 96  3 24  0  1 30.0000000  0  7G 5G20G 9G12G 7G 4G24
 -17554228.45844 -13678609.53644  21929531.7704   21929532.1544
  -2913825.16044                  24400936.2524
 -18963837.49344 -14777009.70244  21279939.1384   21279939.4584
   -361788.725 4   -281919.500 4  24537174.047    24537169.923
  -8163646.13944  -6361273.63144  22892479.6334   22892480.6764
 -16650574.38144 -12974458.25444  20839123.4454   20839122.7954
 -19503031.07844 -15197150.91944  20638216.7614   20638217.3184
 96  3 24  0  2  0.0000000  0  7G 5G20G 9G 4G24G12G 7
 -17628641.58544 -13736593.78044  21915371.1294   21915371.5224
  -3011388.53644  -2346534.62944  24382372.9444   24382376.9164
 -18928589.89544 -14749544.05144  21286647.0644   21286647.0804
 -16611337.91644 -12943884.39044  20846589.4754   20846588.9244
 -19540801.69544 -15226582.54944  20631029.2424   20631029.9134
   -256070.979 4   -199542.166 4  24557291.473    24557287.565
  -8096626.96044  -6309050.91644  22905233.2324   22905235.0904
 96  3 24  0  2 30.0000000  0  7G 5G20G 9G12G 4G24G 7
 -17702871.87044 -13794435.53844  21901245.2704   21901245.5384
  -3108942.66744  -2422550.74344  24363808.9784   24363815.6864
 -18892789.13644 -14721647.36644  21293459.4694   21293459.3974
   -150192.802 4   -117039.822 4  24577439.724    24577435.950
 -16571536.99644 -12912870.68444  20854163.7584   20854162.9464
 -19578034.80044 -15255595.33844  20623944.0984   20623944.7484
  -8029552.47744  -6256785.12244  22917997.1604   22917998.0524
 96  3 24  0  3  0.0000000  0  7G 5G20G 9G 4G24G12G 7
 -17776884.11344 -13852107.39244  21887161.9034   21887161.6614
  -3206456.75044  -2498535.65844  24345253.4884   24345256.8564
 -18856403.95344 -14693295.28744  21300383.5084   21300383.6254
 -16531144.04844 -12881395.66144  20861850.1464   20861849.7204
 -19614716.26344 -15284178.27644  20616964.1154   20616964.4744
    -44128.115 4    -34392.150 4  24597623.273    24597619.234
  -7962397.34344  -6204456.46744  22930776.5444   22930778.0924
 96  3 24  0  3 30.0000000  0  7G 5G20G 9G12G 4G24G 7
 -17850711.03344 -13909634.83744  21873113.1514   21873113.1494
  -3303956.78644  -2574509.68744  24326700.7244   24326705.0354
 -18819468.97144 -14664514.78744  21307411.8534   21307412.0464
     62096.662 4     48380.269 4  24617837.379    24617833.154
 -16490195.96644 -12849488.07044  20869642.2234   20869642.0174
 -19650866.92244 -15312347.60244  20610084.5614   20610085.0514
  -7895184.65344  -6152082.97944  22943566.5814   22943568.0834
 96  3 24  0  4  0.0000000  0  7G 5G20G 9G 4G24G12G 7
 -17924364.60644 -13967027.20944  21859097.3204   21859097.6474
  -3401438.90744  -2650469.73644  24308150.6614   24308153.2194
 -18781997.80244 -14635316.48244  21314542.5764   21314542.6494
 -16448713.75744 -12817164.26844  20877536.1074   20877535.3724
 -19686462.43244 -15340084.34644  20603311.1194   20603311.5654
    168477.832 4    131274.560 4  24638081.072    24638076.946
  -7827910.80544  -6099661.80844  22956368.1304   22956370.1084
 96  3 24  0  4 30.0000000  0  7G 5G20G 9G12G 4G24G 7
 -17997847.72844 -14024286.76644  21845113.7764   21845113.7714
  -3498908.34444  -2726419.84944  24289603.8734   24289605.8304
 -18743998.41244 -14605706.57644  21321773.4654   21321773.7854
    275005.674 4    214283.129 4  24658353.045    24658348.459
 -16406736.76644 -12784454.92444  20885524.2234   20885523.6624
 -19721499.89444 -15367386.24944  20596643.7194   20596644.1474
  -7760578.32744  -6047194.96844  22969181.4974   22969183.1164
 96  3 24  0  5  0.0000000  0  7G 5G20G 9G 4G24G12G 7
 -18071157.10244 -14081410.93644  21831163.2464   21831163.5824
  -3596379.46444  -2802371.30944  24271054.4694   24271055.5024
 -18705493.84144 -14575703.02644  21329100.4734   21329100.6914
 -16364295.37244 -12751383.70344  20893600.2014   20893599.7324
 -19756002.52944 -15394271.40644  20590077.9274   20590078.3884
    381665.806 4    297394.799 4  24678649.681    24678645.458
  -7693203.82144  -5994695.34944  22982002.3924   22982000.7284
 96  3 24  0  5 30.0000000  0  7G 5G20G 9G12G 4G24G 7
 -18144297.67144 -14138403.56844  21817245.1914   21817245.6554
  -3693858.60244  -2878329.04344  24252505.4114   24252505.8924
 -18666492.97944 -14545312.75544  21336522.0844   21336522.0574
    488441.197 4    380596.276 4  24698968.538    24698964.312
 -16321406.44044 -12717963.75444  20901761.6614   20901761.1044
 -19789983.46744 -15420750.04044  20583611.3864   20583611.8234
  -7625803.11744  -5942175.34944  22994828.4144   22994828.6344
 96  3 24  0  6  0.0000000  0  7G20G 5G 9G 4G24G12G 7
  -3791334.16944  -2954283.92944  24233956.1034   24233956.6124
 -18217257.89444 -14195255.66644  21803361.3174   21803361.1234
 -18626986.78144 -14514528.71444  21344039.9794   21344039.5734
 -16278050.38344 -12684179.81444  20910011.9884   20910011.4784
 -19823443.84244 -15446823.04244  20577244.2844   20577244.7594
    595330.863 4    463886.801 4  24719308.879    24719304.718
  -7558376.27544  -5889634.97544  23007658.7264   23007658.2524
 96  3 24  0  6 30.0000000  0  7G20G 5G 9G12G 4G24G 7
  -3888806.30044  -3030236.20044  24215406.7004   24215408.7644
 -18290029.03544 -14251960.43244  21789513.2284   21789513.1304
 -18586983.27344 -14483357.16144  21351652.6064   21351652.3854
    702324.600 4    547258.419 4  24739669.809    24739665.120
 -16234207.28644 -12650016.36344  20918354.9844   20918354.3024
 -19856399.13044 -15472502.47044  20570973.0674   20570973.5604
  -7490928.16244  -5837078.02744  23020493.8754   23020494.5854
 96  3 24  0  7  0.0000000  0  7G20G 5G 9G 4G24G12G 7
  -3986285.52644  -3106193.96644  24196855.1834   24196856.2514
 -18362617.36444 -14308522.75344  21775700.3974   21775700.3164
 -18546486.79644 -14451801.47544  21359358.3754   21359358.6014
 -16189858.05044 -12615458.51544  20926794.6874   20926793.7684
 -19888853.76144 -15497791.77644  20564797.2104   20564797.4914
    809416.121 4    630706.227 4  24760048.242    24760043.837
  -7423472.39844  -5784515.10144  23033330.6084   23033331.6304
 96  3 24  0  7 30.0000000  0  7G20G 5G 9G12G 4G24G 7
  -4083763.27444  -3182150.61744  24178306.0374   24178306.7564
 -18435036.76844 -14364953.44344  21761919.1324   21761919.1574
 -18505493.65244 -14419858.77844  21367159.3064   21367159.6214
    916608.961 4    714232.983 4  24780446.680    24780442.323
 -16144985.34544 -12580492.77144  20935333.5994   20935333.0254
 -19920782.70444 -15522671.45544  20558721.2254   20558721.7254
  -7355997.89044  -5731937.59244  23046170.6714   23046171.9724
 96  3 24  0  8  0.0000000  0  7G20G 5G 9G 4G24G12G 7
  -4181245.13844  -3258110.46644  24159756.5414   24159758.3294
 -18507300.06644 -14421262.48244  21748167.8684   21748168.0254
 -18464016.63944 -14387539.03844  21375052.3684   21375052.6024
 -16099604.77344 -12545131.28244  20943969.2664   20943968.6384
 -19952179.54044 -15547136.50344  20552746.7354   20552747.0394
   1023900.229 4    797836.419 4  24800863.454    24800858.987
  -7288500.71444  -5679342.42844  23059014.7124   23059015.7454
 96  3 24  0  8 30.0000000  0  7G20G 5G 9G12G 4G24G 7
  -4278730.73444  -3334073.22044  24141206.1754   24141209.0354
 -18579399.78144 -14477444.06844  21734447.9604   21734447.9144
 -18422053.99944 -14354840.88644  21383037.6094   21383037.3744
   1131294.291 4    881519.949 4  24821300.081    24821295.183
 -16053732.64044 -12509386.75944  20952698.2554   20952697.9324
 -19983038.51544 -15571182.43744  20546874.3634   20546874.7724
  -7220973.79744  -5626724.09044  23071864.3084   23071866.1474
 96  3 24  0  9  0.0000000  0  7G20G 5G 9G 4G24G12G 7
  -4376190.37244  -3410015.72944  24122661.4284   24122661.0404
 -18651312.15444 -14533479.67544  21720763.2494   21720763.1124
 -18379577.71044 -14321742.49444  21391120.4534   21391120.7654
 -16007361.49844 -12473253.40844  20961522.5534   20961521.7714
 -20013340.20844 -15594794.12244  20541108.0534   20541108.5254
   1238816.142 4    965303.049 4  24841761.048    24841756.391
  -7153395.76344  -5574065.91044  23084724.3354   23084727.0194
 96  3 24  0  9 30.0000000  0  6G20G 5G 9G 4G24G 7
  -4473636.14244  -3485947.45044  24104116.9694   24104119.8514
 -18723036.79644 -14589368.99044  21707114.9894   21707115.0084
 -18336603.88844 -14288256.41244  21399298.3264   21399298.5354
 -15960526.03944 -12436758.23944  20970435.2084   20970434.2814
 -20043109.79844 -15617991.18444  20535443.2164   20535443.6894
  -7085782.78144  -5521380.50344  23097591.3674   23097592.3854
 96  3 24  0 10  0.0000000  0  7G20G 5G 4G 9G24G12G 7
  -4571036.89244  -3561844.03844  24085583.4744   24085584.3344
 -18794525.33944 -14645074.32244  21693510.9384   21693511.3694
 -15913205.02344 -12399884.72844  20979440.2044   20979439.7654
 -18293095.97344 -14254354.15544  21407577.9304   21407577.6024
 -20072337.04844 -15640765.64644  20529881.4194   20529881.9734
        -0.44114         0.18514  24882749.013    24882744.297
  -7018117.53844  -5468654.33744  23110467.0854   23110467.8574
 96  3 24  0 10 30.0000000  0  7G20G 4G 5G 9G24G12G 7
  -4668409.44444  -3637718.73144  24067053.6204   24067055.7494
 -15865408.48244 -12362640.67044  20988535.5344   20988534.7424
 -18865790.34844 -14700605.48044  21679949.8334   21679949.5734
 -18249079.11044 -14220055.31144  21415953.7454   21415953.7054
 -20101052.17044 -15663141.04644  20524416.9384   20524417.4144
    107871.664 4     84056.202 4  24903276.484    24903271.892
  -6950431.37744  -5415911.88544  23123348.0494   23123348.4324
 96  3 24  0 11  0.0000000  0  7G20G 4G 5G 9G24G12G 7
  -4765782.54744  -3713593.85544  24048524.2004   24048525.1794
 -15817158.21244 -12325043.05544  20997717.1764   20997716.7004
 -18936858.75644 -14755983.46044  21666425.7394   21666425.3134
 -18204586.99744 -14185386.14244  21424419.9874   21424420.0884
 -20129275.33544 -15685133.10244  20519046.2494   20519046.5984
    215824.178 4    168174.890 4  24923819.430    24923814.902
  -6882747.93344  -5363171.57144  23136227.7254   23136228.3584
 96  3 24  0 11 30.0000000  0  7G20G 4G 5G 9G24G12G 7
  -4863132.26744  -3789450.69144  24029998.2914   24029998.3714
 -15768423.55444 -12287067.99744  21006990.8574   21006990.5144
 -19007705.90244 -14811189.01944  21652943.9214   21652944.1544
 -18159592.68944 -14150325.65644  21432982.3394   21432982.6644
 -20156971.53444 -15706714.53544  20513775.8134   20513776.3084
    323884.448 4    252377.544 4  24944382.766    24944378.152
  -6815032.81844  -5310406.58644  23149113.0064   23149113.4514
 96  3 24  0 12  0.0000000  0  7G20G 4G 5G 9G24G12G 7
  -4960464.91844  -3865294.27844  24011476.1364   24011479.2614
 -15719198.16344 -12248710.55144  21016358.0434   21016357.6394
 -19078358.43644 -14866242.92044  21639498.8244   21639498.8844
 -18114115.78044 -14114889.11644  21441636.4704   21441636.5084
 -20184147.50644 -15727890.59944  20508604.3394   20508604.7524
    432037.833 4    336652.757 4  24964963.769    24964959.195
  -6747288.36244  -5257618.70444  23162004.9724   23162006.9484
 96  3 24  0 12 30.0000000  0  7G20G 4G 5G 9G24G12G 7
  -5057784.10644  -3941127.34344  23992956.1484   23992957.5434
 -15669481.38144 -12209970.20344  21025819.1944   21025818.6024
 -19148818.94544 -14921147.19644  21626090.6994   21626090.7164
 -18068168.99444 -14079086.43944  21450379.7514   21450379.9644
 -20210781.96444 -15748644.70544  20503536.0264   20503536.5084
    540283.960 4    421000.239 4  24985562.317    24985557.710
  -6679493.55744  -5204791.60144  23174904.8994   23174906.3914
 96  3 24  0 13  0.0000000  0  7G20G 4G 5G 9G24G12G 7
  -5155069.82644  -4016934.31944  23974443.5954   23974445.4814
 -15619263.93244 -12170839.72244  21035374.8424   21035374.3384
 -19219068.47944 -14975887.08444  21612723.0504   21612722.6914
 -18021736.09044 -14042904.96744  21459215.4264   21459215.8484
 -20236851.92544 -15768958.94244  20498575.1284   20498575.6354
    648635.667 4    505430.001 4  25006181.102    25006176.650
  -6611629.27544  -5151910.35844  23187818.6604   23187818.2664
 96  3 24  0 13 30.0000000  0  7G20G 4G 5G 9G24G12G 7
  -5252332.24644  -4092723.23244  23955934.7634   23955936.2644
 -15568569.87844 -12131337.86944  21045021.9074   21045021.3274
 -19289124.38944 -15030476.09644  21599391.7604   21599391.8844
 -17974826.81144 -14006352.29544  21468142.4284   21468142.5664
 -20262375.14044 -15788847.14644  20493718.3694   20493718.8024
    757073.438 4    589926.826 4  25026816.413    25026811.489
  -6543719.58144  -5098993.76244  23200741.8134   23200743.5464
 96  3 24  0 14  0.0000000  0  6G20G 4G 5G 9G24G 7
  -5349573.89744  -4168495.88344  23937430.1104   23937430.7444
 -15517411.56344 -12091474.24144  21054756.9234   21054756.2764
 -19358984.35544 -15084912.41644  21586097.8754   21586097.8014
 -17927446.55744 -13969432.63344  21477158.3774   21477158.6094
 -20287345.10444 -15808304.24444  20488966.9934   20488967.3984
  -6475768.99644  -5046045.27444  23213672.9724   23213675.3774
 96  3 24  0 14 30.0000000  0  6G20G 4G 5G 9G24G 7
  -5446803.55244  -4244259.21144  23918929.5394   23918930.9174
 -15465815.48644 -12051269.51344  21064575.5584   21064575.1804
 -19428641.88444 -15139190.99644  21572842.8114   21572842.7794
 -17879597.55844 -13932147.71044  21486263.6544   21486263.4694
 -20311763.05944 -15827331.20344  20484320.3914   20484320.7354
  -6407798.56744  -4993081.32644  23226607.3004   23226609.2174
 96  3 24  0 15  0.0000000  0  6G20G 4G 5G 9G24G 7
  -5543983.51444  -4319983.79644  23900435.0974   23900435.5504
 -15413750.79044 -12010699.62344  21074483.2044   21074482.5504
 -19498053.14144 -15193277.67444  21559633.9944   21559634.2724
 -17831232.74944 -13894460.85644  21495467.3264   21495467.7384
 -20335605.17744 -15845909.45944  20479783.2854   20479783.7674
  -6339785.09444  -4940083.84844  23239549.1684   23239549.6784
 96  3 24  0 15 30.0000000  0  6G20G 4G 5G 9G 7G24
  -5641160.18944  -4395705.82644  23881943.7974   23881945.6094
 -15361256.20344 -11969794.74844  21084472.4004   21084471.9014
 -19567261.98944 -15247206.63144  21546464.1644   21546464.2884
 -17782385.68144 -13856398.22044  21504762.5434   21504762.8834
  -6271758.86044  -4887076.40144  23252494.8674   23252494.4574
 -20358914.46144 -15864072.52144  20475347.5544   20475347.9524
 96  3 24  0 16  0.0000000  0  6G20G 4G 5G 9G24G 7
  -5738328.29944  -4471421.21244  23863453.4004   23863454.8224
 -15308328.88144 -11928552.68544  21094544.0954   21094543.6474
 -19636262.85744 -15300973.52944  21533333.6254   21533333.9304
 -17733060.33344 -13817962.89844  21514149.0914   21514149.4514
 -20381700.95244 -15881828.21344  20471011.3344   20471011.6994
  -6203713.16844  -4834053.79844  23265443.1514   23265445.8244
 96  3 24  0 16 30.0000000  0  7G20G 4G 5G 9G24G 6G 7
  -5835466.37244  -4547113.18644  23844968.1364   23844972.2124
 -15254935.92544 -11886947.79144  21104704.3344   21104703.8224
 -19705030.62744 -15354558.78944  21520247.3214   21520247.2364
 -17683241.90844 -13779143.36244  21523629.0734   21523629.5024
 -20403962.03144 -15899174.49444  20466775.2024   20466775.6874
        -1.18154                  25439757.1214
  -6135629.56544  -4781001.67444  23278399.7114   23278401.1204
 96  3 24  0 17  0.0000000  0  7G20G 4G 5G 9G24G 6G 7
  -5932576.81144  -4622783.62844  23826488.9784   23826491.9854
 -15201072.73344 -11844976.47044  21114954.2034   21114953.2864
 -19773572.76444 -15407968.23644  21507204.4554   21507204.2874
 -17632933.06044 -13739941.68244  21533202.3024   21533202.5244
 -20425714.05544 -15916124.10944  20462635.7894   20462636.1734
    -73641.62444                  25425744.4554
  -6067500.64444  -4727914.22544  23291364.5734   23291364.9634
 96  3 24  0 17 30.0000000  0  7G20G 4G 5G 9G24G 6G 7
  -6029651.14744  -4698425.91544  23808015.7784   23808019.2504
 -15146739.74544 -11802639.08544  21125293.4374   21125292.7714
 -19841896.59744 -15461207.57144  21494202.8104   21494203.0024
 -17582142.23044 -13700364.42744  21542867.7894   21542867.6874
 -20446956.58244 -15932676.71744  20458593.4414   20458593.7994
   -147207.08944                  25411744.3184
  -5999330.35244  -4674794.52344  23304335.8364   23304336.0444
 96  3 24  0 18  0.0000000  0  6G20G 4G 5G 9G24G 7
  -6126695.27744  -4774044.69344  23789549.5364   23789550.9894
 -15091953.01344 -11759948.13044  21135719.0304   21135718.5534
 -19910004.58344 -15514278.71344  21481242.3004   21481242.4244
 -17530898.49644 -13660434.25944  21552619.0974   21552619.2424
 -20467692.01544 -15948834.18544  20454647.7494   20454648.0454
  -5931143.43844  -4621661.90744  23317311.4964   23317313.9184
 96  3 24  0 18 30.0000000  0  6G20G 4G 5G 9G24G 7
  -6223712.03944  -4849642.13944  23771088.1544   23771088.8984
 -15036727.43944 -11716915.22144  21146228.0104   21146227.6434
 -19977905.78044 -15567188.72844  21468321.0064   21468320.8294
 -17479212.46144 -13620159.43644  21562454.4294   21562454.3614
 -20487917.46344 -15964594.25944  20450798.9834   20450799.3114
  -5862950.45144  -4568524.56744  23330288.2904   23330290.3884
 96  3 24  0 19  0.0000000  0  6G20G 4G 5G 9G24G 7
  -6320678.10044  -4925200.08344  23752635.9324   23752638.2314
 -14981077.35344 -11673551.52044  21156818.1544   21156817.5104
 -20045589.00044 -15619928.88344  21455441.4624   21455441.3314
 -17427078.45644 -13579535.55244  21572375.1764   21572375.2204
 -20507609.59844 -15979938.76644  20447051.4804   20447052.1774
  -5794746.24344  -4515378.45244  23343267.8784   23343270.2834
 96  3 24  0 19 30.0000000  0  6G20G 4G 5G 9G24G 7
  -6417577.66344  -5000706.18244  23734197.5374   23734198.0404
 -14924994.85544 -11629850.87644  21167490.3184   21167489.7994
 -20113030.59944 -15672480.76944  21442607.6184   21442607.2794
 -17374500.68244 -13538565.87444  21582380.4684   21582380.3844
 -20526749.23344 -15994852.75644  20443409.3974   20443409.9494
  -5726529.35844  -4462222.44844  23356249.2774   23356249.7854
 96  3 24  0 20  0.0000000  0  6G20G 4G 5G 9G24G 7
  -6514413.49944  -5076162.62844  23715769.9954   23715770.9464
 -14868480.11544 -11585813.41844  21178244.4764   21178243.9654
 -20180224.16244 -15724839.37544  21429821.2684   21429821.3194
 -17321482.87144 -13497253.31044  21592469.5604   21592469.6834
 -20545339.35144 -16009338.54944  20439871.8994   20439872.3394
  -5658297.41844  -4409054.74844  23369233.8194   23369233.5944
 96  3 24  0 20 30.0000000  0  6G20G 4G 5G 9G24G 7
  -6611179.33244  -5151564.54144  23697356.9204   23697356.7284
 -14811526.85944 -11541434.26344  21189082.3824   21189081.7944
 -20247169.61744 -15777004.65444  21417082.0384   21417081.7044
 -17268020.92544 -13455594.66744  21602643.3824   21602643.7394
 -20563392.08144 -16023405.59644  20436436.6104   20436437.1124
  -5590040.13144  -4355867.26444  23382222.6184   23382222.3784
 96  3 24  0 21  0.0000000  0  6G20G 4G 5G 9G24G 7
  -6707875.62244  -5226912.24244  23678954.5374   23678954.5944
 -14754106.98044 -11496691.50644  21200009.3334   21200008.7944
 -20313848.28544 -15828962.05444  21404393.6284   21404393.3434
 -17214105.25344 -13413582.47744  21612902.9254   21612903.2994
 -20580898.52344 -16037046.96144  20433105.2264   20433105.6754
  -5521741.56544  -4302647.62544  23395219.3484   23395221.1194
 96  3 24  0 21 30.0000000  0  6G20G 4G 5G 9G24G 7
  -6804518.80944  -5302218.58744  23660563.6004   23660565.3444
 -14696213.36444 -11451579.60144  21211026.2274   21211025.3024
 -20380278.94444 -15880726.19244  21391752.1514   21391752.0524
 -17159737.48144 -13371217.99544  21623248.8204   21623249.2174
 -20597872.07644 -16050273.08844  20429875.3354   20429875.6894
  -5453397.75544  -4249392.70144  23408223.5504   23408225.0064
 96  3 24  0 22  0.0000000  0  6G20G 4G 5G 9G24G 7
  -6901083.88944  -5377464.05244  23642187.9314   23642189.4254
 -14637846.16144 -11406098.66544  21222132.9904   21222132.2564
 -20446458.60044 -15932294.74244  21379158.2804   21379158.1384
 -17104891.34744 -13328480.76144  21633685.9024   21633685.8874
 -20614297.85844 -16063072.38544  20426749.4544   20426749.8694
  -5384975.18144  -4196076.43944  23421244.1234   23421246.7614
 96  3 24  0 22 30.0000000  0  6G20G 4G 5G 9G24G 7
  -6997580.57344  -5452656.23544  23623825.2714   23623827.6454
 -14579035.53944 -11360272.21044  21233324.1114   21233323.8084
 -20512392.41944 -15983671.73544  21366611.6534   21366611.5744
 -17049584.20944 -13285384.30244  21644210.6944   21644210.9174
 -20630193.14144 -16075458.30644  20423724.7184   20423725.0094
  -5316487.99144  -4142709.86044  23434276.5394   23434277.4564
 96  3 24  0 23  0.0000000  0  6G20G 4G 5G 9G24G 7
  -7094031.60744  -5527812.84344  23605471.0334   23605473.4384
 -14519821.71644 -11314131.57844  21244592.1484   21244591.6714
 -20578093.64144 -16034867.48144  21354109.0604   21354108.9494
 -16993832.51244 -13241941.43844  21654819.4414   21654819.7584
 -20645575.39744 -16087444.46144  20420797.7494   20420798.0344
  -5247968.53544  -4089318.10044  23447316.0304   23447319.2354
 96  3 24  0 23 30.0000000  0  6G20G 4G 5G 9G24G 7
  -7190428.88244  -5602927.55344  23587127.2244   23587129.3484
 -14460242.40444 -11267706.14244  21255929.6704   21255929.0384
 -20643559.19044 -16085879.59044  21341651.4014   21341651.5234
 -16937643.51644 -13198157.82544  21665511.8464   21665512.4174
 -20660452.03344 -16099036.62844  20417966.7564   20417967.0134
  -5179426.63044  -4035908.86144  23460359.1294   23460360.8224
 96  3 24  0 24  0.0000000  0  6G20G 4G 5G 9G24G 7
  -7286767.38944  -5677996.49744  23568795.5724   23568796.8574
 -14400304.07944 -11221000.95844  21267335.6494   21267335.1924
 -20708765.68244 -16136689.84244  21329242.6864   21329242.5564
 -16881027.23444 -13154041.25544  21676285.9374   21676286.1174
 -20674812.75444 -16110226.78544  20415233.8004   20415234.2254
  -5110873.13344  -3982490.56244  23473404.3114   23473406.0034
 96  3 24  0 24 30.0000000  0  7G20G 4G 5G 9G24G 6G 7
  -7383071.34344  -5753038.47744  23550468.7574   23550467.7784
 -14339994.11044 -11174006.18144  21278812.2044   21278811.7794
 -20773708.35544 -16187294.51444  21316885.0644   21316885.0614
 -16824001.42944 -13109605.57344  21687137.4474   21687137.2174
 -20688656.44844 -16121014.06444  20412599.5134   20412599.8514
        -0.83654                  25216824.5594
  -5042335.01644  -3929084.26244  23486447.0664   23486448.5394
 96  3 24  0 25  0.0000000  0  7G20G 4G 5G 9G24G 6G 7
  -7479329.61344  -5828044.86744  23532150.9654   23532153.3514
 -14279287.58944 -11126702.40944  21290364.2944   21290363.8514
 -20838386.64544 -16237693.17244  21304576.9784   21304576.5334
 -16766544.16244 -13064833.69044  21698070.9054   21698071.0474
 -20701950.21044 -16131372.82744  20410069.7614   20410070.1724
    -72744.98444                  25202981.5114
  -4973793.42244  -3875675.25744  23499490.1904   23499490.3914
 96  3 24  0 25 30.0000000  0  7G20G 4G 5G 9G24G 6G 7
  -7575555.47944  -5903026.02244  23513840.9334   23513842.0544
 -14218182.45544 -11079088.02444  21301992.1584   21301991.5284
 -20902821.76944 -16287902.35644  21292315.6674   21292315.2404
 -16708670.45544 -13019737.30544  21709083.9514   21709084.0494
 -20714704.01244 -16141310.84144  20407643.0874   20407643.4794
   -145245.42444                  25189149.2924
  -4905256.48144  -3822269.87144  23512531.7564   23512531.6454
 96  3 24  0 26  0.0000000  0  7G20G 4G 5G 9G24G 6G 7
  -7671727.84944  -5977965.52544  23495539.8014   23495539.7524
 -14156620.47144 -11031117.65244  21313707.1894   21313706.9274
 -20967003.38044 -16337913.99544  21280101.7784   21280102.0634
 -16650349.35644 -12974292.30844  21720182.4214   21720182.6784
 -20726898.43044 -16150812.97544  20405322.4384   20405322.7564
   -217900.27344                  25175319.5924
  -4836701.52544  -3768850.43344  23525577.8904   23525579.3884
 96  3 24  0 26 30.0000000  0  7G20G 4G 5G 9G24G 6G 7
  -7767838.57344  -6052856.96244  23477249.7524   23477251.5444
 -14094595.65044 -10982786.63044  21325509.6864   21325509.1574
 -21030941.06044 -16387735.55744  21267934.8604   21267934.7304
 -16591560.91144 -12928483.14144  21731369.7584   21731370.1954
 -20738540.41844 -16159884.64644  20403107.0904   20403107.3804
   -290509.32944                  25161503.7984
  -4768116.07544  -3715407.26544  23538629.2554   23538630.6894
 96  3 24  0 27  0.0000000  0  7G20G 4G 5G 9G24G 6G 7
  -7863872.06044  -6127688.19144  23458975.2954   23458975.6834
 -14032124.47444 -10934107.79444  21337398.0244   21337397.4104
 -21094632.38144 -16437365.15344  21255815.2134   21255815.2044
 -16532306.99944 -12882311.27844  21742645.1024   21742645.4534
 -20749650.98744 -16168542.22444  20400992.7534   20400992.8544
   -363073.55244                  25147696.4484
  -4699490.33444  -3661932.69744  23551688.2884   23551689.1274
 96  3 24  0 27 30.0000000  0  7G20G 4G 5G 9G24G 6G 7
  -7959808.30144  -6202443.66544  23440719.5154   23440720.0774
 -13969194.33244 -10885071.33144  21349373.2324   21349372.6794
 -21158050.77244 -16486782.06344  21243747.1844   21243747.1394
 -16472594.47344 -12835782.05044  21754007.7894   21754008.2474
 -20760240.03844 -16176793.42644  20398977.5534   20398978.0524
   -435582.06344                  25133898.7734
  -4630815.59044  -3608419.91244  23564756.2684   23564757.8084
 96  3 24  0 28  0.0000000  0  7G20G 4G 5G 9G24G 6G 7
  -8055656.52144  -6277130.58044  23422479.5474   23422479.9704
 -13905840.15344 -10835704.44244  21361429.0324   21361428.5054
 -21221201.20944 -16535990.18644  21231729.9764   21231729.7244
 -16412453.26944 -12788918.78644  21765452.1384   21765452.7604
 -20770323.82744 -16184650.91644  20397058.5284   20397058.8484
   -508047.67344   -395880.88944  25120109.5324
  -4562104.76244  -3554879.03444  23577831.9754   23577832.2034
 96  3 24  0 28 30.0000000  0  7G20G 4G 5G 9G24G 6G 7
  -8151416.79044  -6351748.93144  23404257.2594   23404256.6354
 -13842103.49044 -10786039.51644  21373557.8294   21373557.3344
 -21284068.69244 -16584977.83244  21219766.3174   21219766.1724
 -16351905.59944 -12741738.79844  21776974.4134   21776974.5874
 -20779898.78444 -16192111.91744  20395236.6164   20395236.9754
   -580458.16444                  25106328.3734
  -4493355.84444  -3501308.48544  23590914.2424   23590915.4344
 96  3 24  0 29  0.0000000  0  6G20G 4G 5G 9G24G 7
  -8247099.20744  -6426306.62344  23386049.6324   23386051.6034
 -13778003.84944 -10736091.75044  21385755.6784   21385755.1574
 -21346649.10144 -16633741.78044  21207857.7164   21207857.5324
 -16290973.02344 -12694258.88044  21788569.2104   21788569.2074
 -20788970.08344 -16199180.45344  20393510.4734   20393510.8184
  -4424580.37144  -3447717.24744  23604001.8064   23604002.6474
 96  3 24  0 29 30.0000000  0  6G20G 4G 5G 9G24G 7
  -8342694.50044  -6500796.43244  23367858.7284   23367857.2324
 -13713532.74844 -10685854.53744  21398023.7364   21398023.2264
 -21408944.30044 -16682283.48144  21196003.8024   21196003.5854
 -16229641.91444 -12646468.41844  21800240.2134   21800240.2834
 -20797511.72644 -16205836.27344  20391885.1614   20391885.5664
  -4355779.94744  -3394106.57044  23617093.9884   23617095.2354
 96  3 24  0 30  0.0000000  0  6G20G 4G 5G 9G24G 7
  -8438228.96444  -6575238.82844  23349678.2814   23349678.8654
 -13648727.88944 -10635357.25144  21410356.2014   21410355.5604
 -21470991.44844 -16730631.89544  21184196.2494   21184196.1354
 -16167933.08144 -12598383.61844  21811983.2264   21811982.8824
 -20805540.42644 -16212092.39244  20390357.2374   20390357.6254
  -4286985.69944  -3340500.67044  23630185.5534   23630186.6824
 96  3 24  0 30 30.0000000  0  6G20G 4G 5G 9G24G 7
  -8533664.78844  -6649604.37844  23331518.8754   23331519.6334
 -13583541.11344 -10584562.36444  21422760.7334   21422760.4304
 -21532767.92444 -16778769.39844  21172440.6134   21172440.5324
 -16105802.57944 -12549970.25644  21823806.1754   21823806.6604
 -20813017.51344 -16217918.68544  20388934.5104   20388934.8534
  -4218161.24344  -3286871.29944  23643281.6834   23643283.2994
 96  3 24  0 31  0.0000000  0  7G20G 4G 5G 9G24G 6G 7
  -8628966.63344  -6723865.51544  23313382.8554   23313384.2434
 -13517926.55944 -10533434.15144  21435246.7694   21435246.1434
 -21594256.11644 -16826682.27344  21160740.0184   21160739.6204
 -16043226.42844 -12501209.63344  21835713.5884   21835714.0374
 -20819920.21444 -16223297.40444  20387620.6724   20387621.4384
        -0.43754                  25037593.3474
  -4149281.27944  -3233198.62144  23656390.2014   23656390.5004
 96  3 24  0 31 30.0000000  0  7G20G 4G 5G 9G24G 6G 7
  -8724185.83744  -6798062.25444  23295263.0054   23295263.3794
 -13451934.11744 -10482011.47044  21447804.8734   21447803.8964
 -21655502.71544 -16874406.88744  21149084.8844   21149084.6854
 -15980273.21944 -12452155.19544  21847693.4224   21847694.0844
 -20826297.49544 -16228266.70544  20386407.0694   20386407.5084
    -72070.28944    -56157.82444  25023879.9984
  -4080391.33044  -3179518.13744  23669498.6994   23669499.6764
 96  3 24  0 32  0.0000000  0  7G20G 4G 5G 9G24G 6G 7
  -8819330.29744  -6872200.73844  23277157.4044   23277159.3934
 -13385576.03244 -10430303.87644  21460431.9134   21460431.7254
 -21716492.86044 -16921931.66344  21137479.1564   21137478.8844
 -15916954.51944 -12402815.96244  21859742.6544   21859743.1414
 -20832161.03244 -16232835.68744  20385291.5144   20385292.0674
   -144114.00744   -112295.70444  25010171.6794   25010172.2464
  -4011480.86244  -3125821.66644  23682612.2014   23682614.0694
 96  3 24  0 32 30.0000000  0  7G20G 4G 5G 9G24G 6G 7
  -8914392.82144  -6946275.40744  23259068.3474   23259067.2874
 -13318846.54244 -10378306.88344  21473130.3954   21473129.8244
 -21777188.57444 -16969227.01344  21125928.9624   21125928.8724
 -15853268.33344 -12353190.37744  21871861.8854   21871862.2794
 -20837507.93444 -16237002.09444  20384273.9814   20384274.3434
   -216126.79344                  24996464.0464
  -3942544.96744  -3072105.47944  23695730.5584   23695731.7214
 96  3 24  0 33  0.0000000  0  7G20G 4G 5G 9G24G 6G 7
  -9009361.42744  -7020276.90444  23240995.7814   23240997.3374
 -13251743.54944 -10326018.84144  21485899.3284   21485898.8724
 -21837553.51444 -17016264.62544  21114442.1564   21114441.6194
 -15789204.25044 -12303270.33244  21884052.8864   21884053.2874
 -20842334.86244 -16240763.32844  20383355.3444   20383355.8584
   -288099.06144                  24982768.7754
  -3873581.77944  -3018367.95744  23708852.7144   23708856.0324
 96  3 24  0 33 30.0000000  0  7G20G 4G 5G 9G24G 6G 7
  -9104235.23744  -7094204.50944  23222941.6994   23222942.9934
 -13184263.45944 -10273436.96444  21498740.3934   21498739.9984
 -21897581.91544 -17063039.99544  21103018.8904   21103018.5624
 -15724746.72744 -12253043.70544  21896318.5814   21896318.9974
 -20846639.91344 -16244117.90344  20382536.1714   20382536.5624
   -360020.79344                  24969083.9174
  -3804606.18244  -2964620.76244  23721979.0264   23721982.1114
 96  3 24  0 34  0.0000000  0  7G20G 4G 5G 9G24G 6G 7
  -9198985.41344  -7168035.77644  23204911.5904   23204911.2534
 -13116388.03244 -10220547.02544  21511656.7744   21511656.3504
 -21957268.22944 -17109548.80744  21091660.8444   21091660.6034
 -15659869.01744 -12202489.66644  21908664.5694   21908664.7984
 -20850415.03544 -16247059.55144  20381817.6674   20381818.1474
   -431874.26844   -336524.33144  24955410.3414
  -3735610.23044  -2910857.69244  23735108.6814   23735111.5414
 96  3 24  0 34 30.0000000  0  7G20G 4G 5G 9G24G 6G 7
  -9293599.70544  -7241761.18344  23186906.8344   23186906.6224
 -13048113.37544 -10167346.00244  21524649.0924   21524648.6514
 -22016621.94344 -17155798.44844  21080366.1534   21080365.9914
 -15594570.22744 -12151607.51044  21921090.6214   21921091.0674
 -20853662.53144 -16249590.05944  20381199.8444   20381200.2884
   -503657.40044   -392459.18244  24941748.8304
  -3666590.16844  -2857075.85544  23748243.2494   23748244.7044
 96  3 24  0 35  0.0000000  0  7G20G 4G 5G 9G24G 6G 7
  -9388090.85344  -7315390.65344  23168926.2594   23168926.0264
 -12979445.77644 -10113838.79244  21537716.2924   21537715.7084
 -22075674.04544 -17201813.06544  21069129.0394   21069128.7834
 -15528859.64544 -12100404.47544  21933594.6954   21933594.8214
 -20856381.76944 -16251708.94044  20380682.3954   20380682.7524
   -575372.91244   -448341.33844  24928099.8714
  -3597531.03844  -2803263.06444  23761384.6004   23761382.3144
 96  3 24  0 35 30.0000000  0  7G20G 4G 5G 9G24G16G 7
  -9482468.34244  -7388931.50644  23150966.5004   23150969.1804
 -12910395.40744 -10060033.32344  21550856.2454   21550855.8434
 -22134433.98244 -17247600.01944  21057947.5124   21057947.0834
 -15462752.48044 -12048892.40944  21946174.6484   21946174.7454
 -20858568.99444 -16253413.26444  20380266.3314   20380266.7004
        -0.68054                  24340240.6174
  -3528426.11344  -2749414.98244  23774535.4264   23774534.8474
 96  3 24  0 36  0.0000000  0  8G20G 4G 5G 9G24G 6G16G 7
  -9576753.00344  -7462400.03544  23133024.3204   23133026.0274
 -12840998.94244 -10005958.16544  21564062.0524   21564061.5704
 -22192915.08244 -17293169.69744  21046818.8374   21046818.4694
 -15396286.54144 -11997100.78744  21958822.0994   21958822.7594
 -20860234.70244 -16254711.21144  20379949.2674   20379949.7034
         0.16054                  24900839.2174
    -94013.24744                  24322349.5274
  -3459273.17144                  23787693.2244
 96  3 24  0 36 30.0000000  0  8G20G 4G 5G 9G24G 6G16G 7
  -9670934.74344  -7535788.38244  23115102.5664   23115102.7324
 -12771237.73344  -9951598.78544  21577337.0614   21577336.6274
 -22251077.48344 -17338491.04544  21035750.8974   21035750.5594
 -15329441.33444 -11945013.62844  21971543.0194   21971543.3564
 -20861342.77144 -16255574.63744  20379738.3844   20379738.7014
    -71545.22144    -55748.86144  24887225.0094
   -188025.07144                  24304460.3874
  -3390055.36244  -2641595.33944  23800865.4184
 96  3 24  0 37  0.0000000  0  8G20G 4G 5G 9G24G 6G16G 7
  -9765027.85244  -7609107.66844  23097197.3184   23097197.3494
 -12701112.70344  -9896955.91644  21590680.9644   21590681.0554
 -22308924.93644 -17383566.97444  21024743.0374   21024742.8444
 -15262224.72544 -11892637.06344  21984334.0424   21984334.2344
 -20861896.01844 -16256005.73544  20379633.1914   20379633.4914
   -143027.77444                  24873619.5574
   -282060.42244   -219785.82244  24286565.8144
  -3320796.48344                  23814044.5744
 96  3 24  0 37 30.0000000  0  8G20G 4G 5G 9G24G 6G16G 7
  -9859004.34344  -7682336.08144  23079314.6494   23079315.6914
 -12630616.49644  -9842023.82444  21604096.2664   21604095.8654
 -22366438.87144 -17428383.01444  21013798.5924   21013798.2864
 -15194625.66244 -11839962.48544  21997198.0274   21997197.9834
 -20861891.48644 -16256002.19844  20379633.7804   20379634.2004
   -214437.21244                  24860032.3234
   -376132.06344                  24268665.1574
  -3251505.75944  -2533634.65944  23827230.5754
 96  3 24  0 38  0.0000000  0  8G20G 4G 5G 9G24G 6G16G 7
  -9952847.19244  -7755460.34344  23061456.5574   23061458.5504
 -12559734.36644  -9786791.00444  21617584.8714   21617584.9054
 -22423617.13444 -17472937.49544  21002917.6514   21002917.3274
 -15126628.13844 -11786977.42144  22010137.6574   22010137.8824
 -20861332.53944 -16255566.64944  20379740.6794   20379741.0554
   -285757.36944                  24846460.8584
   -470241.16244   -366420.29344  24250756.3124
  -3182171.34744  -2479607.87144  23840424.9354   23840428.4894
 96  3 24  0 38 30.0000000  0  8G20G 4G 5G 9G24G 6G16G 7
 -10046563.55644  -7828486.02844  23043622.4114   23043622.5544
 -12488479.13644  -9731267.45744  21631144.2344   21631143.6854
 -22480479.92344 -17517246.15744  20992097.0134   20992096.9084
 -15058227.42144 -11733678.17444  22023153.7424   22023154.0954
 -20860251.58144 -16254724.33544  20379946.1814   20379946.4794
   -357003.80244                  24832902.5514
   -564402.81144   -439792.89844  24232838.0854   24232840.3744
  -3112808.19444  -2425558.67044  23853625.1314   23853625.0844
 96  3 24  0 39  0.0000000  0  8G20G 4G 5G 9G24G 6G16G 7
 -10140214.34744  -7901460.64644  23025801.5004   23025800.8124
 -12416935.67444  -9675519.31744  21644758.3734   21644757.9274
 -22537122.15944 -17561382.95644  20981318.4404   20981318.1814
 -14989503.98044 -11680127.46444  22036230.6994   22036231.9864
 -20858741.81844 -16253547.89144  20380233.4974   20380233.8054
   -428272.13844                  24819338.5514
   -658700.78344   -513271.67144  24214893.5284   24214898.6444
  -3043487.27344  -2371542.37344  23866816.1354   23866818.4704
 96  3 24  0 39 30.0000000  0  8G20G 4G 5G 9G24G 6G16G 7
 -10233764.12944  -7974356.57144  23007999.2874   23008000.9304
 -12345100.16544  -9619543.60344  21658428.5814   21658428.2634
 -22593523.49044 -17605332.04044  20970585.8374   20970585.3564
 -14920439.87844 -11626311.30844  22049373.4274   22049374.3674
 -20856789.08144 -16252026.27144  20380605.1464   20380605.2164
   -499541.58144                  24805779.8184
   -753080.15844   -586813.91044  24196933.8974   24196938.8384
  -2974179.02244  -2317535.22844  23880005.3034   23880006.1474
 96  3 24  0 40  0.0000000  0  8G20G 4G 5G 9G24G 6G16G 7
 -10327160.66044  -8047133.04144  22990227.1124   22990227.0024
 -12272927.59044  -9563305.24644  21672162.3554   21672161.9784
 -22649635.58644 -17649055.74244  20959907.9614   20959908.0104
 -14850981.64044 -11572188.02144  22062591.5474   22062591.4724
 -20854342.75844 -16250120.03944  20381070.4834   20381070.8954
   -570768.49044   -444753.88144  24792226.6864
   -847472.47244   -660366.21944  24178971.9864   24178975.0054
  -2904833.45344                  23893201.0414
 96  3 24  0 40 30.0000000  0  8G20G 4G 5G 9G24G 6G16G 7
 -10420401.84544  -8119788.48444  22972483.1304   22972483.4874
 -12200432.10644  -9506815.26344  21685957.5494   21685957.1854
 -22705453.47744 -17692550.18844  20949285.9014   20949285.7644
 -14781146.54844 -11517771.08644  22075880.2694   22075880.8534
 -20851412.59444 -16247836.78544  20381628.2304   20381628.5274
   -641967.51144   -500233.61744  24778678.3824   24778681.4544
   -941883.58844   -733933.16444  24161005.6484   24161008.0834
  -2835460.29744  -2209443.64544  23906401.6374   23906401.9254
 96  3 24  0 41  0.0000000  0  8G20G 4G 5G 9G24G 6G16G 7
 -10513501.47744  -8192333.62644  22954768.0354   22954767.4034
 -12127635.79044  -9450090.86744  21699810.4924   21699810.2714
 -22760979.15144 -17735816.94444  20938720.0134   20938719.7054
 -14710976.95944 -11463093.50344  22089232.8614   22089233.5254
 -20848002.68544 -16245179.70644  20382277.0034   20382277.3914
   -713158.00844                  24765131.3994
  -1036319.78544   -807519.66744  24143033.9314   24143035.2904
  -2766084.80144  -2155384.82444  23919603.7094   23919604.8094
 96  3 24  0 41 30.0000000  0  8G20G 4G 5G 9G24G 6G16G 7
 -10606452.85244  -8264763.24544  22937079.7214   22937080.1434
 -12054527.34644  -9393123.25844  21713722.5684   21713722.2734
 -22816177.35944 -17778828.53144  20928215.8274   20928215.7804
 -14640466.67544 -11408150.43944  22102650.7034   22102651.0524
 -20844090.56944 -16242131.29744  20383021.4144   20383021.7004
   -784314.18444                  24751590.1794
  -1130762.04344   -881110.93044  24125062.2394   24125066.6244
  -2696681.49944  -2101304.34344  23932811.0784   23932814.6654
 96  3 24  0 42  0.0000000  0  8G20G 4G 5G 9G24G 6G16G 7
 -10699244.17044  -8337068.13744  22919421.1054   22919422.6624
 -11981066.12144  -9335880.75744  21727701.5404   21727701.1344
 -22871005.13544 -17821551.46744  20917782.5554   20917782.1064
 -14569600.21644 -11352929.83944  22116136.3634   22116136.5394
 -20839640.95044 -16238664.05644  20383868.1604   20383868.3564
   -855398.14444                  24738063.5674
  -1225199.91344   -954698.75144  24107091.8534   24107095.7054
  -2627222.14344  -2047180.19044  23946028.8974   23946030.7914
 96  3 24  0 42 30.0000000  0  8G20G 4G 5G 9G24G 6G16G 7
 -10791911.53844  -8409276.44644  22901787.9224   22901789.0134
 -11907272.98544  -9278379.62444  21741744.0594   21741743.5144
 -22925472.04644 -17863993.20844  20907418.0744   20907417.6944
 -14498404.55244 -11297452.71544  22129684.3094   22129684.5394
 -20834677.17244 -16234796.17044  20384812.5814   20384812.9834
   -926419.16844                  24724547.3454
  -1319643.79844  -1028291.27944  24089119.0384   24089123.2374
  -2557722.89044  -1993024.95944  23959254.3424   23959254.6884
 96  3 24  0 43  0.0000000  0  8G20G 4G 5G 9G24G 6G16G 7
 -10884486.59844  -8481412.83244  22884170.8204   22884171.2204
 -11833167.48944  -9220635.09644  21755846.0724   21755845.5554
 -22979597.87344 -17906169.17144  20897118.2304   20897117.8684
 -14426895.11044 -11241731.09144  22143292.4024   22143292.7284
 -20829212.09344 -16230537.66344  20385852.7214   20385853.0814
   -997387.41344                  24711041.1444
  -1414101.27344  -1101894.39444  24071144.6544   24071148.1934
  -2488212.61144  -1938861.13144  23972481.0684   23972481.3264
 96  3 24  0 43 30.0000000  0  8G20G 4G 5G 9G24G 6G16G 7
 -10976986.02844  -8553490.29744  22866568.2134   22866570.5134
 -11758750.60444  -9162647.92344  21770006.9964   21770006.4824
 -23033393.09944 -17948087.52444  20886881.2324   20886881.3624
 -14355069.10044 -11185762.79444  22156959.9814   22156960.5074
 -20823255.51044 -16225896.16544  20386986.1404   20386986.4774
  -1068306.48744   -832445.54144  24697544.3574   24697543.3204
  -1508571.13444  -1175507.16244  24053167.5754   24053170.4144
  -2418699.31644  -1884694.94444  23985708.2434
 96  3 24  0 44  0.0000000  0  8G20G 4G 5G 9G24G 6G16G 7
 -11069370.48044  -8625478.14844  22848988.4834   22848990.0964
 -11683996.95344  -9104398.33644  21784232.4084   21784232.2764
 -23086835.34944 -17989730.82444  20876711.8004   20876711.4414
 -14282896.46844 -11129524.40444  22170693.9324   22170694.4184
 -20816796.39644 -16220863.08544  20388215.4554   20388215.8184
  -1139154.50944                  24684063.9444
  -1603019.73344  -1249103.33744  24035194.0434   24035196.9414
  -2349174.20044  -1830519.56544  23998938.9504
 96  3 24  0 44 30.0000000  0  8G20G 4G 5G 9G24G 6G16G 7
 -11161605.75544  -8697349.76144  22831436.8224   22831438.3294
 -11608901.10944  -9045882.10844  21798522.6034   21798522.1874
 -23139913.15944 -18031090.15344  20866610.8464   20866610.4414
 -14210353.34044 -11072997.31044  22184498.7234   22184499.3084
 -20809824.44144 -16215430.38544  20389542.1874   20389542.4884
  -1209935.78344                  24670593.9474
  -1697431.72844  -1322670.99844  24017228.7844   24017233.8544
  -2279624.94544  -1776325.37444  24012174.3894   24012176.4054
 96  3 24  0 45  0.0000000  0  8G20G 4G 5G 9G24G 6G16G 7
 -11253686.59444  -8769101.03544  22813914.4124   22813914.7534
 -11533476.04444  -8987109.34544  21812875.7764   21812875.4244
 -23192638.27744 -18072174.65244  20856578.0224   20856577.7464
 -14137466.20044 -11016202.16044  22198368.6164   22198369.1494
 -20802337.14144 -16209596.12244  20390966.9534   20390967.2524
  -1280676.95144   -997928.82844  24657131.7434
  -1791834.51844  -1396231.52144  23999264.0484   23999267.0784
  -2210065.20244  -1722123.02744  24025411.9874   24025411.1604
 96  3 24  0 45 30.0000000  0  8G20G 4G 5G 9G24G 6G16G 7
 -11345599.02244  -8840721.08344  22796424.6204   22796424.9754
 -11457713.36344  -8928073.50444  21827292.3144   21827291.8404
 -23245007.90944 -18112982.14844  20846612.0474   20846612.1924
 -14064242.29644 -10959144.59244  22212303.3604   22212303.6944
 -20794326.37044 -16203353.96044  20392491.2114   20392491.5274
  -1351373.30944  -1053016.82544  24643680.4224   24643681.9654
  -1886231.72444  -1469787.63144  23981300.2054   23981304.3754
  -2140478.10344  -1667899.32344  24038653.5304   24038655.0024
 96  3 24  0 46  0.0000000  0  8G20G 4G 5G 9G24G 6G16G 7
 -11437338.50344  -8912206.35744  22778966.8634   22778967.8694
 -11381623.68744  -8868782.85744  21841771.9284   21841771.4434
 -23297036.57944 -18153523.96344  20836711.4194   20836711.5594
 -13990705.07544 -10901842.87444  22226297.0654   22226296.7444
 -20785803.54644 -16196712.79444  20394113.1694   20394113.5714
  -1422038.50744  -1108080.56044  24630232.7764   24630234.8154
  -1980647.49944  -1543358.32144  23963333.3034   23963336.2284
  -2070864.17544  -1613654.73944  24051900.0524   24051903.2324
 96  3 24  0 46 30.0000000  0  8G20G 4G 5G 9G24G 6G16G 7
 -11528913.99644  -8983563.86344  22761540.1394   22761540.4804
 -11305207.75844  -8809237.99144  21856313.0884   21856312.4674
 -23348714.35244 -18193792.35244  20826877.5464   20826877.2004
 -13916857.88344 -10844299.62544  22240349.4554   22240349.5474
 -20776744.21244 -16189653.57044  20395836.9994   20395837.4154
  -1492661.32544  -1163111.37944  24616794.7364   24616793.1884
  -2075074.22244  -1616937.50944  23945365.1324   23945368.3524
  -2001203.45744  -1559373.75644  24065156.1854   24065159.9604
 96  3 24  0 47  0.0000000  0  8G20G 4G 5G 9G24G 6G16G 7
 -11620325.81744  -9054793.80844  22744145.4924   22744145.8524
 -11228458.59544  -8749433.46744  21870918.5274   21870917.8404
 -23400031.82944 -18233779.99044  20817112.4324   20817111.8734
 -13842690.45944 -10786506.85044  22254462.6314   22254463.0314
 -20767135.42144 -16182166.19444  20397665.5834   20397665.8204
  -1563210.01744  -1218084.29644  24603369.1624   24603371.6824
  -2169472.60244  -1690494.61044  23927401.7774   23927402.3254
  -1931474.81044  -1505039.78544  24078424.8834   24078428.4694
 96  3 24  0 47 30.0000000  0  8G20G 4G 5G 9G24G 6G16G 7
 -11711585.56544  -9125905.27044  22726779.4544   22726779.8084
 -11151400.95644  -8689388.57544  21885582.2694   21885581.7554
 -23451004.75044 -18273499.14144  20807412.1484   20807411.7414
 -13768200.79144 -10728462.97444  22268637.7224   22268638.1374
 -20757011.04944 -16174277.06744  20399592.2444   20399592.5894
  -1633696.23844  -1273008.56344  24589955.6594   24589958.7054
  -2263839.11344  -1764026.89244  23909444.0684   23909444.9214
  -1861695.32644  -1450666.18544  24091703.4184   24091704.8884
 96  3 24  0 48  0.0000000  0  8G20G 4G 5G 9G24G 6G16G 7
 -11802691.95644  -9196897.24944  22709442.7004   22709442.9014
 -11074054.26844  -8629118.44844  21900300.5664   21900299.9264
 -23501623.40844 -18312942.24544  20797780.0894   20797779.5864
 -13693377.04444 -10670158.77744  22282876.2314   22282876.8004
 -20746383.14344 -16165995.57944  20401614.5594   20401614.9624
  -1704123.65444  -1327886.99044  24576554.5374   24576554.2524
  -2358154.49244  -1837519.36344  23891496.9724   23891499.7064
  -1791870.77144  -1396257.48744  24104991.6834   24104991.0524
 96  3 24  0 48 30.0000000  0  8G20G 4G 5G 9G24G 6G16G 7
 -11893656.11644  -9267778.38244  22692132.3674   22692132.9734
 -10996443.73244  -8568642.71344  21915069.8084   21915068.4304
 -23551886.89644 -18352108.59344  20788215.4084   20788215.0054
 -13618222.82444 -10611597.07544  22297177.2634   22297178.6344
 -20735271.72444 -16157337.32144  20403729.1044   20403729.5204
  -1774507.50844  -1382731.56444  24563160.6474   24563162.8624
  -2452419.18144  -1910972.31044  23873558.3624   23873561.1744
  -1722019.69244  -1341828.04644  24118283.7124   24118286.9364
 96  3 24  0 49  0.0000000  0  8G20G 4G 5G 9G24G 6G16G 7
 -11984465.15644  -9338538.62744  22674852.2224   22674852.8274
 -10918572.05544  -8507963.49744  21929887.9224   21929887.3954
 -23601810.72444 -18391010.27144  20778715.1194   20778714.9054
 -13542742.13444 -10552780.97944  22311540.8084   22311541.7264
 -20723701.97644 -16148321.92844  20405930.6874   20405931.0184
  -1844866.43544  -1437556.71744  24549771.1554   24549772.9344
  -2546644.11844  -1984394.26744  23855628.0944   23855629.4484
  -1652161.40544  -1287393.02044  24131577.4604   24131578.0574
 96  3 24  0 49 30.0000000  0  8G20G 4G 5G 9G24G 6G16G 7
 -12075058.64444  -9409130.92944  22657612.7284   22657613.5714
 -10840404.55644  -8447053.77144  21944763.3274   21944762.8334
 -23651362.43244 -18429621.98544  20769285.5954   20769285.3884
 -13466921.12444 -10493699.70344  22325969.6574   22325970.3474
 -20711654.84944 -16138934.55244  20408222.9674   20408223.3084
  -1915175.20144  -1492342.69044  24536390.5094   24536395.2054
  -2640809.82844  -2057770.07144  23837708.5354   23837709.1664
  -1582260.25644  -1232924.63844  24144878.8744   24144881.7324
 96  3 24  0 50  0.0000000  0  8G20G 4G 5G 9G24G 6G16G 7
 -12165462.73744  -9479575.65144  22640408.8394   22640409.5334
 -10761953.21644  -8385922.87244  21959691.5534   21959691.0304
 -23700565.78944 -18467962.25844  20759922.3084   20759922.0874
 -13390804.13344 -10434387.78244  22340454.7074   22340454.0764
 -20699157.66344 -16129196.48344  20410601.3314   20410601.4954
  -1985457.81344  -1547108.29744  24523017.3494   24523018.6664
  -2734937.97044  -2131116.56344  23819796.4574   23819799.5864
  -1512335.79544  -1178438.11444  24158184.9624   24158185.2834
 96  3 24  0 50 30.0000000  0  8G20G 4G 5G 9G24G 6G16G 7
 -12255682.66844  -9549876.84744  22623240.4764   22623242.1424
 -10683208.84444  -8324563.63144  21974676.4004   21974675.7144
 -23749422.36444 -18506032.31244  20750625.5754   20750625.1224
 -13314399.29644 -10374851.55444  22354993.9034   22354993.4584
 -20686200.12344 -16119099.69444  20413067.1054   20413067.3284
  -2055715.70044  -1601854.61044  24509648.6984   24509649.6144
  -2829032.99744  -2204437.29344  23801891.0924   23801893.3304
  -1442389.28844  -1123934.39344  24171494.7184   24171498.4404
 96  3 24  0 51  0.0000000  0  8G20G 4G 5G 9G24G 6G16G 7
 -12345723.96544  -9620038.88144  22606106.8404   22606107.7564
 -10604165.83344  -8262971.69044  21989717.9314   21989717.4324
 -23797932.39444 -18543832.32444  20741394.1824   20741393.9884
 -13237716.98144 -10315099.11844  22369585.4754   22369585.5734
 -20672780.19744 -16108642.60344  20415620.6794   20415621.0964
  -2125943.08444  -1656577.28044  24496284.6324   24496284.4654
  -2923089.40144  -2277727.86044  23783992.0434   23783996.0044
  -1372424.05944  -1069416.07344  24184808.8174   24184810.8954
 96  3 24  0 51 30.0000000  0  8G20G 4G 5G 9G24G 6G16G 7
 -12435596.57844  -9690069.46944  22589004.7694   22589004.9224
 -10524827.66244  -8201149.75644  22004815.5234   22004814.9724
 -23846070.72544 -18581342.70744  20732233.8674   20732233.5344
 -13160759.98944 -10255132.64744  22384229.3394   22384229.7764
 -20658886.11344 -16097816.04044  20418264.7604   20418265.0424
  -2196130.43444  -1711268.72144  24482927.8564   24482928.6274
  -3017094.98144  -2350978.85444  23766103.7474   23766109.0064
  -1302438.87644  -1014882.22744  24198127.3684   24198129.5664
 96  3 24  0 52  0.0000000  0  8G20G 4G 5G 9G24G 6G16G 7
 -12525327.23744  -9759989.44644  22571929.6884   22571929.8214
 -10445202.72944  -8139104.36344  22019967.3314   22019966.8724
 -23893815.20744 -18618546.19444  20723148.5204   20723148.3524
 -13083518.72144 -10194944.67444  22398927.9234   22398928.3714
 -20644499.88244 -16086605.98644  20421002.2654   20421002.6824
  -2266274.60944  -1765926.48344  24469580.5804   24469581.2504
  -3111062.58344  -2424200.27244  23748222.9574   23748224.0644
  -1232450.36144   -960345.74444  24211445.7874   24211447.9564
 96  3 24  0 52 30.0000000  0  8G20G 4G 5G 9G24G 6G16G 7
 -12614905.48444  -9829790.65444  22554883.1774   22554883.9264
 -10365299.23444  -8076841.90544  22035172.0074   22035171.5844
 -23941158.94244 -18655437.41244  20714138.9654   20714138.6414
 -13005986.51744 -10134530.00044  22413682.0384   22413682.5824
 -20629611.42944 -16075004.59244  20423835.3814   20423835.7444
  -2336376.30544  -1820551.14844  24456240.6024   24456240.3714
  -3204998.18044  -2497396.72544  23730347.1354   23730348.5924
  -1162452.99344   -905802.34344  24224765.6514   24224766.8074
 96  3 24  0 53  0.0000000  0  8G20G 4G 5G 9G24G 6G16G 7
 -12704290.16744  -9899441.02744  22537873.2214   22537874.5144
 -10285101.21344  -8014349.95244  22050433.5284   22050433.6804
 -23988082.10844 -18692000.91144  20705209.9804   20705209.5224
 -12928151.37544 -10073879.26244  22428494.2624   22428494.8454
 -20614207.77044 -16063001.73944  20426766.8114   20426767.2064
  -2406415.13844  -1875126.84544  24442912.1984   24442912.1644
  -3298882.23544  -2570553.02844  23712481.1284   23712482.2344
  -1092413.52744   -851226.10144  24238094.2104   24238095.7224
 96  3 24  0 53 30.0000000  0  8G20G 4G 5G 9G24G 6G16G 7
 -12793510.08844  -9968963.03244  22520894.9374   22520896.2334
 -10204661.61244  -7951669.75944  22065740.7194   22065740.3604
 -24034640.49844 -18728280.17244  20696350.1084   20696349.7814
 -12850059.55344 -10013028.50944  22443354.6244   22443355.1374
 -20598327.17244 -16050627.24244  20429788.6554   20429788.8744
  -2476434.00344  -1929686.95944  24429587.4404   24429588.0234
  -3392756.09844  -2643701.41044  23694617.5744   23694619.6684
  -1022359.36044   -796638.49744  24251424.2614   24251424.6944
 96  3 24  0 54  0.0000000  0  8G20G 4G 5G 9G24G 6G16G 7
 -12882545.38744 -10038341.15744  22503952.6994   22503953.0294
 -10123963.41344  -7888788.05744  22081097.0064   22081097.0054
 -24080837.78844 -18764278.05644  20687558.9894   20687558.9244
 -12771689.18944  -9951960.71944  22458268.0594   22458268.4304
 -20581959.55044 -16037873.24844  20432903.1694   20432903.5084
  -2546422.68944  -1984223.59544  24416269.6104   24416267.7784
  -3486600.67544  -2716826.95944  23676759.1194   23676762.0514
   -952257.10544   -742013.38544  24264763.7924   24264764.1904
 96  3 24  0 54 30.0000000  0  8G20G 4G 5G 9G24G 6G16G 7
 -12971381.90244 -10107564.38744  22487048.2254   22487048.5464
 -10043006.44944  -7825704.72344  22096502.4074   22096502.0674
 -24126686.58244 -18800004.38944  20678834.4804   20678834.0884
 -12693038.24544  -9890674.28944  22473234.5284   22473234.9394
 -20565117.29744 -16024749.41144  20436108.1514   20436108.5284
  -2616384.69544  -2038739.39144  24402957.0694   24402956.6124
  -3580383.50644  -2789904.38244  23658912.7564   23658913.7694
   -882097.04044   -687343.20044  24278115.6234   24278118.4604
 96  3 24  0 55  0.0000000  0  8G20G 4G 5G 9G24G 6G16G 7
 -13060020.12244 -10176633.11344  22470180.6594   22470181.0284
  -9961794.44844  -7762422.65344  22111956.7884   22111956.4764
 -24172185.30444 -18835457.93244  20670176.2794   20670175.9724
 -12614103.42644  -9829166.65844  22488255.7914   22488256.1114
 -20547796.90644 -16011253.00244  20439404.2324   20439404.5754
  -2686301.53244  -2093220.02644  24389651.9414   24389652.5774
  -3674088.60044  -2862921.25044  23641082.0704   23641085.2764
   -811880.83644   -632629.34844  24291477.5734   24291476.7114
 96  3 24  0 55 30.0000000  0  8G20G 4G 5G 9G24G 6G16G 7
 -13148469.59244 -10245554.75044  22453348.9234   22453349.0674
  -9880312.28144  -7698930.06444  22127462.1124   22127462.0754
 -24217324.14844 -18870631.05144  20661586.5024   20661586.1924
 -12534868.10044  -9767424.86144  22503333.8474   22503334.4474
 -20530003.61744 -15997388.10144  20442790.1674   20442790.4824
  -2756171.44044  -2147664.05644  24376356.2864   24376357.7344
  -3767706.49144  -2935870.13344  23623267.2424   23623269.3514
   -741629.26844   -577887.87844  24304846.0804   24304846.8514
 96  3 24  0 56  0.0000000  0  8G20G 4G 5G 9G24G 6G16G 7
 -13236729.04944 -10314328.34544  22436554.2124   22436554.8434
  -9798553.78244  -7635222.15944  22143020.5474   22143020.3304
 -24262078.11744 -18905504.27144  20653070.0334   20653069.7234
 -12455318.91144  -9705438.51244  22518470.9564   22518472.0954
 -20511749.49944 -15983164.10944  20446263.9994   20446264.2434
  -2825988.04344  -2202066.60144  24363070.1324   24363070.6574
  -3861231.37044  -3008746.56544  23605469.1794   23605469.8264
   -671356.67844   -523130.03944  24318218.8774
 96  3 24  0 56 30.0000000  0  8G20G 4G 5G 9G24G 6G16G 7
 -13324788.97044 -10382946.45044  22419796.3784   22419796.5634
  -9716536.25544  -7571312.41444  22158627.9364   22158627.1354
 -24306448.13844 -18940078.30644  20644626.7974   20644626.5794
 -12375478.60244  -9643225.31044  22533662.9704   22533664.4724
 -20493044.54444 -15968588.81744  20449823.3744   20449823.5234
  -2895745.00844  -2256422.62544  24349796.0084   24349797.7124
  -3954672.75444  -3081557.90644  23587687.6734   23587689.6684
   -601080.74744                  24331591.0984
 96  3 24  0 57  0.0000000  0  8G20G 4G 5G 9G24G 6G16G 7
 -13412616.53544 -10451383.49044  22403082.9394   22403083.3424
  -9634233.42344  -7507180.35444  22174289.4074   22174289.5164
 -24350398.35744 -18974325.22344  20636263.5774   20636263.1844
 -12295330.59244  -9580772.34544  22548915.4954   22548916.1104
 -20473864.59444 -15953643.40044  20453473.0644   20453473.4244
  -2965415.56944  -2310711.38844  24336538.5074   24336537.4624
  -4048022.56444  -3154297.93644  23569923.8324   23569926.5734
   -530778.15844   -413588.36944  24344969.2024
 96  3 24  0 57 30.0000000  0  8G20G 4G 5G 9G24G 6G16G 7
 -13500242.00344 -10519663.07244  22386408.8904   22386408.3934
  -9551681.58944  -7442854.27544  22189998.5224   22189998.1754
 -24393942.78644 -19008255.93944  20627977.0724   20627976.7364
 -12214925.46944  -9518119.02744  22564216.9354   22564217.0904
 -20454246.16844 -15938356.31444  20457206.3874   20457206.6444
  -3035036.54344  -2364961.45844  24323289.6414   24323290.6804
  -4141312.57644  -3226991.35744  23552171.8334   23552173.3494
   -460475.16144                  24358346.8804
 96  3 24  0 58  0.0000000  0  8G20G 4G 5G 9G24G 6G16G 7
 -13587671.77844 -10587790.16544  22369771.4894   22369771.9344
  -9468918.41244  -7378363.50144  22205747.5044   22205747.0204
 -24437094.24544 -19041880.44544  20619765.7554   20619765.3274
 -12134302.97944  -9455296.32244  22579559.0614   22579558.4944
 -20434181.56044 -15922721.55244  20461024.5194   20461024.8254
  -3104612.00944  -2419176.09044  24310048.9194   24310050.1814
  -4234552.15044  -3299645.49444  23534429.0944   23534431.6124
   -390155.05944                  24371727.5964
 96  3 24  0 58 30.0000000  0  8G20G 4G 5G 9G24G 6G16G 7
 -13674898.24544 -10655758.82544  22353173.1984   22353173.5284
  -9385922.60744  -7313691.46444  22221541.5024   22221541.3824
 -24479838.67644 -19075187.79044  20611631.7314   20611631.3104
 -12053461.50144  -9392302.98044  22594942.7274   22594942.4524
 -20413627.85244 -15906705.67744  20464935.9304   20464936.2024
  -3174137.65444  -2473351.85744  24296818.2984   24296822.4994
  -4327717.29844  -3372241.61344  23516699.1754   23516701.2184
   -319791.51444                  24385118.6294
 96  3 24  0 59  0.0000000  0  8G20G 4G 5G 9G24G 6G16G 7
 -13761938.05544 -10723582.02244  22336609.8064   22336610.3034
  -9302690.43644  -7248835.24144  22237380.1084   22237379.7304
 -24522172.74844 -19108175.37244  20603575.9034   20603575.6084
 -11972403.84244  -9329141.18644  22610366.9114   22610366.7964
 -20392580.95844 -15890305.49744  20468940.8414   20468941.1494
  -3243633.88044  -2527504.71144  24283594.4234   24283595.8624
  -4420802.33344  -3444775.29744  23498986.0514   23498987.3784
   -249380.55544                  24398518.6434
 96  3 24  0 59 30.0000000  0  8G20G 4G 5G 9G24G 6G16G 7
 -13848784.02544 -10791254.17844  22320083.3334   22320084.2304
  -9219218.07244  -7183791.85844  22253264.5924   22253264.0624
 -24564092.57444 -19140840.17044  20595598.6624   20595598.4044
 -11891122.72244  -9265805.28044  22625833.9734   22625834.9814
 -20371025.46244 -15873509.00644  20473042.7074   20473042.8584
  -3313090.73744  -2581626.91744  24270377.2274   24270380.0724
  -4513785.13244  -3517229.34344  23481292.4384   23481293.6984
   -178915.27944                  24411927.3644
 96  3 24  1  0  0.0000000  0  8G20G 4G 5G 9G24G 6G16G 7
 -13935420.98244 -10858763.48844  22303596.8184   22303597.9324
  -9135484.41444  -7118544.86744  22269198.4194   22269198.2004
 -24605596.93444 -19173181.22344  20587700.5294   20587700.3584
 -11809586.24844  -9202270.40744  22641349.1084   22641350.8264
 -20348954.72344 -15856311.02944  20477242.7654   20477242.9594
  -3382508.15844  -2635718.37644  24257168.1144   24257168.3664
  -4606651.91144  -3589592.99644  23463620.0084   23463621.6054
   -108392.94044                  24425345.0974
 96  3 24  1  0 30.0000000  0  8G20G 4G 5G 9G24G 6G16G 7
 -14021856.08244 -10926115.50244  22287149.0434   22287149.7124
  -9051492.25444  -7053096.44944  22285181.2124   22285180.9104
 -24646700.52544 -19205209.99444  20579879.0234   20579878.5294
 -11727802.63844  -9138542.95544  22656912.7584   22656913.2124
 -20326406.15344 -15838740.71444  20481533.5394   20481533.7294
  -3451908.62244  -2689796.67144  24243961.0234   24243962.9454
  -4699428.76344  -3661886.58144  23445964.6124   23445967.6874
    -37851.46144                  24438770.2414
 96  3 24  1  1  0.0000000  0  8G20G 4G 5G 9G24G 6G16G 7
 -14108057.88244 -10993285.71944  22270745.7014   22270746.0424
  -8967245.18344  -6987449.39844  22301212.9244   22301212.7354
 -24687398.79344 -19236922.92444  20572134.3474   20572134.0644
 -11645775.25444  -9074625.53544  22672522.4464   22672522.8464
 -20303402.99444 -15820816.17644  20485910.8984   20485911.1514
  -3521261.59644  -2743837.92144  24230763.3614   24230765.1404
  -4792107.44644  -3734103.64644  23428328.3844   23428330.4534
     32711.47844                  24452197.2624
 96  3 24  1  1 30.0000000  0  8G20G 4G 5G 9G24G 6G16G 7
 -14194025.69344 -11060273.60244  22254386.5304   22254387.0204
  -8882747.97044  -6921607.43044  22317292.8584   22317291.9714
 -24727695.25144 -19268322.75544  20564466.3184   20564465.8304
 -11563507.67544  -9010520.94644  22688177.9314   22688177.7454
 -20279959.26244 -15802548.33444  20490372.0104   20490372.2994
  -3590564.03444  -2797839.77844  24217575.1094   24217576.9514
  -4884682.29744  -3806239.82244  23410712.0434   23410714.6604
    103275.44044                  24465624.9364
 96  3 24  1  2  0.0000000  0  8G20G 4G 5G 9G24G 6G16G 7
 -14279742.95744 -11127066.25144  22238074.6304   22238074.7084
  -8797981.06244  -6855555.30544  22333422.7794   22333422.3734
 -24767587.30244 -19299407.47344  20556874.8564   20556874.4984
 -11480991.34444  -8946222.53744  22703880.0654   22703879.7984
 -20256068.38444 -15783932.06944  20494918.3734   20494918.7394
  -3659811.22444  -2851798.57144  24204397.9424   24204401.6044
  -4977135.49544  -3878281.21144  23393119.4824   23393120.7964
    173862.82544                  24479058.5724
 96  3 24  1  2 30.0000000  0  8G20G 4G 5G 9G24G 6G16G 7
 -14365206.11044 -11193660.89344  22221811.5764   22221812.4634
  -8712956.45344  -6789302.37144  22349603.1534   22349602.3354
 -24807073.20444 -19330175.70244  20549360.7354   20549360.5254
 -11398237.03244  -8881738.68744  22719627.3374   22719628.0294
 -20231729.99244 -15764967.09144  20499549.7604   20499550.0994
  -3729000.76944  -2905712.45144  24191230.8244   24191232.2734
  -5069452.25244  -3950216.27244  23375552.1604   23375553.9884
    244482.56044                  24492496.9964
 96  3 24  1  3  0.0000000  0  8G20G 4G 5G 9G24G 6G16G 7
 -14450438.89944 -11260076.03344  22205591.9954   22205593.2864
  -8627706.87444  -6722874.13244  22365825.3294   22365824.9104
 -24846164.43844 -19360636.40344  20541922.3594   20541921.9064
 -11315252.31644  -8817075.30244  22735418.4974   22735420.0094
 -20206954.79944 -15745661.74544  20504264.2734   20504264.6124
  -3798155.79344  -2959599.45844  24178071.8824   24178074.3064
  -5161620.06944  -4022035.28644  23358013.3134   23358014.9174
    315125.20644                  24505940.6344
 96  3 24  1  3 30.0000000  0  8G20G 4G 5G 9G24G 6G16G 7
 -14535464.39544 -11326329.65244  22189412.1464   22189413.3114
  -8542256.47744  -6656289.43744  22382086.1774   22382085.6284
 -24884871.63044 -19390797.85044  20534556.2454   20534555.9924
 -11232034.58944  -8752230.35144  22751254.4824   22751254.7634
 -20181751.73344 -15726022.99144  20509060.3714   20509060.6744
  -3867328.39544  -3013500.14444  24164908.6534   24164911.9544
  -5253657.83844  -4093752.97044  23340498.2804   23340499.2244
    385779.80744                  24519385.2834
 96  3 24  1  4  0.0000000  0  8G20G 4G 5G 9G24G 6G16G 7
 -14620270.74444 -11392412.50244  22173274.3274   22173274.9534
  -8456629.18344  -6589566.89344  22398380.5474   22398380.1374
 -24923191.84644 -19420657.75644  20527264.4844   20527264.0844
 -11148588.99744  -8687207.83144  22767133.8624   22767134.0884
 -20156124.08944 -15706053.39544  20513937.0654   20513937.3684
  -3936527.62144  -3067421.56744  24151740.2904   24151741.9364
  -5345589.27644  -4165387.79944  23323004.7284   23323005.2504
    456461.25244                  24532835.0594
 96  3 24  1  4 30.0000000  0  8G20G 4G 5G 9G24G 6G16G 7
 -14704833.47544 -11458305.52844  22157182.6994   22157183.1024
  -8370822.42544  -6522704.50444  22414708.9804   22414708.9904
 -24961078.65644 -19450179.94244  20520054.7604   20520054.3064
 -11064893.49844  -8621990.58044  22783061.0814   22783061.3194
 -20130062.11944 -15685745.36544  20518896.3654   20518896.7104
  -4005721.69344  -3121338.99344  24138573.1574   24138576.3754
  -5437400.18844  -4236928.71744  23305533.7354   23305533.6614
    527181.50544                  24546291.9694
 96  3 24  1  5  0.0000000  0  8G20G 4G 5G 9G24G 6G16G 7
 -14789165.92644 -11524019.09944  22141134.9884   22141135.6914
  -8284852.96144  -6455715.33344  22431068.0154   22431068.3304
 -24998546.01944 -19479375.29144  20512925.1804   20512924.7244
 -10980970.63244  -8556596.16244  22799030.4084   22799030.7974
 -20103581.23344 -15665110.90744  20523935.7384   20523936.1454
  -4074918.68844  -3175258.65344  24125406.0804   24125406.3204
  -5529123.75744  -4308401.57044  23288079.1594   23288081.4864
    597915.22444                  24559752.5954
 96  3 24  1  5 30.0000000  0  8G20G 4G 5G 9G24G 6G16G 7
 -14873257.89644 -11589545.29144  22125132.7064   22125133.3844
  -8198704.10744  -6388586.37544  22447461.6214   22447461.1174
 -25035585.88944 -19508237.52744  20505876.5034   20505876.2124
 -10896832.26544  -8491033.82844  22815041.5744   22815043.1894
 -20076672.51244 -15644143.07344  20529056.2864   20529056.5894
  -4144099.97944  -3229166.10444  24112241.0314   24112244.1504
  -5620765.80344  -4379810.89944  23270640.0614   23270642.9914
    668671.40944                  24573217.7984
 96  3 24  1  6  0.0000000  0  8G20G 4G 5G 9G24G 6G16G 7
 -14957085.07644 -11654865.14544  22109180.7324   22109181.1114
  -8112337.25644  -6321287.54244  22463896.3544   22463896.8954
 -25072165.95944 -19536741.47644  20498915.5584   20498915.1114
 -10812469.24244  -8425296.43844  22831096.0554   22831096.5104
 -20049300.14644 -15622813.95444  20534264.9474   20534265.2454
  -4213197.91844  -3283008.63944  24099092.4034   24099095.5054
  -5712285.81144  -4451125.14144  23253224.3844   23253226.2524
    739473.97544                  24586691.6104
 96  3 24  1  6 30.0000000  0  8G20G 4G 5G 9G24G 6G16G 7
 -15040637.80044 -11719971.15644  22093281.4304   22093281.4014
  -8025720.25744  -6253793.80044  22480379.2764   22480379.2434
 -25108273.96044 -19564877.57744  20492044.2924   20492043.9694
 -10727868.95944  -8359374.16744  22847194.7904   22847195.1924
 -20021448.59444 -15601111.44444  20539564.7584   20539565.2084
  -4282182.11444  -3336762.49244  24085962.9894   24085964.2944
  -5803644.01944  -4522313.31844  23235839.4104   23235840.6144
    810333.77544                  24600174.4184
 96  3 24  1  7  0.0000000  0  8G20G 4G 5G 9G24G 6G16G 7
 -15123953.21744 -11784892.24744  22077427.3564   22077427.0894
  -7938881.50244  -6186127.25044  22496904.8434   22496904.5314
 -25143951.79344 -19592678.48144  20485255.3234   20485254.8944
 -10643076.22444  -8293301.93144  22863330.0424   22863329.7484
 -19993133.67644 -15579047.87044  20544953.1344   20544953.2984
  -4351089.02544  -3390456.11844  24072851.4584   24072852.5774
  -5894864.87744  -4593394.46744  23218479.8874   23218482.3474
    881225.92944                  24613665.9024
 96  3 24  1  7 30.0000000  0  7G20G 4G 5G 9G24G 6G16
 -15207014.10044 -11849614.99244  22061620.4924   22061620.8634
  -7851808.68244  -6118278.32944  22513473.6094   22513473.8274
 -25179180.89044 -19620129.72744  20478551.2194   20478550.7384
 -10558080.45744  -8227071.48844  22879503.9474   22879503.4744
 -19964346.13744 -15556616.01844  20550431.0664   20550431.3904
  -4419905.33044  -3444079.19444  24059756.5784   24059757.6344
  -5985926.52144  -4664351.54544  23201151.9424   23201153.8644
 96  3 24  1  8  0.0000000  0  7G20G 4G 5G 9G24G 6G16
 -15289819.36844 -11914138.55944  22045862.9694   22045864.0554
  -7764523.87344  -6050264.20644  22530084.1284   22530083.4244
 -25213967.61744 -19647236.26844  20471931.6004   20471931.1744
 -10472887.99644  -8160687.77544  22895715.9444   22895717.2024
 -19935102.98644 -15533829.14644  20555996.0954   20555996.3364
  -4488646.21644  -3497643.49744  24046676.5414   24046676.5514
  -6076833.78444  -4735188.31544  23183853.1384   23183854.5394
 96  3 24  1  8 30.0000000  0  7G20G 4G 5G 9G24G 6G16
 -15372378.42644 -11978470.27944  22030152.8704   22030153.7574
  -7677057.70944  -5982108.76944  22546727.9254   22546727.5714
 -25248338.35544 -19674018.65344  20465391.0034   20465390.7004
 -10387522.83744  -8094169.50944  22911960.5884   22911961.9954
 -19905436.26944 -15510712.22244  20561641.3844   20561641.5534
  -4557357.07344  -3551184.35244  24033600.2634   24033602.2014
  -6167609.78844  -4805922.82744  23166578.6374   23166580.6874
 96  3 24  1  9  0.0000000  0  7G20G 4G 5G 9G24G 6G16
 -15454660.42544 -12042586.10844  22014495.3864   22014495.9324
  -7589391.75644  -5913797.66844  22563410.2804   22563409.3754
 -25282262.28044 -19700452.88444  20458935.4374   20458935.0054
 -10301971.33144  -8027506.02944  22928240.3884   22928240.8874
 -19875327.91644 -15487251.17044  20567370.8144   20567371.1234
  -4626023.03344  -3604690.24744  24020533.2314   24020536.2354
  -6258232.00244  -4876537.50044  23149334.0844   23149335.1384
 96  3 24  1  9 30.0000000  0  8G20G 4G 5G 9G24G 6G16G 7
 -15536651.20044 -12106475.02044  21998892.7334   21998893.3824
  -7501537.65744  -5845339.93044  22580127.9454   22580128.1164
 -25315742.32344 -19726541.22744  20452564.3634   20452564.2324
 -10216230.25244  -7960694.82944  22944556.0944   22944557.7974
 -19844802.07844 -15463464.80144  20573179.6174   20573179.7504
  -4694653.84244  -3658168.75044  24007474.2724   24007473.9384
  -6348691.72244  -4947025.54444  23132120.5334   23132122.2384
        -0.58654                  24681279.6954
 96  3 24  1 10  0.0000000  0  8G20G 4G 5G 9G24G 6G16G 7
 -15618370.29644 -12170152.21344  21983341.6984   21983342.6994
  -7413518.09544  -5776753.28144  22596877.6514   22596877.6074
 -25348797.05044 -19752298.15644  20446274.2984   20446273.8684
 -10130329.49544  -7893759.21344  22960902.0694   22960903.6194
 -19813887.05244 -15439375.17044  20579062.6724   20579063.1384
  -4763278.71444  -3711642.64944  23994416.0084   23994415.3544
  -6439000.51544  -5017395.98844  23114934.4224   23114935.4294
     71215.95444                  24694831.6994
 96  3 24  1 10 30.0000000  0  8G20G 4G 5G 9G24G 6G16G 7
 -15699818.23744 -12233618.12444  21967843.0514   21967843.4134
  -7325311.57244  -5708020.95444  22613662.9624   22613662.6494
 -25381405.92144 -19777707.66944  20440069.0684   20440068.9414
 -10044256.15944  -7826689.11644  22977280.9624   22977282.2414
 -19782566.01844 -15414969.17544  20585022.6984   20585023.0754
  -4831886.05844  -3765102.88244  23981359.7064   23981357.4784
  -6529139.12644  -5087633.82544  23097781.7124   23097783.0884
    142446.00344                  24708385.8374
 96  3 24  1 11  0.0000000  0  7G20G 4G 5G 9G24G 6G16
 -15780988.48344 -12296867.66344  21952396.8424   21952397.4944
  -7236903.35444  -5639131.44744  22630486.7274   22630486.4104
 -25413544.84544 -19802750.98344  20433953.2154   20433952.8454
  -9957987.45744  -7759466.78944  22993697.9874   22993697.6914
 -19750819.60344 -15390231.70644  20591063.9374   20591064.2354
  -4900458.83744  -3818536.18344  23968309.8444   23968312.8824
  -6619089.50344  -5157724.97744  23080665.3754   23080666.6414
 96  3 24  1 11 30.0000000  0  7G20G 4G 5G 9G24G 6G16
 -15861896.74644 -12359913.05044  21937000.7194   21937001.2644
  -7148302.73244  -5570092.01944  22647345.9624   22647346.5704
 -25445226.78744 -19827438.21044  20427924.5134   20427924.0504
  -9871528.95244  -7692096.54844  23010150.4314   23010151.0134
 -19718645.77144 -15365161.19144  20597186.2164   20597186.7384
  -4969012.76244  -3871954.76444  23955264.8104   23955266.6244
  -6708862.59644  -5227677.98644  23063581.5584   23063582.9974
 96  3 24  1 12  0.0000000  0  8G20G 4G 5G 9G24G 6G16G 7
 -15942540.01244 -12422751.94544  21921654.8884   21921655.3764
  -7059485.74744  -5500884.00044  22664247.8844   22664248.1624
 -25476438.23644 -19851758.82244  20421985.0264   20421984.5424
  -9784870.03744  -7624570.15044  23026641.7824   23026641.3164
 -19686014.75344 -15339734.42844  20603395.6274   20603395.9954
  -5037529.01544  -3925343.99144  23942226.8644   23942227.6684
  -6798449.59144  -5297485.99644  23046533.8714   23046535.4564
        -1.22854                  24749052.6814
 96  3 24  1 12 30.0000000  0  8G20G 4G 5G 9G24G 6G16G 7
 -16022929.20344 -12485392.86644  21906356.7854   21906357.6324
  -6970472.44744  -5431523.00744  22681186.3614   22681185.9854
 -25507210.66544 -19875737.33844  20416129.1954   20416128.6994
  -9698015.95044  -7556891.65944  23043169.0404   23043169.8294
 -19652942.37344 -15313963.74244  20609689.0714   20609689.5874
  -5106022.00144  -3978715.13944  23929193.3214   23929194.4634
  -6887872.57544  -5367166.19144  23029516.3394   23029517.9764
     71239.87444                  24762609.0244
 96  3 24  1 13  0.0000000  0  8G20G 4G 5G 9G24G 6G16G 7
 -16103051.11344 -12547825.50244  21891109.9664   21891110.8714
  -6881282.64844  -5362024.46444  22698158.8334   22698158.4874
 -25537573.18544 -19899396.44844  20410351.4224   20410351.1124
  -9610983.63044  -7489074.29744  23059730.8284   23059732.4384
 -19619448.49044 -15287864.61644  20616062.8604   20616063.3394
  -5174495.59944  -4032071.13944  23916162.7614   23916164.3024
  -6977145.76244  -5436729.65344  23012528.4684   23012530.0304
    142504.79544                  24776171.4434
 96  3 24  1 13 30.0000000  0  8G20G 4G 5G 9G24G 6G16G 7
 -16182887.76644 -12610035.87444  21875917.9664   21875917.9894
  -6791907.46344  -5292381.49044  22715166.4094   22715166.1234
 -25567512.75344 -19922725.97944  20404654.1944   20404653.8264
  -9523767.86344  -7421114.00144  23076326.7654   23076329.5124
 -19585527.74744 -15261432.87044  20622517.9314   20622518.0134
  -5242931.33944  -4085397.62944  23903139.6874   23903141.0734
  -7066247.21544  -5506159.32244  22995573.2544   22995574.5344
    213827.16544                  24789743.5104
 96  3 24  1 14  0.0000000  0  8G20G 4G 5G 9G24G 6G16G 7
 -16262440.81544 -12672025.25444  21860779.4824   21860779.8734
  -6702352.89244  -5222598.70644  22732208.7364   22732208.0814
 -25597020.79544 -19945719.25844  20399038.8414   20399038.4484
  -9436373.20844  -7353014.31344  23092957.3554   23092958.9984
 -19551199.40144 -15234683.51244  20629050.3144   20629050.7344
  -5311319.34644  -4138686.96344  23890126.5954   23890126.6004
  -7155176.24044  -5575454.61844  22978650.5234   22978651.1794
    285224.51644                  24803330.4404
 96  3 24  1 14 30.0000000  0  8G20G 4G 5G 9G24G 6G16G 7
 -16341715.87644 -12733798.01044  21845693.8864   21845694.5754
  -6612638.63544  -5152691.50144  22749280.4594   22749280.0984
 -25626087.10944 -19968368.33244  20393507.7684   20393507.4084
  -9348819.03144  -7284790.30644  23109619.4614   23109619.6204
 -19516481.17344 -15207630.35044  20635656.9904   20635657.2924
  -5379667.91744  -4191945.54544  23877120.1594   23877121.1214
  -7243936.04044  -5644618.05344  22961760.6224   22961762.5094
    356683.86144                  24816928.3884
 96  3 24  1 15  0.0000000  0  8G20G 4G 5G 9G24G 6G16G 7
 -16420717.38844 -12795357.62144  21830660.1374   21830660.7794
  -6522769.53744  -5082663.65844  22766382.1364   22766381.9604
 -25654675.05144 -19990644.65144  20388067.5994   20388067.1934
  -9261115.70344  -7216450.06944  23126308.7804   23126308.2024
 -19481356.57744 -15180260.53544  20642340.9144   20642341.4384
  -5447969.33444  -4245167.35744  23864121.9134   23864123.1464
  -7332494.91344  -5713624.92244  22944908.1044   22944910.1574
    428206.02044                  24830538.3654
 96  3 24  1 15 30.0000000  0  8G20G 4G 5G 9G24G 6G16G 7
 -16499459.35244 -12856714.98344  21815676.3054   21815676.6624
  -6432750.95744  -5012519.32844  22783511.9584   22783511.4124
 -25682763.84944 -20012532.03044  20382722.6014   20382722.1114
  -9173265.91044  -7147995.72244  23143025.9984   23143026.6584
 -19445823.07944 -15152572.10044  20649102.6734   20649103.2464
  -5516236.36244  -4298362.43944  23851130.8714   23851129.8334
  -7420840.64144  -5782465.71844  22928096.6134   22928096.9404
    499785.05044                  24844159.7194
 96  3 24  1 16  0.0000000  0  8G20G 4G 5G 9G24G 6G16G 7
 -16577927.36544 -12917858.87844  21800744.4114   21800745.0164
  -6342590.66844  -4942264.57444  22800669.1734   22800668.1164
 -25710358.92444 -20034034.68544  20377471.3484   20377470.9124
  -9085278.61244  -7079434.21744  23159769.2374   23159769.7834
 -19409878.18944 -15124563.09344  20655943.0124   20655943.1064
  -5584471.26944  -4351532.48044  23838146.9004   23838147.4104
  -7508980.56144  -5851146.13444  22911323.7434   22911324.5594
    571403.12644                  24857787.3894
 96  3 24  1 16 30.0000000  0  8G20G 4G 5G 9G24G 6G16G 7
 -16656096.53444 -12978769.89844  21785869.5134   21785869.7924
  -6252294.57244  -4871903.99944  22817851.8344   22817851.1564
 -25737472.46544 -20055162.12244  20372311.8404   20372311.3274
  -8997158.34244  -7010769.09044  23176537.8574   23176537.7294
 -19373513.56744 -15096227.02144  20662862.8424   20662863.1884
  -5652678.58544  -4404680.98444  23825167.4224   23825168.5594
  -7596902.42544  -5919656.62644  22894593.1174   22894593.7684
    643042.29444                  24871420.6664
 96  3 24  1 17  0.0000000  0  8G20G 4G 5G 9G24G 6G16G 7
 -16733967.52844 -13039448.59044  21771050.9224   21771051.4164
  -6161868.88044  -4801442.43944  22835059.4604   22835058.3164
 -25764133.33944 -20075936.82844  20367238.3184   20367238.1454
  -8908901.34444  -6941997.45044  23193332.2114   23193332.5824
 -19336742.33944 -15067574.11844  20669860.2414   20669860.5054
  -5720861.10044  -4457810.19044  23812193.1514   23812193.5884
  -7684626.35244  -5988012.89544  22877899.0344   22877900.3004
    714700.07944                  24885055.9874
 96  3 24  1 17 30.0000000  0  8G20G 4G 5G 9G24G 6G16G 7
 -16811491.23544 -13099856.66044  21756298.3904   21756298.9384
  -6071279.59544  -4730853.40544  22852297.4334   22852296.7874
 -25790338.02744 -20096356.06844  20362251.8564   20362251.3634
  -8820478.21344  -6873096.34444  23210159.3614   23210160.9664
 -19299559.49244 -15038600.46944  20676935.7964   20676936.1904
  -5788991.61044  -4510898.84444  23799227.8234   23799228.9464
  -7772154.25244  -6056216.40644  22861243.3994   22861244.5514
    786396.23444                  24898700.1954
 96  3 24  1 18  0.0000000  0  8G20G 4G 5G 9G24G 6G16G 7
 -16888634.44644 -13159968.24344  21741618.5354   21741619.4304
  -5980505.17044  -4660120.10744  22869571.6684   22869571.2064
 -25816069.07144 -20116406.23144  20357355.3734   20357355.1184
  -8731871.62644  -6804052.27844  23227020.4694   23227021.6674
 -19261964.20644 -15009305.44344  20684089.8884   20684090.2984
  -5857046.89344  -4563928.92544  23786277.5014   23786277.1744
  -7859469.40544  -6124254.15944  22844628.0864   22844629.0294
    858136.60544                  24912351.4234
 96  3 24  1 18 30.0000000  0  8G20G 4G 5G 9G24G 6G16G 7
 -16965428.27044 -13219807.57044  21727005.3464   21727006.1954
  -5889551.53444  -4589247.15544  22886879.2214   22886878.5734
 -25841332.48344 -20136092.00344  20352547.7634   20352547.3504
  -8643097.53044  -6734877.68744  23243913.4584   23243914.6494
 -19223983.49044 -14979710.08344  20691317.3494   20691317.6594
  -5925041.89644  -4616911.99144  23773338.4424   23773338.8994
  -7946575.12344  -6192128.70344  22828052.4994   22828052.9004
    929912.94344                  24926009.5544
 96  3 24  1 19  0.0000000  0  8G20G 4G 5G 9G24G 6G16G 7
 -17041920.41144 -13279411.82844  21712449.3534   21712449.7074
  -5798439.88844  -4518251.08444  22904217.2484   22904216.7004
 -25866136.96944 -20155420.17644  20347827.8954   20347827.4374
  -8554186.38044  -6665596.31344  23260832.2934   23260832.6274
 -19185644.98844 -14949835.92344  20698612.8544   20698613.1954
  -5993006.03044  -4669871.05044  23760404.9754   23760407.5504
  -8033495.04444  -6259858.48044  22811511.5514   22811512.7834
   1001716.23644                  24939674.2114
 96  3 24  1 19 30.0000000  0  8G20G 4G 5G 9G24G 6G16G 7
 -17118111.97544 -13338781.86544  21697950.7184   21697951.1644
  -5707165.71844  -4447128.37944  22921586.1084   22921585.4434
 -25890460.03344 -20174373.21044  20343199.2614   20343198.8914
  -8465148.29544  -6596216.01844  23277776.4494   23277777.3704
 -19146943.13944 -14919678.64044  20705977.4184   20705977.8634
  -6060939.39044  -4722806.10644  23747477.6304   23747479.3654
  -8120187.88844  -6327411.31244  22795014.3724   22795016.2174
   1073545.69644                  24953341.8624
 96  3 24  1 20  0.0000000  0  7G20G 4G 5G 9G24G 6G16
 -17194026.61744 -13397936.11744  21683504.5644   21683505.0064
  -5615728.55344  -4375878.65244  22938985.7924   22938985.3364
 -25914288.32444 -20192940.70844  20338664.9784   20338664.4824
  -8375987.96544  -6526740.46644  23294742.9764   23294743.7814
 -19107855.18144 -14889220.49144  20713415.9914   20713416.1194
  -6128846.92644  -4775721.04844  23734554.8774   23734555.3964
  -8206629.25544  -6394768.19944  22778565.3894   22778567.6714
 96  3 24  1 20 30.0000000  0  7G20G 4G 5G 9G24G 6G16
 -17269679.25044 -13456886.20444  21669107.9514   21669108.5344
  -5524135.25744  -4304507.27444  22956416.0374   22956414.9544
 -25937631.88544 -20211130.49444  20334222.6544   20334222.3524
  -8286721.38744  -6457182.13444  23311729.5754   23311729.9584
 -19068360.51344 -14858445.42644  20720931.4074   20720931.7874
  -6196733.11544  -4828619.34144  23721636.5164   23721637.6004
  -8292820.69444  -6461930.32244  22762163.8274   22762165.4354
 96  3 24  1 21  0.0000000  0  7G20G 4G 5G 9G24G 6G16
 -17345047.10744 -13515614.39344  21654765.7624   21654766.2604
  -5432399.44244  -4233024.82744  22973873.0004   22973871.5224
 -25960491.38644 -20228943.09144  20329872.5844   20329872.1554
  -8197344.28744  -6387537.67244  23328737.8334   23328738.3444
 -19028445.80244 -14827343.05344  20728527.1004   20728527.4484
  -6264587.06844  -4881492.50144  23708724.4914   23708726.6014
  -8378760.25544  -6528896.20244  22745809.5914   22745810.7024
 96  3 24  1 21 30.0000000  0  7G20G 4G 5G 9G24G 6G16
 -17420147.16144 -13574133.90844  21640475.2914   21640475.3674
  -5340575.82944  -4161473.98844  22991346.0994   22991345.2354
 -25982921.99544 -20246421.48944  20325604.1514   20325603.8404
  -8107895.74044  -6317837.55544  23345758.8384   23345759.6564
 -18988157.54344 -14795949.60744  20736193.6604   20736193.8894
  -6332437.58244  -4934363.00544  23695813.4644   23695814.1374
  -8464500.33944  -6595706.62044  22729494.2774   22729495.5214
 96  3 24  1 22  0.0000000  0  7G20G 4G 5G 9G24G 6G16
 -17494947.13144 -13632419.59344  21626241.0664   21626241.5314
  -5248653.97544  -4089846.60144  23008838.0304   23008837.0644
 -26004920.89044 -20263563.48044  20321418.0164   20321417.5644
  -8018363.81644  -6248072.45944  23362796.5784   23362797.7704
 -18947490.20544 -14764260.77144  20743932.3094   20743932.4444
  -6400275.74144  -4987223.84944  23682904.2294   23682904.6894
  -8550055.52044  -6662372.96744  22713213.4214   22713214.4664
 96  3 24  1 22 30.0000000  0  7G20G 4G 5G 9G24G 6G16
 -17569374.44044 -13690414.87744  21612078.1784   21612078.6524
  -5156608.69644  -4018123.02144  23026353.8424   23026354.1764
 -26026448.37144 -20280338.14044  20317321.4344   20317320.9624
  -7928705.90844  -6178209.17644  23379857.8434   23379858.4894
 -18906429.34944 -14732265.30144  20751745.8844   20751746.3224
  -6468053.58544  -5040037.71344  23670006.4754   23670008.5954
  -8635386.89144  -6728864.92144  22696975.6634   22696976.1134
 96  3 24  1 23  0.0000000  0  7G20G 4G 5G 9G24G 6G16
 -17643409.33744 -13748104.39144  21597989.6754   21597990.3484
  -5064437.03844  -3946300.97344  23043893.5194   23043892.6734
 -26047486.67944 -20296731.62144  20313317.8784   20313317.4474
  -7838898.79944  -6108229.64944  23396947.6984   23396949.5344
 -18864993.40044 -14699977.54844  20759630.9844   20759631.1274
  -6535764.97944  -5092799.80244  23657120.4584   23657121.9614
  -8720476.86244  -6795168.76944  22680783.9484   22680785.2344
 96  3 24  1 23 30.0000000  0  7G20G 4G 5G 9G24G 6G16
 -17717085.10344 -13805514.07944  21583969.2724   21583969.6684
  -4972152.29544  -3874390.80444  23061454.5624   23061455.2994
 -26068052.74044 -20312757.12044  20309404.2114   20309403.8664
  -7748970.92044  -6038156.02644  23414059.5414   23414061.5374
 -18823221.23244 -14667427.80444  20767579.7944   20767580.1884
  -6603462.17744  -5145550.82144  23644238.3784   23644239.1044
  -8805337.55844  -6861293.95444  22664635.1094   22664636.1454
 96  3 24  1 24  0.0000000  0  7G20G 4G 5G 9G24G 6G16
 -17790411.13444 -13862651.23244  21570015.7654   21570016.3874
  -4879738.26344  -3802379.88744  23079040.3184   23079040.3324
 -26088120.44844 -20328394.29144  20305585.7464   20305585.2254
  -7658925.36344  -5967990.71144  23431194.6154   23431197.1994
 -18781104.19744 -14634609.33844  20775594.4274   20775594.7964
  -6671157.79244  -5198300.62244  23631356.6794   23631356.7664
  -8889941.88444  -6927219.37444  22648535.1384   22648536.5214
 96  3 24  1 24 30.0000000  0  7G20G 4G 5G 9G24G 6G16
 -17863412.57744 -13919535.46144  21556124.1284   21556124.6104
  -4787211.72044  -3730281.30444  23096647.8254   23096648.2264
 -26107688.97044 -20343642.48644  20301861.7224   20301861.3574
  -7568771.96044  -5897741.35044  23448351.2654   23448352.4874
 -18738636.15244 -14601517.35844  20783675.9054   20783676.2794
  -6738845.83544  -5251044.50744  23618475.4604   23618477.2694
  -8974282.76944  -6992939.51444  22632485.6704   22632486.4514
 96  3 24  1 25  0.0000000  0  7G20G 4G 5G 9G24G 6G16
 -17936096.04844 -13976171.91644  21542293.2684   21542293.3834
  -4694546.30444  -3658074.49844  23114281.2614   23114280.3584
 -26126747.15044 -20358493.01244  20298235.2794   20298234.6984
  -7478497.60344  -5827397.72944  23465530.0614   23465531.0684
 -18695786.00444 -14568127.63544  20791829.8794   20791830.0854
  -6806515.17444  -5303773.82644  23605598.7254   23605599.3684
  -9058351.68144  -7058447.72944  22616487.7404   22616488.2944
 96  3 24  1 25 30.0000000  0  7G20G 4G 5G 9G24G 6G16
 -18008455.59644 -14032555.96644  21528523.7794   21528524.1014
  -4601741.80344  -3585759.31344  23131941.3254   23131940.7614
 -26145306.21844 -20372954.61744  20294703.6234   20294703.1334
  -7388112.79944  -5756968.04444  23482729.3514   23482730.0614
 -18652534.02444 -14534424.79544  20800060.3584   20800060.6244
  -6874152.13544  -5356477.87844  23592728.2004   23592728.6964
  -9142151.76044  -7123746.45444  22600540.6054   22600542.1094
 96  3 24  1 26  0.0000000  0  7G20G 4G 5G 9G24G 6G16
 -18080479.54644 -14088678.51944  21514817.6894   21514818.0914
  -4508812.67944  -3513347.01444  23149625.6274   23149624.6664
 -26163366.57044 -20387027.61844  20291266.7534   20291266.2474
  -7297618.11744  -5686452.73844  23499950.5544   23499950.9664
 -18608866.32444 -14500398.02344  20808369.9514   20808370.2694
  -6941711.19144  -5409121.26544  23579871.8144   23579872.7044
  -9225680.95044  -7188834.10344  22584645.9174   22584647.9514
 96  3 24  1 26 30.0000000  0  7G20G 4G 5G 9G24G 6G16
 -18152172.55944 -14144543.19544  21501174.7224   21501175.3124
  -4415779.86644  -3440853.92544  23167328.8734   23167328.8384
 -26180950.30944 -20400729.23144  20287920.6914   20287920.2894
  -7207023.54844  -5615859.60544  23517190.4384   23517191.5864
 -18564813.37344 -14466071.04944  20816753.1854   20816753.4854
  -7009192.52544  -5461704.11144  23567030.8104   23567031.5584
  -9308956.29844  -7253723.95444  22568798.8824   22568800.0224
 96  3 24  1 27  0.0000000  0  7G20G 4G 5G 9G24G 6G16
 -18223515.54844 -14200135.11744  21487599.3984   21487599.6264
  -4322640.67544  -3368277.95344  23185052.9804   23185052.3784
 -26198053.96944 -20414056.75544  20284666.0044   20284665.5454
  -7116332.77444  -5545191.50744  23534447.4914   23534449.3974
 -18520396.63244 -14431460.60344  20825205.5134   20825205.7484
  -7076611.64944  -5514238.43744  23554201.5814   23554202.5114
  -9391969.90444  -7318409.85044  22553002.2164   22553003.6314
 96  3 24  1 27 30.0000000  0  7G20G 4G 5G 9G24G 6G16
 -18294494.60744 -14255443.46844  21474092.3224   21474092.6704
  -4229404.21844  -3295626.17544  23202794.6844   23202793.4654
 -26214668.99144 -20427003.52644  20281504.3024   20281503.9294
  -7025572.83444  -5474469.52544  23551717.6544   23551718.8794
 -18475631.20944 -14396578.45944  20833723.7974   20833724.2794
  -7143974.69344  -5566729.09644  23541382.6414   23541382.2994
  -9474708.16344  -7382881.19944  22537257.9594   22537259.8884
 96  3 24  1 28  0.0000000  0  7G20G 4G 5G 9G24G 6G16
 -18365109.01244 -14310467.66644  21460654.6074   21460655.0664
  -4136050.01444  -3222882.65544  23220560.1414   23220560.5204
 -26230765.88544 -20439546.55944  20278441.1094   20278440.6774
  -6934745.57744  -5403695.07144  23569002.3144   23569003.4664
 -18430521.72344 -14361428.21344  20842308.0684   20842308.3594
  -7211294.69544  -5619186.21844  23528572.2664   23528573.2954
  -9557171.00244  -7447137.91544  22521565.4644   22521566.5344
 96  3 24  1 28 30.0000000  0  7G20G 4G 5G 9G24G 6G16
 -18435377.82144 -14365222.56944  21447283.3064   21447283.7244
  -4042587.16444  -3150054.49244  23238345.2764   23238344.4874
 -26246360.15144 -20451697.93944  20275473.6094   20275473.2054
  -6843875.70944  -5332887.42744  23586294.3664   23586296.5004
 -18385098.35044 -14326033.37744  20850951.6964   20850952.0304
  -7278631.62744  -5671656.54244  23515758.1784   23515759.0404
  -9639393.87044  -7511207.63744  22505918.7864   22505919.9584
 96  3 24  1 29  0.0000000  0  7G20G 4G 5G 9G24G 6G16
 -18505290.41644 -14419699.90244  21433979.0004   21433979.7914
  -3949015.69544  -3077141.66444  23256151.6284   23256150.3564
 -26261447.81344 -20463454.55944  20272602.4784   20272601.9814
  -6752963.29144  -5262046.59144  23603594.9534   23603595.0774
 -18339334.36444 -14290373.13344  20859660.4774   20859660.8504
  -7345981.68544  -5724137.06444  23502942.1384   23502942.8354
  -9721365.48844  -7575081.60544  22490320.0294   22490320.4734
 96  3 24  1 29 30.0000000  0  7G20G 4G 5G 9G24G 6G16
 -18574834.31444 -14473889.94344  21420745.1064   21420745.6554
  -3855331.24744  -3004140.81244  23273978.7794   23273978.7884
 -26276007.86044 -20474800.05244  20269831.8134   20269831.3504
  -6661983.10644  -5191152.96944  23620907.8194   23620908.8684
 -18293198.36744 -14254423.00744  20868439.8134   20868440.1444
  -7413313.94544  -5776603.74044  23490128.1834   23490128.3774
  -9803080.72644  -7638755.77644  22474770.5634   22474771.9904
 96  3 24  1 30  0.0000000  0  7G20G 4G 5G 9G24G 6G16
 -18644000.76944 -14527785.86144  21407583.4914   21407583.6804
  -3761538.32144  -2931055.42944  23291826.5574   23291827.2464
 -26290040.63844 -20485734.68344  20267161.6674   20267161.1974
  -6570908.53344  -5120185.80744  23638237.4504   23638238.0504
 -18246678.91544 -14218174.08644  20877292.1594   20877292.5584
  -7480607.13744  -5829039.95844  23477323.1524   23477323.7254
  -9884534.61944  -7702226.31244  22459270.0834   22459271.1664
 96  3 24  1 30 30.0000000  0  7G20G 4G 5G 9G24G 6G16
 -18712795.77944 -14581392.34544  21394491.9054   21394492.3854
  -3667676.53544  -2857916.40344  23309688.3094   23309687.9524
 -26303577.11544 -20496282.59044  20264585.5204   20264584.9914
  -6479748.36544  -5049151.95744  23655585.6724   23655588.7284
 -18199785.01844 -14181633.38644  20886215.8874   20886216.0184
  -7547852.44844  -5881438.88444  23464526.8754   23464527.8734
  -9965713.90844  -7765482.86944  22443822.5274   22443824.0954
 96  3 24  1 31  0.0000000  0  7G20G 4G 5G 9G24G 6G16
 -18781227.37944 -14634715.64844  21381469.6694   21381470.0294
  -3573763.80344  -2784737.66744  23327559.1964   23327559.3464
 -26316631.10544 -20506454.53144  20262101.4904   20262101.0374
  -6388508.63544  -4978056.10644  23672948.1114   23672948.3894
 -18152523.17944 -14144805.98244  20895209.5834   20895210.0694
  -7615034.01744  -5933788.13844  23451743.1174   23451742.4954
 -10046601.48944  -7828512.12944  22428430.1674   22428430.8244
 96  3 24  1 31 30.0000000  0  7G20G 4G 5G 9G24G 6G16
 -18849255.95544 -14687724.91244  21368524.1644   21368524.9604
  -3479755.23744  -2711484.26544  23345448.2974   23345446.8634
 -26329158.63244 -20516216.24044  20259717.3934   20259716.8824
  -6297160.36644  -4906875.65944  23690331.9914   23690332.7264
 -18104883.17844 -14107683.90744  20904275.1554   20904275.3564
  -7682119.15344  -5986062.23644  23438976.8094   23438976.6344
 -10127165.30444  -7891289.09444  22413099.0274   22413100.9504
 96  3 24  1 32  0.0000000  0  7G20G 4G 5G 9G24G 6G16
 -18916878.98044 -14740418.16444  21355656.3204   21355656.8694
  -3385632.07144  -2638141.54844  23363359.4724   23363359.0314
 -26341173.59844 -20525578.54944  20257431.1314   20257430.6524
  -6205723.50544  -4835626.19644  23707731.8114   23707732.9314
 -18056888.76844 -14070285.66544  20913408.0264   20913408.4854
  -7749134.39444  -6038281.81844  23426223.5794   23426226.5784
 -10207387.07944  -7953799.54044  22397833.8394   22397834.5894
 96  3 24  1 32 30.0000000  0  7G20G 4G 5G 9G24G 6G16
 -18984113.72144 -14792808.85344  21342862.0244   21342862.4464
  -3291401.41844  -2564715.09644  23381291.0484   23381291.2454
 -26352681.99144 -20534546.12844  20255241.1794   20255240.6834
  -6114220.53544  -4764325.21044  23725143.5314   23725144.2744
 -18008569.60844 -14032634.38044  20922602.8484   20922603.1504
  -7816114.56744  -6090473.86144  23413477.1224   23413477.6774
 -10287276.43844  -8016050.96544  22382631.3984   22382632.3904
 96  3 24  1 33  0.0000000  0  7G20G 4G 5G 9G24G 6G16
 -19050944.70344 -14844884.92544  21330144.4344   21330144.8944
  -3197031.03444  -2491179.75244  23399248.6584   23399248.9014
 -26363647.04844 -20543090.32944  20253154.5434   20253154.0984
  -6022642.03744  -4692965.37544  23742569.8724   23742570.6024
 -17959915.77044 -13994722.29944  20931861.5734   20931861.7954
  -7883060.83544  -6142640.12944  23400738.2094   23400741.2114
 -10366836.18844  -8078045.54744  22367490.9864   22367492.2094
 96  3 24  1 33 30.0000000  0  7G20G 4G 5G 9G24G 6G16
 -19117393.63344 -14896663.30344  21317499.6834   21317499.6524
  -3102547.15244  -2417555.98944  23417228.8204   23417228.2914
 -26374091.12244 -20551228.56944  20251167.2584   20251166.7114
  -5931022.44744  -4621573.52044  23760004.7024   23760005.9194
 -17910960.93944 -13956575.67744  20941177.2964   20941177.6954
  -7950017.69344  -6194814.21044  23387997.0764   23387997.1584
 -10446095.95444  -8139806.37644  22352408.5634   22352409.7394
 96  3 24  1 34  0.0000000  0  7G20G 4G 5G 9G24G 6G16
 -19183487.70044 -14948165.16044  21304922.1624   21304922.5484
  -3007982.53044  -2343869.29044  23435223.6304   23435223.0134
 -26384039.30344 -20558980.39644  20249274.1734   20249273.7594
  -5839380.98144  -4550164.63144  23777444.0934   23777445.7604
 -17861707.65944 -13918196.50244  20950549.5954   20950550.0154
  -8017006.44144  -6247013.19244  23375249.5074   23375249.8494
 -10525064.35744  -8201340.16144  22337381.3454   22337382.6054
 96  3 24  1 34 30.0000000  0  7G20G 4G 5G 9G24G 6G16
 -19249203.90744 -14999372.57844  21292416.9104   21292417.2724
  -2913320.52844  -2270106.72544  23453237.3254   23453237.7024
 -26393452.16544 -20566315.09044  20247482.8304   20247482.3824
  -5747685.37644  -4478713.55844  23794893.1494   23794893.9074
 -17812107.39144 -13879546.94344  20959988.3914   20959988.7554
  -8083965.11744  -6299188.75444  23362507.4814   23362508.5834
 -10603717.93144  -8262628.63244  22322414.0664   22322415.6834
 96  3 24  1 35  0.0000000  0  7G20G 4G 5G 9G24G 6G16
 -19314558.50144 -15050298.22444  21279980.4644   21279980.5954
  -2818584.94444  -2196286.79944  23471265.2104   23471265.3864
 -26402373.06944 -20573266.44244  20245785.4214   20245785.0354
  -5655959.66444  -4407239.03044  23812347.6584   23812350.2114
 -17762184.62344 -13840646.08844  20969488.2074   20969488.5904
  -8150905.60344  -6351350.12044  23349769.1954   23349771.0534
 -10682079.72044  -8323689.73644  22307502.2904   22307503.8534
 96  3 24  1 35 30.0000000  0  7G20G 4G 5G 9G24G 6G16
 -19379544.05944 -15100936.32244  21267614.0964   21267614.4504
  -2723778.47344  -2122411.67944  23489306.5054   23489306.9564
 -26410823.52444 -20579851.21144  20244177.1664   20244176.8124
  -5564202.63144  -4335740.07244  23829809.1144   23829809.4454
 -17711948.04744 -13801500.70444  20979048.0934   20979048.3234
  -8217815.49144  -6403487.65744  23337036.4094   23337036.3154
 -10760125.17344  -8384504.34544  22292650.8224   22292651.8164
 96  3 24  1 36  0.0000000  0  7G20G 4G 5G 9G24G 6G16
 -19444173.00244 -15151296.53144  21255315.7954   21255315.9294
  -2628906.56444  -2048485.52444  23507359.8064   23507359.4474
 -26418814.36344 -20586077.84144  20242656.6554   20242656.1594
  -5472422.81844  -4264223.37344  23847274.3614   23847273.8864
 -17661410.34744 -13762120.68044  20988665.1344   20988665.3784
  -8284687.25544  -6455595.49844  23324310.9354   23324312.2844
 -10837865.63044  -8445081.29144  22277857.1314   22277858.3614
 96  3 24  1 36 30.0000000  0  7G20G 4G 5G 9G24G 6G16
 -19508410.86544 -15201351.99544  21243091.2754   21243091.6024
  -2533950.52444  -1974493.79244  23525429.1234   23525429.8854
 -26426327.29744 -20591932.07744  20241227.1804   20241226.6344
  -5380602.57944  -4192675.15244  23864747.0984   23864748.7424
 -17610573.48744 -13722507.54544  20998339.2974   20998339.3074
  -8351498.55444  -6507656.23144  23311597.0354   23311597.6014
 -10915295.14644  -8505415.95344  22263122.6534   22263123.0484
 96  3 24  1 37  0.0000000  0  7G20G 4G 5G 9G24G 6G16
 -19572242.11044 -15251090.62244  21230945.0034   21230945.3254
  -2438915.80244  -1900440.79444  23543514.0564   23543514.7834
 -26433355.69344 -20597408.74844  20239889.5734   20239889.1394
  -5288749.91344  -4121101.72044  23882225.7964   23882226.5594
 -17559441.92444 -13682664.76844  21008069.0114   21008069.2814
  -8418273.00544  -6559688.25944  23298891.0434   23298890.5424
 -10992407.58044  -8565503.53844  22248448.6664   22248449.3644
 96  3 24  1 37 30.0000000  0  7G20G 4G 5G 9G24G 6G16
 -19635689.06644 -15300529.79744  21218871.2324   21218871.4694
  -2343824.83544  -1826343.95344  23561609.1824   23561609.2844
 -26439883.94544 -20602495.69644  20238647.2624   20238646.8124
  -5196893.64844  -4049525.46544  23899704.4834   23899704.7344
 -17508012.60944 -13642589.97844  21017855.8594   21017855.7144
  -8485030.65244  -6611707.16844  23286186.4634   23286187.0394
 -11069224.18344  -8625360.60044  22233831.1634   22233832.4934
 96  3 24  1 38  0.0000000  0  7G20G 4G 5G 9G24G 6G16
 -19698751.12644 -15349669.05044  21206870.7234   21206871.3044
  -2248690.97644  -1752213.66444  23579712.8804   23579711.9124
 -26445887.48544 -20607173.78044  20237504.7754   20237504.5054
  -5105042.19044  -3977952.92044  23917183.8384   23917185.9604
 -17456280.45144 -13602279.20444  21027700.2644   21027700.3004
  -8551772.55044  -6663713.81344  23273486.3664   23273487.0524
 -11145756.50644  -8684996.15444  22219267.4534   22219268.2374
 96  3 24  1 38 30.0000000  0  7G20G 4G 5G 9G24G 6G16
 -19761416.71844 -15398499.37644  21194945.9404   21194946.4754
  -2153519.96144  -1678054.45944  23597822.9254   23597822.4294
 -26451347.54544 -20611428.37344  20236465.9184   20236465.2774
  -5013198.27244  -3906386.27444  23934661.5804   23934662.1874
 -17404228.86744 -13561719.53444  21037605.4394   21037605.6774
  -8618499.95044  -6715709.17044  23260788.9384   23260790.0024
 -11221987.63944  -8744397.01044  22204761.1854   22204761.6984
 96  3 24  1 39  0.0000000  0  7G20G 4G 5G 9G24G 6G16
 -19823689.40844 -15447023.53944  21183095.7974   21183096.1604
  -2058305.56244  -1603861.42744  23615941.6504   23615941.9344
 -26456249.63944 -20615248.18744  20235532.9564   20235532.4674
  -4921355.51344  -3834820.55644  23952139.0514   23952140.4184
 -17351839.50744 -13520896.66044  21047574.5494   21047574.7334
  -8685208.00944  -6767689.43144  23248095.1814   23248095.4264
 -11297889.87444  -8803541.57544  22190317.1614   22190318.0964
 96  3 24  1 39 30.0000000  0  7G20G 4G 5G 9G24G 6G16
 -19885568.56344 -15495241.04944  21171320.5764   21171320.8524
  -1963045.03844  -1529632.47744  23634070.1574   23634069.4344
 -26460588.71944 -20618629.28844  20234707.2964   20234706.8414
  -4829498.79944  -3763243.93244  23969618.6764   23969618.9034
 -17299120.09944 -13479816.60244  21057606.5684   21057606.8114
  -8751870.88344  -6819634.50444  23235409.6194   23235409.1334
 -11373446.29844  -8862416.68444  22175939.4704   22175940.0384
 96  3 24  1 40  0.0000000  0  7G20G 4G 5G 9G24G 6G16
 -19947034.25244 -15543136.37844  21159623.7484   21159623.8984
  -1867739.98744  -1455368.79444  23652205.4274   23652204.9344
 -26464370.72544 -20621576.30744  20233987.3754   20233986.8894
  -4737621.84644  -3691651.52544  23987102.1824   23987102.8994
 -17246078.51744 -13438485.50344  21067700.2414   21067700.5164
  -8818480.55744  -6871538.11344  23222734.4924   23222733.8194
 -11448635.22044  -8921005.42044  22161631.3384   22161631.9364
 96  3 24  1 40 30.0000000  0  7G20G 4G 5G 9G24G 6G16
 -20008097.66644 -15590718.24144  21148004.0714   21148004.4154
  -1772404.00044  -1381081.03444  23670346.6144   23670347.7694
 -26467623.65244 -20624111.05544  20233368.5314   20233368.0974
  -4645741.37544  -3620056.41444  24004585.8954   24004586.6734
 -17192729.67944 -13396914.98744  21077852.0874   21077852.4424
  -8885063.00344  -6923420.51244  23210064.1494   23210064.2554
 -11523470.95844  -8979318.95244  22147390.7544   22147391.3554
 96  3 24  1 41  0.0000000  0  7G20G 4G 5G 9G24G 6G16
 -20068747.32444 -15637977.69844  21136462.7834   21136463.1934
  -1677017.76344  -1306754.10944  23688499.4114   23688498.9484
 -26470347.03744 -20626233.17544  20232850.5364   20232849.9454
  -4553853.18044  -3548455.27644  24022071.3584   24022073.3684
 -17139078.96244 -13355109.23644  21088061.8754   21088061.8474
  -8951605.51544  -6975271.79844  23197401.5414   23197401.8904
 -11597945.52344  -9037351.05044  22133218.5944   22133219.8274
 96  3 24  1 41 30.0000000  0  7G20G 4G 5G 9G24G 6G16
 -20128937.43844 -15684879.07144  21125008.9464   21125009.4224
  -1581551.13144  -1232364.53244  23706665.5694   23706663.9074
 -26472513.31744 -20627921.18744  20232438.1624   20232437.6094
  -4461934.38544  -3476830.29544  24039564.4804   24039564.1724
 -17085103.04844 -13313050.08344  21098332.9134   21098333.0184
  -9018073.31744  -7027064.86144  23184752.9394   23184753.5474
 -11672029.23144  -9095078.58944  22119120.5934   22119121.3204
 96  3 24  1 42  0.0000000  0  7G20G 4G 5G 9G24G 6G16
 -20188642.70044 -15731402.63144  21113647.2784   21113647.6584
  -1485991.28344  -1157902.34844  23724849.0194   23724849.4364
 -26474119.67644 -20629172.89744  20232132.2924   20232131.8464
  -4369995.20144  -3405189.40644  24057060.2544   24057058.0154
 -17030794.34244 -13270731.61644  21108667.3954   21108667.6784
  -9084480.64744  -7078810.79544  23172115.9974   23172116.3944
 -11745730.48644  -9152508.10144  22105095.6484   22105096.4204
 96  3 24  1 42 30.0000000  0  7G20G 4G 5G 9G24G 6G16
 -20247868.55944 -15777552.63744  21102377.0964   21102377.4004
  -1390327.12544  -1083358.87544  23743054.1684   23743054.7394
 -26475180.58044 -20629999.57744  20231930.4794   20231930.0874
  -4278028.87844  -3333527.37544  24074560.2084   24074560.0884
 -16976158.39844 -13228158.15844  21119064.2734   21119064.6064
  -9150826.93044  -7130509.15344  23159490.7464   23159490.4514
 -11819048.82644  -9209639.23944  22091144.0204   22091145.0874
 96  3 24  1 43  0.0000000  0  7G20G 4G 5G 9G24G 6G16
 -20306628.11944 -15823339.29244  21091195.6274   21091195.9024
  -1294572.77944  -1008745.10144  23761275.6414   23761276.2784
 -26475709.50744 -20630411.72944  20231829.6354   20231829.2494
  -4186044.09444  -3261850.97044  24092063.2594   24092065.1474
 -16921214.79144 -13185344.96044  21129519.4644   21129519.8764
  -9217111.75844  -7182159.64744  23146877.1664   23146877.2914
 -11891982.34744  -9266470.52744  22077265.1004   22077265.9444
 96  3 24  1 43 30.0000000  0  7G20G 4G 5G 9G24G 6G16
 -20364944.84944 -15868780.88844  21080098.1634   21080098.7834
  -1198771.35944   -934094.66544  23779506.0274   23779505.9374
 -26475730.08544 -20630427.76444  20231825.9324   20231825.5184
  -4094053.46944  -3190170.01344  24109569.1224   24109569.5774
 -16865982.10044 -13142306.50744  21140030.3284   21140030.8924
  -9283362.67044  -7233783.69744  23134269.3884   23134269.0564
 -11964551.29744  -9323017.72244  22063455.8294   22063457.0184
 96  3 24  1 44  0.0000000  0  7G20G 4G 5G 9G24G 6G16
 -20422832.32244 -15913887.99144  21069082.5444   21069083.0954
  -1102930.86744   -859413.78144  23797743.6534   23797743.0264
 -26475237.35244 -20630043.81944  20231919.7654   20231919.2954
  -4002053.96244  -3118482.13644  24127076.2384   24127078.2924
 -16810461.21344 -13099043.48144  21150595.3084   21150595.7484
  -9349573.28444  -7285376.36744  23121669.8094   23121669.6694
 -12036751.89644  -9379277.89944  22049716.0964   22049717.0064
 96  3 24  1 44 30.0000000  0  7G20G 4G 5G 9G24G 6G16
 -20480364.67944 -15958718.39044  21058134.5834   21058134.7724
  -1007117.22644   -784753.81544  23815976.3564   23815976.9604
 -26474267.90544 -20629288.40844  20232104.1904   20232103.7264
  -3910079.55444  -3046813.80844  24144578.7594   24144578.7344
 -16754707.61544 -13055599.12544  21161205.0524   21161205.3874
  -9415772.49544  -7336960.11544  23109072.4134   23109073.9274
 -12108611.48344  -9435272.33944  22036041.7424   22036043.0314
 96  3 24  1 45  0.0000000  0  7G20G 4G 5G 9G24G 6G16
 -20537503.01144 -16003241.75544  21047261.7834   21047262.2704
   -911313.15644   -710101.30644  23834207.3474   23834206.5474
 -26472762.20844 -20628115.14144  20232390.5904   20232390.1274
  -3818107.40644  -2975147.22744  24162081.4274   24162081.9134
 -16698693.21644 -13011951.54544  21171864.2024   21171864.5454
  -9481929.20044  -7388510.76844  23096483.7194   23096483.4874
 -12180100.05544  -9490977.69744  22022437.8584   22022438.5744
 96  3 24  1 45 30.0000000  0  7G20G 4G 5G 9G24G 6G16
 -20594217.95044 -16047435.20244  21036469.0074   21036469.3684
   -815494.34544   -635437.32844  23852441.8114   23852441.8374
 -26470686.92344 -20626498.03844  20232785.5424   20232785.2064
  -3726123.28144  -2903471.29944  24179584.1894   24179587.8474
 -16642392.70044 -12968081.01044  21182577.9504   21182577.7684
  -9548036.25844  -7440022.72844  23083903.8644   23083903.3884
 -12251207.19944  -9546385.82944  22008906.2234   22008907.5724
 96  3 24  1 46  0.0000000  0  7G20G 4G 5G 9G24G 6G16
 -20650506.63144 -16091296.51244  21025757.8114   21025757.8324
   -719654.66544   -560757.09544  23870679.4244   23870680.3154
 -26468053.08044 -20624445.69744  20233286.8704   20233286.3804
  -3634160.03344  -2831811.70544  24197083.9164   24197085.1504
 -16585818.39444 -12923997.14144  21193343.3604   21193343.7304
  -9614119.40944  -7491516.06944  23071328.7874   23071328.4194
 -12321943.79044  -9601505.21644  21995445.9404   21995447.2694
 96  3 24  1 46 30.0000000  0  7G20G 4G 5G 9G24G 6G16
 -20706349.86744 -16134810.71544  21015131.0224   21015131.3094
   -623765.43844   -486038.22744  23888925.9174   23888924.5554
 -26464867.56544 -20621963.48144  20233893.1254   20233892.6124
  -3542213.53344  -2760165.14944  24214580.3414   24214578.9434
 -16528950.45744 -12879684.47044  21204165.1664   21204165.5044
  -9680187.80644  -7542997.90644  23058756.0424   23058756.9514
 -12392304.21544  -9656331.49444  21982056.8654   21982058.3504
 96  3 24  1 47  0.0000000  0  7G20G 4G 5G 9G24G 6G16
 -20761722.45044 -16177958.17044  21004594.1444   21004594.3114
   -527803.01544   -411262.34244  23907186.7474   23907186.5394
 -26461145.49944 -20619063.17144  20234601.3834   20234600.9244
  -3450295.29144  -2688540.56944  24232072.5204   24232074.6014
 -16471769.96944 -12835128.24544  21215046.2784   21215046.2514
  -9746259.16544  -7594482.04744  23046183.5454   23046183.1464
 -12462304.76344  -9710877.34744  21968736.1034   21968737.1854
 96  3 24  1 47 30.0000000  0  7G20G 4G 5G 9G24G 6G16
 -20816617.24744 -16220733.33244  20994147.6954   20994147.8634
   -431748.27344   -336414.51844  23925466.0234   23925465.5134
 -26456903.87344 -20615758.00544  20235408.4834   20235408.0934
  -3358409.43644  -2616941.22844  24249557.7784   24249559.1974
 -16414263.95244 -12790318.35944  21225989.5644   21225989.7334
  -9812322.29744  -7645959.79344  23033612.1244   23033611.7754
 -12531936.99744  -9765136.20344  21955485.1254   21955486.3654
 96  3 24  1 48  0.0000000  0  7G 4G 9G24G20G 5G 6G16
   -335614.94044   -261505.45744  23943758.1644   23943758.8904
  -3266564.80044  -2545374.05944  24267035.3194   24267037.1294
 -16356455.20344 -12745272.58544  21236990.0044   21236990.2154
 -20871049.21444 -16263147.84444  20983789.8244   20983789.9354
 -26452165.20144 -20612065.53844  20236310.3384   20236309.7874
  -9878362.93544  -7697420.00544  23021044.7274   23021045.5484
 -12601195.57144  -9819103.88844  21942305.4594   21942306.8414
 96  3 24  1 48 30.0000000  0  7G 4G 9G20G 5G24G 6G16
   -239414.88944   -186544.37244  23962065.1924   23962065.5434
  -3174746.33044  -2473827.23244  24284508.2024   24284511.0704
 -20925012.88844 -16305197.45444  20973520.6494   20973520.9954
 -26446903.20844 -20607965.28744  20237311.5694   20237311.2214
 -16298347.95844 -12699994.21844  21248047.2964   21248047.6634
  -9944344.87144  -7748834.46944  23008488.5844   23008489.0644
 -12670064.61844  -9872768.04944  21929200.4264   21929202.1484
 96  3 24  1 49  0.0000000  0  7G 4G 9G20G 5G24G 6G16
   -143179.69344   -111555.93344  23980378.1614   23980376.3264
  -3082965.86744  -2402309.99044  24301972.7714   24301973.2684
 -20978496.48444 -16346872.97744  20963342.9244   20963343.2704
 -26441101.96744 -20603444.84544  20238415.5304   20238415.1774
 -16239965.67344 -12654501.53344  21259157.2394   21259157.2554
 -10010248.09044  -7800187.60344  22995947.6824   22995948.2324
 -12738522.59244  -9926111.89044  21916173.2884   21916174.2124
 96  3 24  1 49 30.0000000  0  7G 4G 9G20G 5G24G 6G16
    -46951.04544    -36572.58744  23998689.2424   23998692.3544
  -2991248.47144  -2330841.92444  24319426.5384   24319427.7924
 -21031527.52044 -16388195.85544  20953251.6784   20953251.9104
 -26434766.77644 -20598508.33444  20239621.0414   20239620.6834
 -16181345.68944 -12608823.62044  21270312.4264   21270312.3594
 -10076083.55344  -7851487.92944  22983419.4514   22983420.0904
 -12806560.19944  -9979128.17244  21903226.2154   21903226.8584
 96  3 24  1 50  0.0000000  0  7G 4G 9G20G 5G24G 6G16
     49250.76344     38389.83944  24016997.2494   24016997.5564
  -2899592.27044  -2259421.59744  24336868.0564   24336870.3924
 -21084117.20344 -16429174.82444  20943244.3784   20943244.5464
 -26427875.50344 -20593138.51644  20240932.4024   20240931.9924
 -16122504.37844 -12562973.25244  21281509.3064   21281509.6244
 -10141858.75544  -7902741.31344  22970902.6744   22970902.5664
 -12874165.47644 -10031807.57044  21890361.4384   21890362.1664
 96  3 24  1 50 30.0000000  0  7G 4G 9G20G 5G24G 6G16
    145438.00744    113340.93244  24035300.8944   24035301.1214
  -2807989.94344  -2188043.20744  24354299.8844   24354302.8424
 -21136260.91344 -16469806.27844  20933321.6254   20933321.8564
 -26420420.05044 -20587329.07244  20242351.1934   20242350.7174
 -16063417.95544 -12516931.88944  21292753.2204   21292753.3404
 -10207581.02644  -7953953.43544  22958396.3174   22958396.9724
 -12941331.60944 -10084144.77744  21877580.2824   21877581.1914
 96  3 24  1 51  0.0000000  0  7G 4G 9G20G 5G24G 6G16
    241596.71844    188269.78444  24053599.4624   24053600.0614
  -2716463.73344  -2116724.10044  24371716.7734   24371717.0124
 -21188000.19144 -16510122.59044  20923475.7244   20923476.0954
 -26412441.57044 -20581112.08244  20243869.1304   20243868.6204
 -16004104.98944 -12470713.99444  21304040.0264   21304040.3824
 -10273294.73544  -8005158.89644  22945891.7674   22945892.2514
 -13008094.25644 -10136167.58844  21864875.1954   21864876.2014
 96  3 24  1 51 30.0000000  0  7G 4G 9G20G 5G24G 6G16
    337762.80444    263204.40944  24071899.0544   24071898.4374
  -2624977.15444  -2045435.90344  24389124.8904   24389124.4764
 -21239332.42044 -16550121.72044  20913707.7714   20913708.0454
 -26403918.08544 -20574470.40944  20245491.2724   20245490.6514
 -15944541.41044 -12424300.82144  21315374.7544   21315374.8364
 -10338989.58944  -8056349.64644  22933389.8364   22933390.6794
 -13074458.69444 -10187880.10044  21852246.7024   21852247.3184
 96  3 24  1 52  0.0000000  0  7G 4G 9G20G 5G24G 6G16
    433973.24844    338173.59044  24090206.2274   24090207.2164
  -2533492.44144  -1974149.16044  24406535.0954   24406535.5054
 -21290217.12544 -16589772.13244  20904024.6644   20904024.9994
 -26394838.11144 -20567395.11044  20247219.3074   20247218.8534
 -15884698.21244 -12377669.75544  21326762.3154   21326762.4664
 -10404636.51844  -8107503.06244  22920897.9824   22920898.4204
 -13140413.39244 -10239273.33844  21839696.0524   21839696.9524
 96  3 24  1 52 30.0000000  0  7G 4G 9G20G 5G24G 6G16
    530218.75844    413170.09644  24108521.4314   24108521.8514
  -2442023.86644  -1902875.00944  24423940.6364   24423940.5984
 -21340637.73044 -16629060.91144  20894430.2044   20894430.4114
 -26385225.01244 -20559904.38944  20249048.6384   20249048.0374
 -15824583.76444 -12330827.33144  21338201.8244   21338202.1824
 -10470245.34844  -8158626.82444  22908412.8944   22908412.1524
 -13205978.80644 -10290363.23244  21827219.4604   21827220.1104
 96  3 24  1 53  0.0000000  0  7G 4G20G 5G 9G24G 6G16
    626489.93144    488186.58944  24126841.5034   24126842.4284
 -21390575.23244 -16667973.24444  20884927.5034   20884927.3494
 -26375065.71244 -20551988.05544  20250981.8694   20250981.5154
  -2350584.74944  -1831623.81744  24441341.0144   24441343.6824
 -15764217.25244 -12283788.49744  21349689.1134   21349689.0264
 -10535815.86044  -8209720.68144  22895935.1214   22895936.3064
 -13271153.88344 -10341148.97344  21814816.9934   21814817.4034
 96  3 24  1 53 30.0000000  0  7G 4G20G 5G 9G24G 6G16
    722776.00544    563214.69944  24145164.8114   24145164.2024
 -21440014.68244 -16706497.47944  20875519.1224   20875519.2524
 -26364369.55544 -20543653.39144  20253017.0904   20253016.5644
  -2259194.94844  -1760411.04944  24458731.9084   24458732.9744
 -15703607.88444 -12236560.42144  21361222.7514   21361222.5514
 -10601341.85244  -8260779.87044  22883465.9414   22883465.3804
 -13335931.08544 -10391624.68644  21802490.0614   21802490.5874
 96  3 24  1 54  0.0000000  0  7G 4G 9G20G 5G24G 6G16
    819074.21544    638252.24344  24163488.5084   24163487.1354
  -2167880.88444  -1689257.26044  24476108.8894   24476110.9194
 -21488940.68944 -16744621.63344  20866208.9184   20866209.1714
 -26353130.57344 -20534895.75244  20255156.0594   20255155.7504
 -15642754.21644 -12189141.97844  21372802.8834   21372803.1924
 -10666822.82744  -8311803.96444  22871005.1674   22871005.0474
 -13400295.50644 -10441778.75244  21790242.4694   21790242.8694
 96  3 24  1 54 30.0000000  0  7G 4G20G 5G 9G24G 6G16
    915384.35844    713299.10244  24181815.9044   24181818.5354
 -21537370.88044 -16782359.43344  20856992.7814   20856993.1314
 -26341330.86944 -20525701.18744  20257401.4684   20257400.8814
  -2076654.78744  -1618172.00844  24493468.6354   24493470.4414
 -15581661.38744 -12141537.18544  21384428.3284   21384428.7954
 -10732256.98644  -8362791.58044  22858553.7024   22858553.0844
 -13464246.78144 -10491610.88544  21778072.4234   21778073.0574
 96  3 24  1 55  0.0000000  0  7G 4G20G 5G 9G24G 6G16
   1011713.65744    788360.88144  24200147.2514   24200147.1324
 -21585334.37044 -16819733.57544  20847865.7424   20847865.9474
 -26328976.78944 -20516074.63844  20259752.2864   20259751.8124
  -1985532.23844  -1547167.49644  24510807.7584   24510810.7634
 -15520332.23844 -12093748.24144  21396098.9564   21396098.9404
 -10797650.43044  -8413747.47844  22846109.8354   22846110.4354
 -13527784.74244 -10541120.95244  21765981.6814   21765982.7864
 96  3 24  1 55 30.0000000  0  7G 4G20G 5G 9G24G 6G16
   1108057.31144    863433.85244  24218481.3434   24218482.4514
 -21632835.59544 -16856747.50444  20838826.6334   20838826.8744
 -26316076.37844 -20506022.37544  20262207.3864   20262206.8074
  -1894506.58144  -1476238.47244  24528129.6544   24528132.4244
 -15458773.03644 -12045780.03544  21407813.2494   21407813.4404
 -10863008.06544  -8464675.47044  22833672.3904   22833672.4034
 -13590903.38844 -10590304.28844  21753970.3574   21753971.3024
 96  3 24  1 56  0.0000000  0  7G 4G20G 5G 9G24G 6G16
   1204424.33844    938525.03144  24236819.0374   24236818.6704
 -21679862.03444 -16893391.47744  20829877.6444   20829877.6884
 -26302620.87444 -20495537.57044  20264767.6184   20264767.1054
  -1803555.74744  -1405367.75544  24545437.5174   24545436.3124
 -15396976.30644 -11997626.73944  21419572.9684   21419573.3954
 -10928328.26344  -8515574.29844  22821242.7534   22821242.9164
 -13653580.11444 -10639143.26944  21742043.6164   21742044.0274
 96  3 24  1 56 30.0000000  0  7G 4G20G 5G 9G24G 6G16
   1300801.60144   1013624.23044  24255158.5574   24255159.3064
 -21726416.73844 -16929667.86044  20821018.4964   20821018.8654
 -26288633.92444 -20484638.65244  20267429.3194   20267428.9984
  -1712662.76944  -1334542.08544  24562734.8784   24562735.0814
 -15334932.53744 -11949280.94844  21431379.2764   21431379.4574
 -10993610.67244  -8566443.68744  22808820.0314   22808820.0684
 -13715808.47544 -10687632.87544  21730201.9444   21730202.5244
 96  3 24  1 57  0.0000000  0  7G 4G20G 5G 9G24G 6G16
   1397168.58044   1088715.33944  24273495.7724   24273497.4704
 -21772479.46044 -16965560.88444  20812253.5704   20812253.6854
 -26274125.60444 -20473333.46844  20270190.0484   20270189.6384
  -1621831.27144  -1263764.34944  24580018.6974   24580019.8674
 -15272640.22244 -11900741.48644  21443233.2644   21443233.6514
 -11058868.71644  -8617294.09444  22796400.9724   22796401.6064
 -13777576.90944 -10735764.09044  21718447.5514   21718447.9314
 96  3 24  1 57 30.0000000  0  7G 4G20G 5G 9G24G 6G16
   1493506.99844   1163784.24644  24291828.5314   24291827.3464
 -21818039.56044 -17001062.25044  20803583.4414   20803583.7044
 -26259097.91544 -20461623.58544  20273049.8244   20273049.2564
  -1531048.33144  -1193024.44544  24597293.1114   24597292.9094
 -15210102.92844 -11852011.12944  21455133.5674   21455134.0974
 -11124104.90844  -8668127.46644  22783987.1554   22783986.3604
 -13838883.08244 -10783535.10844  21706781.5934   21706782.0954
 96  3 24  1 58  0.0000000  0  7G 4G20G 5G 9G24G 6G16
   1589804.90044   1238821.53844  24310154.1474   24310154.2404
 -21863107.53144 -17036180.14144  20795007.3834   20795007.4434
 -26243546.36744 -20449505.50144  20276009.3344   20276008.8724
  -1440323.87644  -1122330.11244  24614558.6724   24614558.8514
 -15147299.84744 -11803073.66744  21467084.5014   21467084.9394
 -11189306.02244  -8718933.49244  22771579.9704   22771579.6474
 -13899723.43144 -10830943.14444  21695203.8734   21695204.3754
 96  3 24  1 58 30.0000000  0  7G 4G20G 5G 9G24G 6G16
   1686034.41944   1313805.58244  24328466.6334   24328461.0794
 -21907701.88044 -17070928.97644  20786521.0204   20786521.4264
 -26227470.68744 -20436978.99944  20279068.3574   20279067.9244
  -1349695.86244  -1051710.93044  24631804.4054   24631804.7034
 -15084253.25944 -11753946.46444  21479082.0084   21479082.4154
 -11254478.84544  -8769717.49244  22759178.0804   22759177.9964
 -13960124.01644 -10878008.50744  21683710.5244   21683711.1964
 96  3 24  1 59  0.0000000  0  7G20G 4G 5G 9G24G 6G16
 -21951790.81044 -17105283.97744  20778131.2174   20778131.4434
   1782227.04244   1388760.90144  24346770.7264   24346771.6354
 -26210843.20244 -20424022.52544  20282232.2534   20282231.9494
  -1259162.29044   -981165.33444  24649032.1424   24649032.0944
 -15020965.89344 -11704631.63844  21491125.2094   21491125.5804
 -11319599.00944  -8820460.44344  22746786.2594   22746786.1934
 -14020074.85444 -10924723.42144  21672301.5544   21672302.0054
 96  3 24  1 59 30.0000000  0  8G20G 4G 5G 9G24G 6G16G17
 -21995347.49144 -17139224.24444  20769842.8314   20769842.9944
   1878426.54944   1463721.52944  24365077.4214   24365075.2244
 -26193635.01244 -20410613.55144  20285506.9544   20285506.4784
  -1168690.75544   -910668.09044  24666249.3514   24666249.6734
 -14957411.17644 -11655108.48144  21503219.2304   21503219.6824
 -11384619.56044  -8871125.77844  22734412.9624   22734413.3034
 -14079547.54144 -10971065.74544  21660984.4324   21660984.9214
        -0.49254                  25557957.4244
 96  3 24  2  0  0.0000000  0  8G20G 4G 5G 9G24G 6G16G17
 -22038404.34444 -17172775.02844  20761649.3674   20761649.4064
   1974609.20044   1538669.02144  24383381.1064   24383379.7954
 -26175885.09044 -20396782.44844  20288884.8274   20288884.3694
  -1078329.58844   -840256.82844  24683443.7774   24683444.0414
 -14893639.53944 -11605416.29844  21515354.5684   21515355.0504
 -11449572.40744  -8921738.36644  22722053.0914   22722052.6414
 -14138588.49644 -11017071.65444  21649749.7404   21649750.4104
    -98552.53644                  25539205.3064
 96  3 24  2  0 30.0000000  0  8G20G 4G 5G 9G24G 6G16G17
 -22080956.01044 -17205932.16944  20753551.9944   20753552.2864
   2070782.56744   1613609.32744  24401681.9034   24401680.4634
 -26157619.46744 -20382549.50044  20292360.7094   20292360.1974
   -988094.42044   -769943.74744  24700615.0184   24700617.3124
 -14829693.89244 -11555588.52244  21527522.9864   21527523.3164
 -11514487.78944  -8972321.76444  22709699.6024   22709700.0994
 -14197232.64044 -11062768.35744  21638589.6064   21638590.0864
   -197002.51644                  25520472.6264
 96  3 24  2  1  0.0000000  0  8G20G 4G 5G 9G24G 6G16G17
 -22122961.05244 -17238663.36244  20745558.8364   20745558.9774
   2167006.22644   1688588.86744  24419993.0554   24419991.3664
 -26138797.08744 -20367882.71744  20295942.1864   20295941.8174
   -897920.54544   -699678.42944  24717774.5914   24717777.7974
 -14765527.70144 -11505588.89444  21539733.3004   21539733.6224
 -11579326.60244  -9022845.48044  22697361.2234   22697361.4064
 -14255424.78644 -11108112.86144  21627516.1184   21627516.5874
   -295317.31944                  25501765.0614
 96  3 24  2  1 30.0000000  0  8G20G 4G 5G 9G24G 6G16G17
 -22164453.31644 -17270994.99144  20737662.8244   20737662.7954
   2263251.58544   1763585.21344  24438306.9324   24438306.5564
 -26119422.83644 -20352785.90244  20299628.9854   20299628.5774
   -807823.70744   -629473.14944  24734918.9064   24734919.7614
 -14701161.21444 -11455433.19244  21551982.0914   21551982.2754
 -11644113.13544  -9073328.47244  22685032.6364   22685033.4744
 -14313163.19444 -11153103.79544  21616528.7674   21616529.3194
   -393504.94244                  25483081.0304
 96  3 24  2  2  0.0000000  0  8G20G 4G 5G 9G24G 6G16G17
 -22205439.97444 -17302932.64144  20729863.8514   20729864.0054
   2359505.69144   1838588.37644  24456623.9834   24456623.5964
 -26099497.38344 -20337259.58244  20303420.7844   20303420.4284
   -717826.07544   -559345.18844  24752045.8734   24752048.1994
 -14636602.98444 -11405128.08344  21564267.0024   21564267.6764
 -11708864.75344  -9123784.24544  22672711.1994   22672711.7324
 -14370453.31344 -11197745.41944  21605626.8584   21605627.1744
   -491585.40944                  25464415.3354
 96  3 24  2  2 30.0000000  0  7G 4G20G 5G 9G24G 6G16
   2455728.57344   1913567.25944  24474935.0524   24474935.0504
 -22245947.67944 -17334497.07744  20722155.2544   20722155.4374
 -26079041.83744 -20321320.20044  20307313.3574   20307313.0004
   -627961.65144   -489320.96844  24769145.1434
 -14571862.81044 -11354681.20044  21576586.5234   21576586.9864
 -11773613.75744  -9174238.00244  22660389.2304   22660389.5574
 -14427299.21044 -11242040.89344  21594809.4744   21594809.8644
 96  3 24  2  3  0.0000000  0  7G20G 4G 5G 9G24G 6G16
 -22285964.76844 -17365679.22544  20714539.9394   20714540.2114
   2551938.55644   1988536.08044  24493242.9414   24493242.4994
 -26058023.15744 -20304942.01344  20311313.1184   20311312.7504
   -538206.25044   -419381.73344  24786225.7694   24786231.5324
 -14506903.95444 -11304063.91844  21588947.8244   21588948.0614
 -11838331.02744  -9224667.01744  22648074.1474   22648074.7124
 -14483649.31544 -11285950.03744  21584085.8464   21584086.5754
 96  3 24  2  3 30.0000000  0  7G24G20G 4G 5G 9G 6G16
 -14441718.47944 -11253270.04444  21601352.4474   21601352.7394
 -22325474.18744 -17396465.77944  20707021.9594   20707022.0814
   2648131.09244   2063491.29744  24511547.9674   24511548.2724
 -26036444.04644 -20288127.12644  20315419.6374   20315419.1924
   -448562.59044   -349529.57744  24803283.3354
 -11903010.36144  -9275066.46644  22635765.9864   22635767.3404
 -14539500.64144 -11329470.52044  21573458.2374   21573458.9424
 96  3 24  2  4  0.0000000  0  8G24G20G 4G 5G 9G 6G16G17
 -14376308.19344 -11202300.99644  21613799.4484   21613799.5674
 -22364481.52144 -17426861.09944  20699598.9384   20699599.1514
   2744292.18444   2138422.04244  24529846.2664   24529846.7774
 -26014334.76244 -20270899.11844  20319626.6244   20319626.2244
   -359045.17844   -279775.77444  24820319.0894
 -11967656.63544  -9325440.16144  22623464.6294   22623465.1964
 -14594872.97444 -11372617.76444  21562920.8304   21562921.4814
        -0.48754                  25389960.2684
 96  3 24  2  4 30.0000000  0  8G24G20G 4G 5G 9G 6G16G17
 -14310654.46844 -11151142.25644  21626292.9534   21626293.0794
 -22402962.62944 -17456846.37444  20692276.3074   20692276.2464
   2840446.80544   2213347.72644  24548143.0574   24548145.0014
 -25991673.57044 -20253241.04844  20323939.2684   20323938.6904
   -269622.73844   -210095.99844  24837334.8924   24837335.4894
 -12032231.53444  -9375758.23644  22611176.4234   22611176.4534
 -14649734.24844 -11415366.78344  21552481.0584   21552481.5494
    -97524.35444                  25371402.7804
 96  3 24  2  5  0.0000000  0  8G24G20G 4G 5G 9G 6G16G17
 -14244825.78844 -11099847.18344  21638819.8974   21638820.4664
 -22440970.09444 -17486462.57144  20685043.6894   20685043.8584
   2936532.25844   2288219.52044  24566429.2224   24566433.0804
 -25968511.65444 -20235192.80544  20328346.5364   20328346.0034
   -180349.02844   -140532.07444  24854323.8984   24854328.3014
 -12096772.71244  -9426050.03344  22598894.2064   22598894.6914
 -14704143.31244 -11457763.43344  21542127.8294   21542128.2274
   -194993.98444   -151944.06444  25352856.0094
 96  3 24  2  5 30.0000000  0  8G24G20G 4G 5G 9G 6G16G17
 -14178807.37844 -11048404.26744  21651382.7324   21651383.1284
 -22478473.95644 -17515686.35344  20677907.2244   20677906.8714
   3032544.61444   2363034.36044  24584699.2724   24584702.3424
 -25944829.79044 -20216739.40744  20332853.2524   20332852.7984
    -91218.51644    -71079.77044  24871284.3594
 -12161254.77044  -9476295.76344  22586624.2404   22586624.4984
 -14758088.35544 -11499798.50444  21531862.2314   21531862.6964
   -292396.31244   -227841.97344  25334322.5144
 96  3 24  2  6  0.0000000  0  8G24G20G 4G 5G 9G 6G16G17
 -14112555.91944 -10996779.75544  21663989.8234   21663990.3724
 -22515420.97944 -17544476.23244  20670875.9794   20670876.3494
   3128533.48344   2437830.84444  24602965.0134   24602966.2224
 -25920569.06744 -20197834.95544  20337469.8294   20337469.3974
     -2195.34444     -1711.08444  24888226.5794   24888229.8174
 -12225624.34744  -9526453.84944  22574374.9084   22574375.0084
 -14811514.48944 -11541429.23544  21521695.4664   21521695.9684
   -389669.69044   -303639.42244  25315812.0264
 96  3 24  2  6 30.0000000  0  8G24G20G 4G 5G 9G 6G16G17
 -14046098.20544 -10944994.52444  21676636.4954   21676636.9844
 -22551817.87144 -17572837.44044  20663950.1104   20663950.0734
   3224479.20844   2512593.74944  24621222.2244   24621221.8354
 -25895734.05244 -20178483.00344  20342195.7454   20342195.2534
     86704.37944     67561.40144  24905142.3884   24905145.7134
 -12289905.44044  -9576542.98444  22562142.2044   22562141.5234
 -14864439.37844 -11582669.38544  21511624.6244   21511625.0094
   -486829.99344                  25297321.7804
 96  3 24  2  7  0.0000000  0  8G24G20G 4G 5G 9G 6G16G17
 -13979469.98544 -10893076.43644  21689315.4804   21689315.4494
 -22587699.21544 -17600796.92044  20657121.8284   20657122.3684
   3320350.27744   2587298.53444  24639466.8074   24639467.8674
 -25870363.65744 -20158713.87144  20347023.8054   20347023.3614
    175447.10244    136711.51144  24922030.0534   24922031.3084
 -12354150.22544  -9626603.83244  22549917.0844   22549917.6854
 -14916898.60144 -11623546.67744  21501641.7744   21501642.2414
   -583899.14644                  25278844.8774
 96  3 24  2  7 30.0000000  0  8G24G 6G20G 4G 5G 9G16G17
 -13912655.62544 -10841013.30244  21702029.9314   21702029.8594
 -12418362.34844  -9676639.23244  22537697.6344   22537698.5934
 -22623051.51744 -17628344.16144  20650394.6744   20650394.7424
   3416182.48144   2661972.98144  24657702.4754   24657701.4314
 -25844443.34644 -20138516.23644  20351956.0514   20351955.7154
    264052.45044    205754.57644  24938890.6854   24938891.8674
 -14968872.56944 -11664045.84844  21491751.3504   21491751.8684
   -680836.64444                  25260393.9334
 96  3 24  2  8  0.0000000  0  8G24G 6G20G 4G 5G 9G16G17
 -13845636.62844 -10788790.70244  21714782.8724   21714782.6794
 -12482531.95244  -9726641.49144  22525486.4354   22525486.7594
 -22657858.27844 -17655466.30944  20643771.4094   20643771.4954
   3512020.41244   2736651.86644  24675939.0094   24675942.1074
 -25817959.26444 -20117879.29844  20356995.7114   20356995.3884
    352549.10444    274713.01544  24955731.4634   24955731.8824
 -15020347.17744 -11704155.90744  21481955.9594   21481956.5164
   -777617.50344                  25241977.1824
 96  3 24  2  8 30.0000000  0  8G24G 6G20G 4G 5G 9G16G17
 -13778406.74844 -10736403.77644  21727576.6924   21727576.3954
 -12546661.04244  -9776612.18444  22513283.2584   22513283.6504
 -22692126.04244 -17682168.45844  20637250.2374   20637250.5484
   3607876.52944   2811344.93244  24694180.0824
 -25790910.26444 -20096802.16044  20362143.1154   20362142.6174
    440945.21444                  24972551.7594
 -15071331.88944 -11743884.23044  21472253.6244   21472254.3444
   -874236.71644   -681224.21244  25223595.9484
 96  3 24  2  9  0.0000000  0  8G24G 6G20G 4G 5G 9G16G17
 -13711026.10444 -10683899.38044  21740398.4434   21740398.7724
 -12610815.61744  -9826602.73844  22501075.2264   22501074.7104
 -22725919.71744 -17708501.18644  20630819.6164   20630819.7634
   3703695.54344   2886009.17644  24712413.4414   24712413.7874
 -25763364.23244 -20075337.73044  20367385.0634   20367384.4804
    529176.49544    412344.68644  24989343.2644
 -15121881.85244 -11783273.78644  21462634.4954   21462635.1094
   -970744.22444   -756424.83944  25205235.1554   25205234.3034
 96  3 24  2  9 30.0000000  0  8G24G 6G16G20G 4G 5G 9G17
 -13643501.78144 -10631283.02944  21753248.1294   21753248.2444
 -12674984.28144  -9876604.27344  22488864.5234   22488864.3354
 -15172006.58544 -11822331.99644  21453095.8484   21453096.4094
 -22759226.59144 -17734454.59044  20624481.3824   20624481.6254
   3799459.66044   2960630.46844  24730636.6424   24730635.9454
 -25735326.05444 -20053489.80544  20372720.5234   20372720.0804
    617226.28844    480954.92544  25006097.3084
  -1067169.08944   -831561.09344  25186889.0904   25186887.3894
 96  3 24  2 10  0.0000000  0  8G24G 6G16G20G 4G 5G 9G17
 -13575707.52844 -10578456.33844  21766148.4674   21766148.8184
 -12739024.43344  -9926505.67144  22476678.0614   22476678.2024
 -15221591.77444 -11860969.78244  21443660.3474   21443660.9364
 -22791916.19544 -17759927.00144  20618261.0254   20618261.0324
   3895271.54544   3035289.07044  24748868.9034   24748867.7914
 -25706677.32344 -20031166.12744  20378172.0244   20378171.5564
    705208.19944    549512.18744  25022840.0314   25022843.3454
  -1163405.60144   -906550.61344  25168575.3074   25168574.3804
 96  3 24  2 10 30.0000000  0  8G24G 6G16G20G 4G 5G 9G17
 -13507722.41544 -10525480.92444  21779085.8824   21779085.8984
 -12802993.60844  -9976351.75344  22464505.1204   22464505.1514
 -15270686.49244 -11899225.38144  21434317.8954   21434318.4234
 -22824047.20344 -17784964.14844  20612146.3414   20612146.6774
   3991045.53744   3109918.17944  24767094.2284
 -25677481.49544 -20008416.13944  20383727.8554   20383727.4924
    793049.90044    617960.23944  25039555.5554   25039560.6544
  -1259515.64444   -981441.57644  25150286.2144   25150282.2574
 96  3 24  2 11  0.0000000  0  8G24G 6G16G20G 4G 5G 9G17
 -13439563.92444 -10472370.40844  21792056.1584   21792056.6124
 -12866878.49544 -10026132.16044  22452348.5054   22452347.9844
 -15319269.98744 -11937082.62544  21425072.2614   21425073.0924
 -22855614.37944 -17809561.94244  20606139.3704   20606139.1554
   4086756.75244   3184498.35844  24785307.9144
 -25647743.93144 -19985244.01844  20389386.7864   20389386.3324
    880747.98844    686296.35544  25056244.4064   25056243.6514
  -1355514.04844  -1056245.52644  25132017.5064   25132015.4704
 96  3 24  2 11 30.0000000  0  8G24G 6G16G20G 4G 5G 9G17
 -13371245.68944 -10419135.42444  21805056.3914   21805056.7494
 -12930681.46044 -10075848.73844  22440206.7714   22440205.9874
 -15367356.19344 -11974552.37244  21415922.5534   21415923.0584
 -22886636.90844 -17833735.33744  20600235.8354   20600236.1374
   4182393.81244   3259020.78644  24803507.4424   24803504.2364
 -25617468.32544 -19961652.64644  20395148.0844   20395147.5684
    968276.24744    754500.16344  25072901.2094   25072903.4874
  -1451421.51244  -1130978.64644  25113766.3124   25113766.7414
 96  3 24  2 12  0.0000000  0  8G24G 6G16G20G 4G 5G 9G17
 -13302774.89144 -10365781.56444  21818086.0844   21818086.5354
 -12994423.45744 -10125517.80544  22428076.7884   22428076.8354
 -15414934.07144 -12011626.02344  21406868.4924   21406868.9114
 -22917143.83844 -17857506.96644  20594430.7254   20594430.6974
   4277955.89544   3333484.78644  24821693.9724   24821693.3884
 -25586657.73344 -19937644.40044  20401011.0734   20401010.5444
   1055631.36044    822569.03744  25089524.2464   25089526.2954
  -1547231.92444  -1205636.10944  25095527.6464
 96  3 24  2 12 30.0000000  0  7G24G20G 4G 5G 9G 6G16
 -13234128.74544 -10312291.06144  21831149.1584   21831149.5454
 -22947104.88444 -17880853.22944  20588729.3224   20588729.5274
   4373483.31244   3407921.72744  24839871.6094   24839868.6934
 -25555279.62744 -19913193.93044  20406982.3234   20406981.8564
   1142851.82644    890533.01344  25106121.7964   25106124.9584
 -13058083.81044 -10175123.25244  22415962.5224   22415962.8174
 -15461961.31944 -12048270.61344  21397919.2814   21397919.8534
 96  3 24  2 13  0.0000000  0  7G24G20G 4G 5G 9G 6G16
 -13165279.54044 -10258642.32544  21844250.6074   21844250.7654
 -22976514.37844 -17903769.71644  20583132.9684   20583132.8404
   4468988.54644   3482341.42744  24858045.8294
 -25523324.76444 -19888294.04344  20413063.0524   20413062.5284
   1229947.17444    958399.45244  25122693.5464
 -13121660.05844 -10224663.16544  22403864.8754   22403864.5994
 -15508427.97444 -12084478.37344  21389077.0944   21389078.0624
 96  3 24  2 13 30.0000000  0  7G24G 6G16G20G 4G 5G 9
 -13096190.43644 -10204806.65144  21857397.5504   21857397.4864
 -13185145.36144 -10274132.21144  22391783.4534   22391783.9894
 -15554308.98644 -12120229.79344  21380346.0754   21380346.6304
 -23005341.68144 -17926232.54344  20577647.3174   20577647.6014
   4564502.72144   3556768.04344  24876221.5504   24876222.0074
 -25490776.98744 -19862932.14544  20419256.7674   20419256.4144
   1316945.21244   1026190.08144  25139251.0494
 96  3 24  2 14  0.0000000  0  8G24G 6G16G20G 4G 5G 9G17
 -13026874.51644 -10150794.25344  21870588.0694   21870587.9944
 -13248551.32244 -10323539.43644  22379717.8004   22379718.2404
 -15599615.13644 -12155533.26644  21371724.5974   21371725.0274
 -23033578.76444 -17948235.45844  20572273.8634   20572273.8864
   4660006.42144   3631186.50144  24894394.5224
 -25457654.87444 -19837122.71144  20425559.2984   20425558.9144
   1403854.37544                  25155788.8864
        -0.34954         0.91554  25022870.6154   25022872.1404
 96  3 24  2 14 30.0000000  0  8G24G 6G16G20G 4G 5G 9G17
 -12957484.10044 -10096723.80244  21883793.2744   21883793.1994
 -13312013.89544 -10372990.76644  22367641.5774   22367642.0734
 -15644504.85644 -12190512.24744  21363182.7354   21363183.0984
 -23061354.74744 -17969879.07944  20566988.0774   20566988.1484
   4755349.53844   3705479.89044  24912538.8374
 -25424113.87544 -19810986.87244  20431942.2354   20431941.7574
   1490517.66044   1161441.34944  25172279.5084
    -95169.70544    -74157.00844  25004762.4104
 96  3 24  2 15  0.0000000  0  8G24G 6G16G20G 4G 5G 9G17
 -12887909.92444 -10042510.16544  21897032.7124   21897032.3144
 -13375414.63444 -10422393.91444  22355576.9534   22355577.4184
 -15688859.35144 -12225074.16644  21354741.8164   21354742.3284
 -23088557.99944 -17991076.41244  20561811.6164   20561811.6224
   4850648.20944                  24930672.9674
 -25390045.17444 -19784439.84044  20438425.2334   20438424.8844
   1577035.98544                  25188743.8614
   -190174.70844   -148186.88744  24986684.3184   24986684.3644
 96  3 24  2 15 30.0000000  0  8G24G 6G16G20G 4G 5G 9G17
 -12818152.69544  -9988153.88644  21910306.7614   21910306.7434
 -13438714.87144 -10471718.74944  22343531.1724   22343530.8524
 -15732664.85544 -12259208.30744  21346406.2614   21346406.6954
 -23115171.06144 -18011813.86244  20556747.2184   20556747.4324
   4945937.24544   3853989.85044  24948805.2744
 -25355428.98344 -19757466.19244  20445012.5014   20445012.0934
   1663423.03844   1296172.68044  25205182.6864
   -284989.85144   -222068.79244  24968641.0574   24968641.2644
 96  3 24  2 16  0.0000000  0  8G24G 6G16G20G 4G 5G 9G17
 -12748325.18144  -9933742.83644  21923594.4294   21923594.7444
 -13501999.63644 -10521031.53044  22331488.7054   22331488.3534
 -15776033.94744 -12293002.38144  21338153.2224   21338153.5744
 -23141303.87344 -18032177.09144  20551774.3824   20551774.6634
   5041120.56944                  24966916.0814
 -25320356.78444 -19730137.21644  20451686.5264   20451686.0994
   1749556.77244   1363289.83944  25221573.8574   25221578.7034
   -379732.72244   -295894.40444  24950610.6004   24950609.9804
 96  3 24  2 16 30.0000000  0  8G24G 6G16G20G 4G 5G 9G17
 -12678367.53044  -9879230.39144  21936906.7714   21936907.2024
 -13565202.54744 -10570280.52944  22319461.4124   22319461.4394
 -15818890.18444 -12326396.83044  21329997.7944   21329998.3894
 -23166902.46644 -18052124.04544  20546903.4504   20546903.6594
   5136264.13444                  24985023.0414
 -25284761.48144 -19702400.62544  20458460.1564   20458459.6354
   1835483.34744   1430245.64244  25237924.1124   25237928.3184
   -474352.89344   -369624.31744  24932603.4154   24932605.3774
 96  3 24  2 17  0.0000000  0  7G24G 6G16G20G 5G 9G17
 -12608264.89744  -9824604.96244  21950247.1784   21950247.4754
 -13628321.63844 -10619464.20644  22307450.1164   22307449.9384
 -15861225.71544 -12359385.53444  21321941.5814   21321941.9204
 -23191967.83744 -18071655.49844  20542133.5954   20542133.5184
 -25248623.89844 -19674241.47744  20465336.9214   20465336.4894
   1921218.25744   1497052.06744  25254239.6454   25254239.6064
   -568857.33344   -443264.05944  24914615.6894
 96  3 24  2 17 30.0000000  0  8G24G 6G16G20G25G 5G 9G17
 -12538017.24444  -9769866.52844  21963614.8814   21963614.7954
 -13691383.14344 -10668603.01444  22295450.0604   22295450.2754
 -15903062.48244 -12391985.59044  21313980.4494   21313980.7654
 -23216506.22244 -18090776.32144  20537464.0584   20537464.1374
        -0.52454                  25130839.4724
 -25211960.25344 -19645672.41244  20472313.6894   20472313.4164
   2006756.30044   1563705.05044  25270516.8794   25270519.7654
   -663251.65744                  24896652.0454
 96  3 24  2 18  0.0000000  0  8G24G 6G16G20G25G 5G 9G17
 -12467584.26844  -9714983.69244  21977017.7704   21977018.1074
 -13754381.49344 -10717692.60844  22283461.7284   22283461.3704
 -15944362.89244 -12424167.70844  21306121.0724   21306121.6664
 -23240473.40544 -18109452.04844  20532903.2424   20532903.5434
    -28402.02544                  25125432.3994
 -25174746.23744 -19616674.48544  20479395.2734   20479394.8884
   2092130.48144   1630230.32344  25286762.8654   25286765.9734
   -757488.81844   -590249.50844  24878721.3104
 96  3 24  2 18 30.0000000  0  8G24G 6G16G20G25G 5G 9G17
 -12396984.18044  -9659970.63744  21990452.4994   21990452.2894
 -13817347.24044 -10766756.80944  22271479.8404   22271479.0854
 -15985139.39844 -12455941.58444  21298361.3484   21298361.8724
 -23263884.44244 -18127694.41544  20528448.3974   20528448.4234
    -56335.10744                  25120119.2284
 -25137012.54944 -19587271.62144  20486576.0174   20486575.5684
   2177329.22444   1696618.98944  25302976.0504
   -851573.37244                  24860820.2064
 96  3 24  2 19  0.0000000  0  7G24G 6G16G20G 5G 9G17
 -12326249.67544  -9604852.84444  22003912.5314   22003912.8494
 -13880316.61744 -10815823.83444  22259496.9174   22259496.9874
 -16025435.01644 -12487340.74444  21290693.8394   21290694.3314
 -23286768.61544 -18145526.23244  20524093.7004   20524093.7524
 -25098790.95444 -19557488.56844  20493849.0744   20493848.8064
   2262323.29944   1762848.13044  25319149.6244
   -945536.63144   -736780.16344  24842940.5164
 96  3 24  2 19 30.0000000  0  8G24G 6G16G20G25G 5G 9G17
 -12255395.01244  -9549641.42244  22017395.7704   22017395.9034
 -13943282.74444 -10864888.33544  22247515.0184   22247514.3574
 -16065236.17344 -12518354.61444  21283119.8664   21283120.0294
 -23309115.84444 -18162939.65444  20519841.0674   20519841.0294
        -0.54054                  25109736.1854
 -25060086.08044 -19527328.93344  20501214.3514   20501213.9984
   2347097.94844                  25335282.3254
  -1039380.20344   -809905.03844  24825082.9584   24825082.1234
 96  3 24  2 20  0.0000000  0  8G24G 6G16G20G25G 5G 9G17
 -12184335.87044  -9494270.66544  22030917.6784   22030918.0064
 -14006138.63844 -10913866.92444  22235553.9714   22235554.0304
 -16104431.80244 -12548896.63944  21275661.2214   21275661.5384
 -23330835.13344 -18179863.77344  20515707.9044   20515707.9764
    -26512.19044                  25104696.6084
 -25020777.58544 -19496698.94744  20508694.8094   20508694.4684
   2431732.99144                  25351386.9874
  -1133017.56044   -882869.18844  24807263.9174   24807260.9974
 96  3 24  2 20 30.0000000  0  8G24G 6G16G20G25G 5G 9G17
 -12113062.27544  -9438732.79744  22044481.1684   22044481.2454
 -14068864.63644 -10962744.30744  22223617.4084   22223616.9084
 -16143014.45244 -12578961.02144  21268318.8384   21268319.3154
 -23351924.45944 -18196297.01144  20511694.7734   20511695.0164
    -52459.30044                  25099755.1704
 -24980846.48344 -19465583.81144  20516293.2444   20516292.8524
   2516232.51744                  25367467.7854
  -1226461.85344   -955682.86844  24789483.4424   24789480.2944
 96  3 24  2 21  0.0000000  0  8G24G 6G16G20G25G 5G 9G17
 -12041654.73644  -9383090.54844  22058069.8314   22058069.2204
 -14131537.96744 -11011580.65044  22211691.0514   22211691.2304
 -16181056.94244 -12608604.50444  21261079.6714   21261080.3434
 -23372459.32944 -18212298.20544  20507787.1474   20507787.4344
    -77914.32544                  25094913.9284
 -24940362.33144 -19434037.72744  20523996.9304   20523996.5524
   2600519.24444                  25383506.7634
  -1319794.44844  -1028409.59044  24771722.6374
 96  3 24  2 21 30.0000000  0  8G24G 6G16G20G25G 5G 9G17
 -11970114.31244  -9327344.75644  22071682.9434   22071683.3874
 -14194154.42444 -11060372.67744  22199775.6714   22199775.7684
 -16218546.37144 -12637817.02144  21253945.9004   21253946.3834
 -23392440.17744 -18227867.69444  20503985.1234   20503985.0734
   -102879.50344                  25090161.7394
 -24899337.77244 -19402070.54944  20531804.0694   20531803.5054
   2684590.72344                  25399504.8694
  -1413001.81744  -1101038.59544  24753985.1754   24753988.1064
 96  3 24  2 22  0.0000000  0  8G24G 6G16G20G25G 5G 9G17
 -11898431.72344  -9271488.20344  22085323.7784   22085323.9764
 -14256710.70544 -11109117.80944  22187871.4064   22187871.4384
 -16255490.43644 -12666604.58544  21246915.4984   21246915.8414
 -23411868.95444 -18243006.99844  20500287.6904   20500287.9194
   -127360.57244                  25085505.8774
 -24857780.03444 -19369687.90644  20539712.1024   20539711.6914
   2768463.26744                  25415466.7974
  -1506061.20444  -1173552.34244  24736275.2214   24736277.4574
 96  3 24  2 22 30.0000000  0  8G24G 6G16G20G25G 5G 9G17
 -11826590.59044  -9215508.09944  22098994.9294   22098994.9754
 -14319168.27244 -11157786.01944  22175986.3254   22175986.4084
 -16291878.23544 -12694958.69444  21239991.4054   21239991.7104
 -23430707.69944 -18257686.53844  20496702.6284   20496702.7074
   -151348.68244                  25080939.1484
 -24815696.40344 -19336895.47644  20547720.4854   20547720.0674
   2852168.32844                  25431393.4594
  -1598932.40344  -1245919.49244  24718601.8264   24718607.0964
 96  3 24  2 23  0.0000000  0  8G24G 6G16G20G25G 5G 9G17
 -11754628.94644  -9159434.09544  22112688.5974   22112689.1664
 -14381547.50844 -11206393.19644  22164116.0554   22164115.4564
 -16327731.38544 -12722896.19444  21233168.5404   21233168.9234
 -23448980.43644 -18271925.03344  20493225.8784   20493225.8744
   -174880.91044                  25076462.0894
 -24773118.29044 -19303717.73644  20555822.6834   20555822.1934
   2935682.43144                  25447286.9414
  -1691623.45244  -1318146.19744  24700961.4254   24700965.6364
 96  3 24  2 23 30.0000000  0  8G24G 6G16G20G25G 5G 9G17
 -11682547.35244  -9103266.62044  22126405.2454   22126405.7974
 -14443838.02144 -11254931.23444  22152262.3474   22152262.2404
 -16363050.32444 -12750417.42344  21226447.7374   21226448.2194
 -23466678.48744 -18285715.72244  20489857.8534   20489857.8884
   -197956.19744                  25072071.8634
 -24730050.68044 -19270158.57044  20564018.2524   20564017.8844
   3019000.41644                  25463140.7514
  -1784128.77344  -1390228.17944  24683359.7044   24683363.4824
 96  3 24  2 24  0.0000000  0  8G24G 6G16G20G25G 5G 9G17
 -11610361.27244  -9047017.72544  22140142.0114   22140142.2554
 -14506057.88044 -11303414.20944  22140422.3054   22140422.2364
 -16397848.47344 -12777532.84444  21219825.7554   21219826.0694
 -23483808.18644 -18299063.53744  20486598.1524   20486598.3804
   -220573.14144                  25067771.0784
 -24686496.31444 -19236220.11244  20572306.2494   20572305.8154
   3102102.45244                  25478954.3724
  -1876474.71044  -1462186.01244  24665786.9644   24665791.7464
 96  3 24  2 24 30.0000000  0  7G24G 6G16G20G25G 5G17
 -11538074.99244  -8990690.75744  22153897.4574   22153897.5724
 -14568213.12644 -11351846.84644  22128594.2174   22128594.0414
 -16432109.96644 -12804230.09144  21213305.8354   21213306.4234
 -23500364.27444 -18311964.38544  20483447.6074   20483447.7724
   -242725.38244                  25063563.8224
 -24642446.67944 -19201895.73244  20580688.6104   20580688.3164
  -1968681.22344  -1534035.14544  24648240.5244
 96  3 24  2 25  0.0000000  0  6G24G 6G20G 5G16G17
 -11465655.78344  -8934260.20744  22167678.4514   22167678.6814
 -14630287.23944 -11400216.26044  22116782.1454   22116781.8344
 -23516334.27144 -18324408.53944  20480408.7044   20480408.7784
 -24597870.22044 -19167160.83844  20589171.4094   20589171.0234
 -16465791.22544 -12830475.20844  21206896.1834   21206896.7584
  -2060737.70744  -1605767.42344  24630722.6124   24630727.6774
 96  3 24  2 25 30.0000000  0  7G24G 6G16G20G 5G 4G17
 -11393064.58244  -8877695.64244  22181492.0074   22181492.2414
 -14692250.44044 -11448499.25144  22104990.6684   22104990.7834
 -16498861.08944 -12856243.91444  21200603.4324   21200603.8214
 -23531693.33944 -18336376.64144  20477486.0044   20477485.7844
 -24552741.41744 -19131995.54644  20597758.9524   20597758.6644
        -0.32354                  25308836.1494
  -2152618.88844  -1677363.10944  24613238.2504   24613242.7244
 96  3 24  2 26  0.0000000  0  7G24G 6G16G 4G20G 5G17
 -11320405.68344  -8821078.31944  22195317.9384   22195318.3604
 -14754205.76744 -11496776.11044  22093200.8134   22093200.4534
 -16531429.03544 -12881621.51444  21194406.0294   21194406.6644
     93774.27944                  25326680.9034
 -23546559.98744 -18347961.03944  20474656.7444   20474656.7794
 -24507167.73744 -19096483.60044  20606431.5124   20606431.1634
  -2244441.73144  -1748913.30544  24595764.8324   24595768.0124
 96  3 24  2 26 30.0000000  0  6G24G 6G16G17G20G 5
 -11247626.41044  -8764367.20044  22209167.1574   22209168.0044
 -14816087.71544 -11544995.79044  22081425.3484   22081425.2924
 -16563449.29344 -12906572.34444  21188312.7944   21188313.2384
  -2336152.00644  -1820375.82444  24578314.0234   24578315.6054
 -23560882.79644 -18359121.66844  20471931.4524   20471931.5374
 -24461096.31544 -19060583.80144  20615198.5744   20615198.2264
 96  3 24  2 27  0.0000000  0  6G24G 6G16G17G20G 5
 -11174720.10544  -8707557.09644  22223041.3874   22223041.8254
 -14877880.72444 -11593146.16844  22069666.5164   22069666.7244
 -16594926.95744 -12931100.37344  21182322.8684   21182323.2394
  -2427731.11644  -1891736.10744  24560888.8194   24560886.4954
 -23574657.47744 -18369855.18644  20469310.1204   20469310.3614
 -24414513.71544 -19024285.67844  20624063.0004   20624062.6514
 96  3 24  2 27 30.0000000  0  6G24G 6G16G17G20G 5
 -11101701.75844  -8650659.69144  22236936.4224   22236936.9564
 -14939591.58944 -11641232.53644  22057923.3964   22057923.6774
 -16625877.37344 -12955217.56144  21176433.1744   21176433.0554
  -2519174.35344  -1962990.55544  24543488.1684   24543485.5184
 -23587876.38744 -18380155.63544  20466794.6244   20466794.7144
 -24367410.07944 -18987581.55644  20633026.3684   20633025.8594
 96  3 24  2 28  0.0000000  0  7G24G 6G16G20G25G 5G17
 -11028557.45144  -8593664.13144  22250855.4634   22250855.4384
 -15001201.35144 -11689240.12244  22046199.4454   22046199.3614
 -16656272.20144 -12978901.82344  21170649.0244   21170649.4514
 -23600496.67844 -18389989.62744  20464393.0984   20464393.1504
        -0.17154         0.32654  25036675.4444   25036672.5284
 -24319760.47444 -18950452.00444  20642093.7404   20642093.4104
  -2610462.41044  -2034124.05544  24526114.8914   24526116.8754
 96  3 24  2 28 30.0000000  0  7G24G 6G16G25G20G 5G17
 -10955308.71444  -8536587.19144  22264794.0864   22264794.1614
 -15062743.69744 -11737195.17544  22034488.2284   22034487.9674
 -16686114.50444 -13002155.54644  21164970.5784   21164970.9164
    -18210.41344    -14189.47044  25033213.0944   25033210.6654
 -23612519.72644 -18399358.23244  20462104.9044   20462105.1014
 -24271575.99844 -18912905.66744  20651263.1094   20651262.7974
  -2701594.00344  -2105135.63344  24508772.2594   24508772.7694
 96  3 24  2 29  0.0000000  0  7G24G 6G16G20G25G 5G17
 -10881942.74044  -8479418.90044  22278755.0944   22278755.1744
 -15124211.74844 -11785092.33844  22022791.3314   22022791.1514
 -16715377.66044 -13024957.98644  21159401.7074   21159402.0474
 -23623929.24144 -18408248.76244  20459934.0454   20459934.1364
    -35937.12244    -28002.48644  25029841.8314   25029841.3854
 -24222845.76444 -18874934.06744  20660536.2104   20660535.8744
  -2792535.23944  -2175998.85844  24491466.0104   24491466.2394
 96  3 24  2 29 30.0000000  0  7G24G 6G25G16G20G 5G17
 -10808454.46044  -8422155.31244  22292739.6674   22292740.1944
 -15185615.85344 -11832939.67344  22011106.0474   22011106.1144
    -53190.07344    -41446.42044  25026559.3264   25026558.8214
 -16744048.84044 -13047299.15044  21153945.6794   21153946.2194
 -23634713.75444 -18416652.28044  20457881.6904   20457881.7734
 -24173585.11744 -18836549.15844  20669910.1554   20669909.8014
  -2883288.69444  -2246715.76844  24474196.8274   24474199.9774
 96  3 24  2 30  0.0000000  0  7G24G 6G16G25G20G 5G17
 -10734832.37744  -8364787.45644  22306749.3924   22306749.3884
 -15246959.74944 -11880740.08644  21999432.7704   21999432.6004
 -16772116.22344 -13069169.81944  21148604.8884   21148605.5264
    -69974.51744    -54525.23344  25023364.8224   25023360.3834
 -23644884.90744 -18424577.85244  20455946.1934   20455946.1144
 -24123811.31344 -18797764.38744  20679381.9564   20679381.7914
  -2973850.74144  -2317283.59644  24456962.2584   24456965.3034
 96  3 24  2 30 30.0000000  0  7G24G 6G25G16G20G 5G17
 -10661077.31644  -8307315.98244  22320784.5224   22320784.4444
 -15308226.85544 -11928480.66744  21987774.6574   21987774.2944
    -86278.21144    -67229.48744  25020260.7724   25020258.3074
 -16799578.46144 -13090568.94844  21143378.6434   21143379.0644
 -23654456.42644 -18432036.17544  20454124.8604   20454125.1104
 -24073518.85044 -18758575.46544  20688952.1714   20688951.8434
  -3064201.22244  -2387686.48944  24439768.5834   24439770.3354
 96  3 24  2 31  0.0000000  0  7G24G 6G25G16G20G 5G17
 -10587189.27144  -8249740.88244  22334844.9674   22334844.8184
 -15369408.52644 -11976154.67144  21976132.3084   21976131.3624
   -102087.20444    -79548.14744  25017251.2194   25017248.2394
 -16826444.65444 -13111503.62544  21138266.5234   21138266.6914
 -23663427.87744 -18439026.91644  20452417.5984   20452417.5464
 -24022714.15344 -18718987.40244  20698620.0354   20698619.7154
  -3154349.58844  -2457931.88744  24422614.2974   24422617.7664
 96  3 24  2 31 30.0000000  0  7G24G 6G25G16G20G 5G17
 -10513181.96344  -8192072.84944  22348927.9694   22348927.8874
 -15430506.58144 -12023763.52444  21964505.5054   21964505.2814
   -117407.35644    -91485.91444  25014335.4494   25014333.6594
 -16852737.69644 -13131991.69244  21133263.0784   21133263.3214
 -23671809.95844 -18445558.40744  20450822.4854   20450822.5694
 -23971418.94344 -18679017.11944  20708381.4144   20708380.8064
  -3244322.56744  -2528040.66244  24405493.8514   24405498.0154
 96  3 24  2 32  0.0000000  0  7G24G 6G25G20G 5G16G17
 -10439062.78244  -8134317.64044  22363032.4484   22363032.2254
 -15491504.71544 -12071294.51944  21952897.6764   21952897.3754
   -132235.00844   -103039.90544  25011512.4204   25011515.6054
 -23679606.80744 -18451633.87444  20449339.0974   20449338.9564
 -23919626.27244 -18638659.20444  20718237.1234   20718236.7894
 -16878466.77444 -13152040.30644  21128366.6154   21128366.8194
  -3334112.03444  -2598006.42344  24388407.4034   24388410.1234
 96  3 24  2 32 30.0000000  0  7G24G 6G25G20G 5G16G17
 -10364866.96744  -8076502.71844  22377151.8224   22377151.8484
 -15552423.03244 -12118763.31944  21941305.2434   21941304.9004
   -146585.23044   -114221.92344  25008782.6894   25008783.4934
 -23686829.96644 -18457262.30944  20447964.3044   20447964.5444
 -23867354.67444 -18597928.09744  20728183.8544   20728183.5294
 -16903668.76644 -13171678.20744  21123571.1764   21123571.1084
  -3423759.06744  -2667861.16244  24371347.5804   24371354.4594
 96  3 24  2 33  0.0000000  0  7G24G 6G25G20G 5G16G17
 -10290588.41844  -8018623.32344  22391286.1844   22391286.7434
 -15613267.43844 -12166174.52744  21929726.8094   21929726.6254
   -160458.74844   -125032.45344  25006145.2854   25006140.3184
 -23693470.42044 -18462436.69144  20446700.6324   20446700.9454
 -23814602.96744 -18556822.88244  20738222.1394   20738221.7804
 -16928332.66744 -13190896.81244  21118877.6544   21118877.9754
  -3513278.02844  -2737616.18444  24354312.4824   24354314.5854
 96  3 24  2 33 30.0000000  0  7G24G 6G25G16G20G 5G17
 -10216217.36244  -7960671.83644  22405439.0684   22405439.2434
 -15674016.87144 -12213511.71844  21918166.7274   21918166.6964
   -173841.37244   -135460.50444  25003600.8754   25003597.8854
 -16952437.52544 -13209679.80344  21114290.7254   21114291.0464
 -23699531.11744 -18467159.31244  20445547.3264   20445547.4994
 -23761358.16144 -18515333.43444  20748354.5154   20748354.2074
  -3602661.02944  -2807265.23844  24337304.3354   24337307.4494
 96  3 24  2 34  0.0000000  0  7G24G 6G25G16G20G 5G17
 -10141762.40344  -7902654.98344  22419607.6024   22419607.2864
 -15734685.99244 -12260786.33844  21906621.7354   21906621.4394
   -186748.13944                  25001147.2154
 -16975973.85744 -13228019.78744  21109812.0134   21109812.3174
 -23705024.29144 -18471439.70744  20444502.0824   20444502.1274
 -23707617.37344 -18473457.50344  20758580.7304   20758580.5144
  -3691917.64044  -2876815.77544  24320319.6124   24320322.0194
 96  3 24  2 34 30.0000000  0  7G24G 6G25G16G20G 5G17
 -10067210.46344  -7844562.55144  22433794.1474   22433793.8504
 -15795253.88744 -12307982.07344  21895095.5874   21895095.3714
   -199164.02144                  24998786.2974
 -16998906.59044 -13245889.43144  21105447.8604   21105448.1444
 -23709928.58744 -18475261.23344  20443568.8744   20443569.0854
 -23653365.04944 -18431182.97544  20768904.9114   20768904.5454
  -3781028.83944  -2946252.98344  24303363.0104   24303363.6144
 96  3 24  2 35  0.0000000  0  7G24G 6G25G16G20G 5G17
  -9992571.60744  -7786402.39244  22447997.2804   22447996.9094
 -15855728.89144 -12355105.43044  21883587.8764   21883587.6684
   -211106.18844                  24996512.1324
 -17021242.59844 -13263294.09844  21101197.3244   21101197.9094
 -23714261.16044 -18478637.26944  20442744.2644   20442744.4594
 -23598610.08744 -18388516.78044  20779324.4594   20779324.2734
  -3869983.64644  -3015568.35744  24286435.6664   24286435.7894
 96  3 24  2 35 30.0000000  0  7G24G 6G25G16G20G 5G17
  -9917836.64044  -7728167.34744  22462218.7144   22462219.5844
 -15916097.98644 -12402146.26544  21872100.0434   21872099.7994
   -222566.10244                  24994326.4814
 -17042980.15244 -13280232.43744  21097060.8334   21097061.3404
 -23718007.13144 -18481556.20744  20442031.6214   20442031.6344
 -23543343.45244 -18345451.87944  20789841.2714   20789840.9124
  -3958750.90944  -3084737.64744  24269543.0494   24269542.3404
 96  3 24  2 36  0.0000000  0  7G24G 6G25G16G20G 5G17
  -9842991.32744  -7669846.31944  22476460.9794   22476460.8204
 -15976338.74644 -12449087.09244  21860636.7824   21860636.7004
   -233519.89144   -181963.28044  24992242.1184
 -17064104.17744 -13296692.70044  21093041.0124   21093041.3024
 -23721134.01644 -18483992.74144  20441436.7934   20441436.6944
 -23487548.39444 -18301975.22144  20800459.1154   20800458.6404
  -4047301.44844  -3153737.99644  24252692.4304   24252694.2544
 96  3 24  2 36 30.0000000  0  7G24G 6G25G16G20G 5G17
  -9768041.37544  -7611443.75644  22490723.7544   22490723.1414
 -16036452.83144 -12495929.21044  21849197.5124   21849197.4624
   -243961.88144                  24990252.4374
 -17084635.54544 -13312691.15044  21089134.0864   21089134.1724
 -23723642.73844 -18485947.58544  20440959.2194   20440959.3664
 -23431241.24044 -18258099.52544  20811173.7004   20811173.4504
  -4135638.42544  -3222571.96744  24235882.5354   24235884.5764
 96  3 24  2 37  0.0000000  0  7G24G25G 6G16G20G 5G17
  -9693001.53144  -7552971.14344  22505003.2334   22505002.9084
   -253902.42144   -197845.82844  24988363.2694
 -16096460.14144 -12542688.13244  21837778.3504   21837778.5054
 -17104613.15444 -13328258.10644  21085332.2604   21085332.4464
 -23725565.08344 -18487445.51444  20440593.4484   20440593.5534
 -23374442.78144 -18213840.99844  20821982.1544   20821981.6624
  -4223790.73144  -3291262.02444  24219107.3894   24219109.4194
 96  3 24  2 37 30.0000000  0  7G24G 6G25G16G20G 5G17
  -9617863.16044  -7494421.77144  22519301.2544   22519301.9024
 -16156347.62644 -12589353.68644  21826382.3524   21826382.2574
   -263340.32544                  24986566.7114
 -17124026.28344 -13343385.20044  21081638.5504   21081638.8214
 -23726897.27644 -18488483.58544  20440340.0724   20440340.0054
 -23317159.23844 -18169204.47844  20832882.6264   20832882.4714
  -4311765.20844  -3359813.46544  24202364.4224   24202367.5924
 96  3 24  2 38  0.0000000  0  7G24G 6G25G16G20G 5G17
  -9542613.41844  -7435785.60644  22533621.3424   22533621.4064
 -16216105.15344 -12635917.97644  21815010.4264   21815010.1734
   -272266.29144                  24984864.2624
 -17142855.52844 -13358057.32744  21078055.3254   21078055.6984
 -23727626.47644 -18489051.79244  20440201.0134   20440201.1104
 -23259385.08444 -18124185.67244  20843876.5954   20843876.5374
  -4399558.83744  -3428224.07144  24185658.4304   24185660.3464
 96  3 24  2 38 30.0000000  0  7G24G25G 6G16G20G 5G17
  -9467257.74544  -7377066.89044  22547961.3124   22547961.3324
   -280704.14744                  24983258.6644
 -16275750.67744 -12682394.98744  21803660.2014   21803659.9474
 -17161108.87344 -13372280.69644  21074581.5964   21074582.0254
 -23727763.26944 -18489158.38444  20440174.9214   20440175.0874
 -23201125.45044 -18078788.56744  20854963.0904   20854962.7974
  -4487172.30044  -3496494.23144  24168986.6264   24168989.4544
 96  3 24  2 39  0.0000000  0  7G24G25G 6G16G20G 5G17
  -9391824.33744  -7318287.60344  22562315.2004   22562316.0294
   -288685.72544   -224949.73044  24981738.3224
 -16335317.48944 -12728810.66644  21792325.0534   21792324.6274
 -17178792.79144 -13386060.36244  21071216.5914   21071216.7324
 -23727333.78344 -18488823.71744  20440256.9894   20440257.1874
 -23142395.41044 -18033024.91244  20866139.0154   20866138.9544
  -4574615.33544  -3564631.62244  24152347.2454   24152350.7684
 96  3 24  2 39 30.0000000  0  7G24G25G 6G16G20G 5G17
  -9316303.68544  -7259440.33844  22576686.4174   22576687.0934
   -296213.05144                  24980305.7234
 -16394802.38744 -12775162.51744  21781005.7824   21781005.2064
 -17195872.10244 -13399368.89844  21067966.2344   21067966.6644
 -23726305.36644 -18488022.35344  20440452.5014   20440452.5574
 -23083178.80444 -17986882.11444  20877407.9104   20877407.3524
  -4661864.33544  -3632617.77744  24135743.6124   24135747.0114
 96  3 24  2 40  0.0000000  0  7G24G25G 6G16G20G 5G17
  -9240717.02444  -7200541.63144  22591070.3344   22591070.3284
   -303289.60744   -236329.43544  24978961.0634
 -16454232.72744 -12821471.85044  21769696.4834   21769695.8884
 -17212359.91544 -13412216.52744  21064828.7814   21064829.2244
 -23724690.10644 -18486763.70744  20440759.7044   20440759.7444
 -23023488.65544 -17940370.31944  20888766.8364   20888766.4084
  -4748928.72744  -3700460.09844  24119176.1604   24119176.5324
 96  3 24  2 40 30.0000000  0  7G24G25G 6G16G20G 5G17
  -9165070.80744  -7141596.51644  22605464.9274   22605464.7684
   -309917.39844                  24977700.5884
 -16513606.70344 -12867737.25744  21758397.8694   21758397.7554
 -17228263.16444 -13424608.65144  21061802.2624   21061802.5944
 -23722494.86744 -18485053.13244  20441177.5094   20441177.6584
 -22963326.26444 -17893490.54244  20900215.1824   20900214.9494
  -4835820.31444  -3768167.78244  24102641.2354   24102642.6114
 96  3 24  2 41  0.0000000  0  7G24G25G 6G16G17G20G 5
  -9089376.11244  -7082613.62944  22619868.5604   22619868.7454
   -316099.80344                  24976528.4064
 -16572919.92444 -12913955.32744  21747110.9314   21747110.8764
 -17243583.55344 -13436546.59744  21058887.1994   21058887.4374
  -4922557.99244  -3835755.53844  24086136.5854   24086137.8374
 -23719718.58544 -18482889.79544  20441705.9114   20441706.0584
 -22902701.92544 -17846250.80944  20911751.2854   20911750.9694
 96  3 24  2 41 30.0000000  0  7G24G25G 6G16G20G 5G17
  -9013618.88344  -7023582.02044  22634285.1364   22634285.6154
   -321816.94844                  24975436.9324
 -16632154.26244 -12960111.93044  21735838.8334   21735838.3714
 -17258323.51144 -13448032.26744  21056082.4484   21056082.6264
 -23716343.12044 -18480259.56344  20442348.3214   20442348.5894
 -22841616.77244 -17798651.99844  20923375.2784   20923375.5074
  -5009145.73944  -3903226.46244  24069658.4124   24069660.6904
 96  3 24  2 42  0.0000000  0  7G24G25G 6G16G17G20G 5
  -8937784.22344  -6964490.06344  22648716.6234   22648716.6324
   -327041.14044                  24974444.8674
 -16691283.46144 -13006186.60444  21724586.9224   21724586.4664
 -17272474.84444 -13459059.26044  21053389.2974   21053389.6324
  -5095572.98244  -3970572.34344  24053211.2074   24053211.8254
 -23712359.58644 -18477155.51344  20443106.5444   20443106.6144
 -22780068.20744 -17750692.08944  20935087.8004   20935087.5704
 96  3 24  2 42 30.0000000  0  7G24G25G 6G16G17G20G 5
  -8861862.97844  -6905330.63044  22663164.0004   22663163.7884
   -331774.72844   -258525.61444  24973544.2784
 -16750290.28544 -13052165.91244  21713358.2504   21713358.0794
 -17286023.19744 -13469616.40344  21050811.1674   21050811.5344
  -5181830.07644  -4037785.62144  24036797.9044   24036798.5974
 -23707757.15244 -18473569.19844  20443982.2324   20443982.4444
 -22718043.41744 -17702361.09344  20946890.7374   20946890.5724
 96  3 24  2 43  0.0000000  0  7G24G25G 6G16G20G 5G17
  -8785857.44844  -6846105.53644  22677627.0614   22677626.9424
   -336021.20844   -261834.55044  24972736.8944
 -16809184.32844 -13098057.34344  21702150.8904   21702150.7274
 -17298969.31544 -13479704.27044  21048347.7154   21048348.0244
 -23702547.64244 -18469509.84244  20444973.2984   20444973.6334
 -22655539.37244 -17653656.65744  20958784.8834   20958785.1824
  -5267900.58244  -4104853.47144  24020420.4094   24020421.3944
 96  3 24  2 43 30.0000000  0  7G24G25G 6G16G20G 5G17
  -8709765.94344  -6786813.43444  22692106.6864   22692107.0224
   -339768.10444   -264754.20944  24972024.1004   24972022.6574
 -16867967.72544 -13143862.56244  21690965.2674   21690964.9634
 -17311307.22644 -13489318.21544  21045999.7784   21045999.9174
 -23696740.02044 -18464984.42244  20446078.6364   20446078.6754
 -22592558.19844 -17604580.43344  20970769.7984   20970769.6614
  -5353770.63444  -4171765.18644  24004079.1094   24004081.5074
 96  3 24  2 44  0.0000000  0  7G20G25G 5G24G 6G16G17
 -23690351.81544 -18460006.59844  20447294.2584   20447294.3134
   -343043.85344                  24971396.9654
 -22529100.18344 -17555132.64344  20982845.3384   20982845.2224
  -8633597.64544  -6727461.50944  22706601.3494   22706600.8304
 -16926645.03444 -13189585.12144  21679799.2834   21679799.3884
 -17323035.32044 -13498456.97044  21043767.9914   21043768.3494
  -5439431.71744  -4238514.03444  23987778.1434   23987780.1764
 96  3 24  2 44 30.0000000  0  7G20G25G 5G24G 6G16G17
 -23683401.38444 -18454590.67544  20448616.7654   20448616.7334
   -345858.79944   -269500.24344  24970863.2234
 -22465156.86144 -17505306.68944  20995013.7434   20995013.3114
  -8557357.25344  -6668053.40444  22721109.4764   22721109.1454
 -16985225.87444 -13235232.49944  21668651.4434   21668651.5084
 -17334171.91944 -13507134.82844  21041648.8764   21041648.8024
  -5524890.30044  -4305105.12844  23971515.2704   23971517.4974
 96  3 24  2 45  0.0000000  0  7G20G25G 5G24G 6G16G17
 -23675872.43944 -18448723.96444  20450049.5684   20450049.8144
   -348203.38044                  24970418.1574
 -22400724.52944 -17455099.68744  21007274.6284   21007274.3004
  -8481041.68144  -6608586.72744  22735631.8224   22735630.3184
 -17043699.71844 -13280796.50044  21657523.8274   21657524.1444
 -17344719.74044 -13515353.89444  21039641.6734   21039641.8364
  -5610147.13844  -4371538.96144  23955292.2774   23955289.4044
 96  3 24  2 45 30.0000000  0  7G20G25G 5G24G 6G16G17
 -23667763.86244 -18442405.59244  20451592.6144   20451592.6594
   -350087.06344                  24970059.1314
 -22335829.08344 -17404531.81544  21019623.7524   21019623.4304
  -8404661.28144  -6549069.50444  22750166.2974   22750166.0154
 -17102063.55144 -13326274.78144  21646417.9674   21646417.6384
 -17354686.56644 -13523120.23244  21037744.8624   21037744.7194
  -5695231.46544  -4437838.41644  23939100.7254   23939101.5464
 96  3 24  2 46  0.0000000  0  7G20G25G 5G24G 6G16G17
 -23659076.88244 -18435636.51944  20453245.7894   20453245.7724
   -351533.13444   -273921.85344  24969781.7574
 -22270477.09144 -17353608.19244  21032059.8694   21032059.3214
  -8328223.89444  -6489507.90444  22764712.0864   22764711.7484
 -17160321.53944 -13371670.59244  21635332.0534   21635331.4934
 -17364076.85944 -13530437.32644  21035958.1244   21035958.1424
  -5780157.96844  -4504014.84344  23922938.4544   23922942.2124
 96  3 24  2 46 30.0000000  0  7G20G25G 5G24G 6G16G17
 -23649803.20944 -18428410.27844  20455010.2764   20455010.1174
   -352532.72344   -274700.76944  24969589.3734
 -22204681.35244 -17302338.79444  21044580.6234   21044580.3134
  -8251751.16444  -6429918.75244  22779263.5854   22779263.5854
 -17218475.35944 -13416985.22844  21624265.4324   21624264.8584
 -17372893.02144 -13537307.04644  21034280.3114   21034280.3804
  -5864935.95244  -4570075.55044  23906806.2594   23906808.1944
 96  3 24  2 47  0.0000000  0  7G20G25G 5G24G 6G16G17
 -23639919.05844 -18420708.34044  20456891.3904   20456891.5854
   -353068.77044   -275118.48244  24969487.7854   24969488.9374
 -22138444.92044 -17250726.00144  21057184.5814   21057184.2714
  -8175242.00744  -6370301.23444  22793823.1404   22793823.7894
 -17276509.51044 -13462206.60944  21613222.1444   21613221.8654
 -17381107.44844 -13543707.87944  21032717.2124   21032717.5284
  -5949536.76044  -4635998.21544  23890706.8574   23890709.9474
 96  3 24  2 47 30.0000000  0  7G20G25G 5G24G 6G16G17
 -23629420.63244 -18412527.74744  20458889.0494   20458889.1724
   -353136.09944                  24969475.9544
 -22071765.71144 -17198768.19044  21069873.1254   21069873.0514
  -8098692.09644  -6310651.95344  22808390.0634   22808390.2984
 -17334416.87944 -13507329.20844  21602202.4874   21602202.1494
 -17388710.13944 -13549632.03644  21031270.4854   21031270.7924
  -6033933.35544  -4701761.76044  23874646.7354   23874649.8704
 96  3 24  2 48  0.0000000  0  7G20G25G 5G24G 6G16G17
 -23618299.97444 -18403862.29544  20461005.2464   20461005.2924
   -352730.03744   -274854.54644  24969553.7254   24969555.2724
 -22004640.87244 -17146463.13444  21082646.7934   21082646.6454
  -8022105.58544  -6250974.13544  22822964.0544   22822964.5094
 -17392188.56344 -13552346.07644  21591208.5264   21591208.6274
 -17395713.60644 -13555089.26744  21029937.6844   21029937.6184
  -6118106.93444  -4767351.48244  23858628.7204   23858631.9554
 96  3 24  2 48 30.0000000  0  7G20G25G 5G24G 6G16G17
 -23606564.50444 -18394717.77144  20463238.3044   20463238.3284
   -351838.14544   -274159.57044  24969722.7034   24969722.9364
 -21937078.49044 -17093817.13344  21095503.5864   21095503.5734
  -7945479.18044  -6191265.25344  22837545.6644   22837545.7474
 -17449832.02044 -13597263.02244  21580239.7974   21580239.3794
 -17402135.66044 -13560093.44444  21028715.4954   21028715.6694
  -6202061.65144  -4832770.68644  23842653.4344   23842656.0764
 96  3 24  2 49  0.0000000  0  7G20G25G 5G24G 6G16G17
 -23594233.18244 -18385108.95044  20465585.0294   20465585.3124
   -350479.12644   -273100.61844  24969979.5124   24969982.9264
 -21869093.90844 -17040842.14644  21108440.6734   21108440.2724
  -7868803.34944  -6131517.86444  22852135.8924   22852137.3624
 -17507350.68244 -13642082.73644  21569294.4434   21569293.8704
 -17407991.71244 -13564656.58644  21027601.3334   21027601.2894
  -6285809.59944  -4898028.76344  23826717.0724   23826719.4584
 96  3 24  2 49 30.0000000  0  7G20G25G 5G24G 6G16G17
 -23581289.54744 -18375023.00044  20468048.0464   20468048.0444
   -348637.17344   -271665.30844  24970330.4734   24970330.6354
 -21800668.29644 -16987523.49844  21121461.6244   21121461.2484
  -7792042.69244  -6071704.36444  22866743.4814   22866744.0844
 -17564719.80644 -13686785.92244  21558377.1534   21558376.7034
 -17413262.96244 -13568764.03344  21026598.0004   21026598.1194
  -6369351.43144  -4963126.25344  23810820.7364   23810821.4324
 96  3 24  2 50  0.0000000  0  7G20G25G 5G24G 6G16G17
 -23567751.12844 -18364473.58044  20470623.9814   20470624.3014
   -346304.59044   -269847.71244  24970774.6204   24970776.7194
 -21731799.70044 -16933859.66844  21134567.0464   21134566.6554
  -7715191.91144  -6011820.63844  22881367.7654   22881368.2774
 -17621947.19044 -13731378.65244  21547487.3384   21547486.7164
 -17417931.14144 -13572401.55744  21025709.7314   21025710.0184
  -6452706.68244  -5028078.35344  23794958.2724   23794958.4224
 96  3 24  2 50 30.0000000  0  7G20G25G 5G24G 6G16G17
 -23553635.10044 -18353474.07744  20473310.6204   20473310.5554
   -343491.39944   -267655.72744  24971311.1484   24971312.2324
 -21662488.76144 -16879851.15744  21147756.3404   21147756.1144
  -7638254.40144  -5951869.32144  22896008.7484   22896008.3094
 -17679053.95244 -13775877.39944  21536620.4724   21536620.1434
 -17421976.01344 -13575553.38944  21024940.1984   21024940.1204
  -6535890.34344  -5092896.73544  23779128.9234   23779129.9304
 96  3 24  2 51  0.0000000  0  7G20G25G 5G24G 6G16G17
 -23538932.23244 -18342017.29344  20476108.3924   20476108.6134
   -340202.74244   -265093.10444  24971937.6214   24971939.9484
 -21592719.68644 -16825485.65244  21161033.1314   21161033.0184
  -7561236.85744  -5891855.64844  22910664.6494   22910664.2764
 -17736022.87644 -13820268.73944  21525779.2684   21525778.6504
 -17425384.11344 -13578209.03544  21024291.2714   21024291.5594
  -6618893.97744  -5157574.84644  23763332.6574   23763332.2924
 96  3 24  2 51 30.0000000  0  7G20G25G 5G24G 6G16G17
 -23523643.78244 -18330104.21944  20479017.6234   20479017.6774
   -336436.87344   -262158.68244  24972653.4604   24972651.6974
 -21522482.40944 -16770755.32144  21174398.5484   21174398.3764
  -7484156.43444  -5831792.97844  22925332.2964   22925332.9384
 -17792868.59844 -13864564.07944  21514961.9464   21514961.3144
 -17428166.75444 -13580377.31044  21023761.6704   21023761.9854
  -6701720.17544  -5222114.70644  23747572.1734   23747572.4664
 96  3 24  2 52  0.0000000  0  7G20G25G 5G24G 6G16G17
 -23507784.52744 -18317746.35744  20482035.5774   20482035.5404
   -332222.99344   -258875.12444  24973456.5694   24973459.9484
 -21451787.04644 -16715668.03844  21187851.5804   21187851.2034
  -7407046.93244  -5771707.66444  22940005.9204   22940006.1214
 -17849617.09844 -13908783.66544  21504163.0974   21504162.6924
 -17430349.04644 -13582077.78144  21023346.9194   21023346.9414
  -6784374.87844  -5286520.89844  23731842.6384   23731844.5494
 96  3 24  2 52 30.0000000  0  7G20G25G 5G24G 6G16G17
 -23491335.53944 -18304928.96744  20485165.8434   20485165.8114
   -327573.03044                  24974341.6974
 -21380634.88044 -16660224.80344  21201391.3914   21201391.1634
  -7329917.63644  -5711606.92244  22954682.9144   22954682.6684
 -17906257.85244 -13952919.29644  21493384.3654   21493383.9074
 -17431963.90944 -13583336.09844  21023039.2694   21023039.3284
  -6866836.70444  -5350776.82744  23716150.6284   23716151.2094
 96  3 24  2 53  0.0000000  0  7G20G25G 5G24G 6G16G17
 -23474276.02044 -18291635.83344  20488412.0954   20488412.2394
   -322483.69544   -251286.00844  24975310.0044   24975309.4694
 -21309024.36444 -16604424.40944  21215018.6074   21215018.3614
  -7252763.45944  -5651486.78544  22969365.3704   22969364.3184
 -17962772.27844 -13996956.48544  21482630.2364   21482629.8454
 -17433021.98744 -13584160.55844  21022838.2664   21022838.1814
  -6949092.39444  -5414872.11844  23700498.2054   23700499.5604
 96  3 24  2 53 30.0000000  0  7G20G25G 5G24G 6G16G17
 -23456618.32344 -18277876.59044  20491772.2024   20491772.1864
   -316967.52544   -246987.69744  24976359.9094   24976358.1784
 -21236989.68244 -16548293.49644  21228726.3564   21228725.8984
  -7175587.88544  -5591349.95944  22984051.4764   22984051.5424
 -18019174.43344 -14040906.19144  21471897.5664   21471896.9774
 -17433531.59244 -13584557.64144  21022740.6104   21022740.9464
  -7031154.26044  -5478816.36444  23684882.6784   23684885.7264
 96  3 24  2 54  0.0000000  0  7G20G25G 5G24G 6G16G17
 -23438344.96044 -18263637.60844  20495249.3974   20495249.2924
   -311000.35344   -242337.98844  24977496.5744   24977496.1754
 -21164530.24144 -16491831.60444  21242514.7864   21242514.4944
  -7098366.31144  -5531177.30544  22998745.8534   22998746.0584
 -18075433.57144 -14084744.46044  21461191.4284   21461190.9864
 -17433455.43344 -13584498.28244  21022755.3014   21022755.5864
  -7112995.33444  -5542588.55044  23669308.7244   23669309.8054
 96  3 24  2 54 30.0000000  0  7G20G25G 5G24G 6G16G17
 -23419454.71944 -18248917.94244  20498844.4474   20498844.3864
   -304573.42144   -237330.00644  24978720.7164
 -21091654.06344 -16435044.98344  21256382.6344   21256382.6664
  -7021100.05944  -5470969.85244  23013448.0004   23013449.4524
 -18131538.52244 -14128462.58044  21450514.8004   21450514.5064
 -17432785.20644 -13583976.01144  21022883.0364   21022883.0544
  -7194615.47444  -5606188.59944  23653776.3424   23653778.4844
 96  3 24  2 55  0.0000000  0  7G20G25G 5G24G 6G16G17
 -23399967.11044 -18233732.79544  20502552.8184   20502552.9634
   -297684.33244   -231961.92644  24980030.5224
 -21018365.53044 -16377937.04844  21270328.6534   21270328.9854
  -6943781.66444  -5410721.75644  23028161.9594   23028162.9354
 -18187490.40344 -14172061.43044  21439867.4404   21439866.9174
 -17431496.11444 -13582971.50844  21023128.3024   21023128.7204
  -7276037.88144  -5669634.57344  23638281.9634   23638284.3294
 96  3 24  2 55 30.0000000  0  7G20G25G 5G24G 6G16G17
 -23379911.38344 -18218104.95844  20506368.9944   20506368.9304
   -290342.61244                  24981425.6524
 -20944678.59844 -16320518.67244  21284351.2584   21284351.1874
  -6866426.24244  -5350444.78844  23042883.3914   23042882.9834
 -18243308.56744 -14215556.08644  21429245.9734   21429245.5014
 -17429581.81544 -13581479.82844  21023492.4634   21023492.3574
  -7357274.93144  -5732936.10644  23622823.2474   23622826.3774
 96  3 24  2 56  0.0000000  0  7G20G25G 5G24G 6G16G17
 -23359277.51044 -18202026.61644  20510295.6414   20510295.9554
   -282545.41144   -220165.35244  24982911.5944   24982914.1844
 -20870580.84944 -16262780.17744  21298451.5334   21298451.3984
  -6789045.54744  -5290148.16044  23057607.6094   23057608.2604
 -18298998.11044 -14258950.51344  21418648.7984   21418648.2754
 -17427034.55044 -13579494.93244  21023977.5004   21023977.3344
  -7438326.31744  -5796092.96544  23607399.5664   23607402.8034
 96  3 24  2 56 30.0000000  0  7G20G25G 5G24G 6G16G17
 -23338044.87344 -18185481.70644  20514335.8754   20514335.9844
   -274281.46544   -213725.92644  24984485.3454   24984487.1434
 -20796044.01844 -16204699.54344  21312635.4424   21312635.0684
  -6711613.82844  -5229811.76444  23072342.3684   23072342.7914
 -18354536.85844 -14302227.43644  21408079.9454   21408079.2574
 -17423839.87044 -13577005.55444  21024585.1084   21024585.3774
  -7519184.15944  -5859099.00044  23592012.1904   23592015.5084
 96  3 24  2 57  0.0000000  0  7G20G25G 5G24G 6G16G17
 -23316204.18344 -18168462.99244  20518492.3004   20518492.4274
   -265535.98744   -206911.31144  24986149.5524   24986152.0254
 -20721059.66944 -16146270.19044  21326904.3694   21326904.3124
  -6634102.71744  -5169413.48944  23087091.8524   23087093.5984
 -18409914.04744 -14345378.47144  21397541.8924   21397541.4114
 -17419982.72244 -13573999.97044  21025319.2374   21025319.5514
  -7599833.78144  -5921942.81744  23576665.7094   23576667.6114
 96  3 24  2 57 30.0000000  0  7G20G25G 5G24G 6G16G17
 -23293772.73244 -18150983.94544  20522760.7904   20522760.8194
   -256335.52044   -199742.09944  24987900.1154   24987903.3374
 -20645669.71444 -16087524.78244  21341250.4564   21341250.4894
  -6556560.43844  -5108990.95044  23101847.6344   23101846.9304
 -18465173.40044 -14388437.68544  21387026.4484   21387025.9054
 -17415511.72644 -13570516.06244  21026170.1344   21026170.0864
  -7680287.18044  -5984633.72544  23561355.6154   23561357.4854
 96  3 24  2 58  0.0000000  0  7G20G25G 5G24G 6G16G17
 -23270754.00344 -18133047.27644  20527140.9694   20527141.0404
   -246686.74044   -192223.58744  24989735.9714   24989738.1924
 -20569879.12344 -16028467.18544  21355673.1324   21355673.2224
  -6478991.13844  -5048547.32044  23116608.5154   23116608.2614
 -18520305.64844 -14431397.85844  21376534.9204   21376534.6174
 -17410455.86844 -13566576.41844  21027132.2334   21027132.5264
  -7760542.23144  -6047170.05844  23546083.8994   23546084.4434
 96  3 24  2 58 30.0000000  0  7G20G25G 5G24G 6G16G17
 -23247161.84644 -18114663.78044  20531630.2654   20531630.5734
   -236587.24144   -184353.45344  24991656.0304
 -20493694.15744 -15969102.29044  21370170.6154   21370170.9104
  -6401382.05444  -4988072.71244  23131377.6214   23131377.6114
 -18575295.33544 -14474246.94344  21366070.7104   21366070.1994
 -17404827.22944 -13562190.45244  21028203.0464   21028202.9024
  -7840582.79844  -6109539.26744  23530852.2274   23530853.3034
 96  3 24  2 59  0.0000000  0  7G20G25G 5G24G 6G16G17
 -23222995.95244 -18095833.21544  20536229.0224   20536229.1384
   -226036.39844   -176131.48044  24993663.2504
 -20417116.72744 -15909431.57744  21384742.5954   21384743.0314
  -6323748.66044  -4927579.15744  23146150.1964   23146150.6544
 -18630149.70044 -14516990.58244  21355632.5674   21355631.8734
 -17398626.50644 -13557358.70944  21029383.2704   21029383.3204
  -7920397.08444  -6171732.15144  23515664.4014   23515665.7444
 96  3 24  2 59 30.0000000  0  7G20G25G 5G24G 6G16G17
 -23198263.92044 -18076561.50644  20540935.5634   20540935.9554
   -215042.43144   -167564.74644  24995755.8284   24995752.2154
 -20340151.65244 -15849458.80444  21399388.7214   21399388.4644
  -6246102.29544  -4867075.49044  23160926.2744   23160926.0384
 -18684859.65644 -14559621.69844  21345222.0434   21345221.2534
 -17391860.72744 -13552086.65544  21030670.3944   21030670.3774
  -7999991.82044  -6233753.95844  23500518.9934   23500519.9734
 96  3 24  3  0  0.0000000  0  7G20G25G 5G24G 6G16G17
 -23172970.52144 -18056852.36544  20545748.7334   20545748.8754
   -203615.80444   -158660.87444  24997930.5244   24997927.4554
 -20262792.90844 -15789179.27144  21414109.8534   21414109.5394
  -6168432.06244  -4806552.98444  23175706.2184   23175706.9184
 -18739410.45044 -14602128.79044  21334840.8834   21334840.3644
 -17384524.14844 -13546369.82744  21032067.0894   21032066.9274
  -8079388.39944  -6295621.37444  23485409.8494   23485410.1094
 96  3 24  3  0 30.0000000  0  7G20G25G 5G24G 6G16G17
 -23147109.52544 -18036700.94444  20550669.7564   20550669.8204
   -191761.81644   -149423.90744  25000186.2844
 -20185049.93244 -15728600.34444  21428903.5894   21428903.2334
  -6090747.98644  -4746020.21644  23190488.9264   23190488.4824
 -18793820.25744 -14644526.02144  21324486.8574   21324486.4164
 -17376599.92244 -13540195.09544  21033574.6864   21033574.5414
  -8158601.96544  -6357346.17244  23470335.2434   23470336.4794
 96  3 24  3  1  0.0000000  0  7G20G25G 5G24G 6G16G17
 -23120668.80044 -18016097.78444  20555701.4824   20555701.6804
   -179478.11444   -139852.29344  25002523.2774   25002522.2374
 -20106906.71944 -15667709.53944  21443774.0554   21443773.9764
  -6013055.30544  -4685480.46244  23205274.1844   23205273.7774
 -18848092.28644 -14686815.89544  21314159.1564   21314158.6264
 -17368082.54444 -13533558.16344  21035195.5944   21035195.8964
  -8237633.27444  -6418928.94744  23455296.5444   23455298.4884
 96  3 24  3  1 30.0000000  0  7G20G25G 5G24G 6G16G17
 -23093635.87744 -17995033.17344  20560845.6414   20560845.6074
   -166761.88644   -129943.48444  25004941.8354   25004943.0114
 -20028360.35144 -15606504.58944  21458720.8334   21458720.5134
  -5935345.87844  -4624927.65544  23220061.6964   23220060.5904
 -18902223.02044 -14728995.66844  21303858.5094   21303857.7844
 -17358982.60844 -13526467.29544  21036927.0734   21036927.1814
  -8316483.26944  -6480370.44644  23440292.0834   23440292.8804
 96  3 24  3  2  0.0000000  0  7G20G25G 5G24G 6G16G17
 -23065997.01044 -17973496.39744  20566105.1014   20566105.4674
   -153606.66644   -119692.64544  25007444.7914   25007442.3844
 -19949396.56344 -15544974.37944  21473747.2574   21473747.1124
  -5857625.01844  -4564365.95144  23234850.8174   23234850.9284
 -18956222.19244 -14771072.92944  21293582.8344   21293581.6404
 -17349299.98444 -13518922.38144  21038769.9054   21038770.0294
  -8395145.25644  -6541665.44244  23425322.6634   23425325.5894
 96  3 24  3  2 30.0000000  0  7G20G25G 5G24G 6G16G17
 -23037759.02444 -17951492.77944  20571478.5934   20571478.9634
   -140011.43244   -109098.98744  25010030.6374   25010029.0244
 -19870020.30144 -15483122.75644  21488852.0424   21488852.3404
  -5779898.72544  -4503799.99944  23249641.4594   23249641.1594
 -19010089.63944 -14813047.54544  21283332.4394   21283331.9684
 -17339038.73644 -13510926.59344  21040722.0114   21040722.1454
  -8473602.73644  -6602801.09144  23410391.8044   23410393.7644
 96  3 24  3  3  0.0000000  0  7G20G25G 5G24G 6G16G17
 -23008917.35344 -17929018.75444  20576966.9154   20576967.1254
   -125969.01444    -98156.87044  25012703.0694   25012703.1334
 -19790214.44744 -15420936.38844  21504038.2864   21504038.7664
  -5702149.28044  -4443216.01544  23264437.4544   23264436.9664
 -19063802.91444 -14854902.02844  21273110.7404   21273110.1404
 -17328200.74944 -13502481.39444  21042784.9474   21042784.9874
  -8551840.06744  -6663765.19144  23395504.2664   23395507.2004
 96  3 24  3  3 30.0000000  0  7G20G25G 5G24G 6G16G17
 -22979474.95744 -17906076.63444  20582569.7024   20582569.4884
   -111482.50344    -86868.81944  25015460.5224   25015459.6014
 -19710000.68944 -15358432.17344  21519302.5464   21519302.9874
  -5624373.74344  -4382611.68244  23279237.5424   23279237.2164
 -19117351.39444 -14896628.09844  21262921.1644   21262920.6964
 -17316782.83544 -13493584.31244  21044957.6504   21044957.6254
  -8629863.72244  -6724562.80644  23380656.8994   23380659.5374
 96  3 24  3  4  0.0000000  0  7G20G25G 5G24G 6G16G17
 -22949461.43044 -17882689.47044  20588281.3264   20588281.4664
    -96568.69444    -75247.68744  25018298.8964   25018298.1094
 -19629404.71344 -15295630.13244  21534639.3014   21534639.2854
  -5546584.93644  -4321997.02344  23294039.8554   23294040.2974
 -19170726.52344 -14938219.09344  21252764.0024   21252763.3434
 -17304772.73944 -13484225.78544  21047242.6754   21047242.7334
  -8707675.22644  -6785195.09144  23365849.1474   23365852.5764
 96  3 24  3  4 30.0000000  0  7G20G25G 5G24G 6G16G17
 -22918891.70544 -17858868.91444  20594098.2904   20594098.5864
    -81250.40144                  25021211.4184
 -19548441.26844 -15232541.73944  21550046.3164   21550046.5574
  -5468778.92844  -4261368.97344  23308845.5184   23308846.2004
 -19223919.79744 -14979668.38244  21242641.9264   21242641.1934
 -17292168.32244 -13474404.15044  21049641.4294   21049641.3754
  -8785270.72944  -6845659.03344  23351083.3804   23351086.0754
 96  3 24  3  5  0.0000000  0  7G20G25G 5G24G 6G16G17
 -22887734.13844 -17834590.29544  20600027.3024   20600027.2724
    -65500.45844                  25024210.2734
 -19467085.12544 -15169147.35744  21565528.0744   21565527.6484
  -5390919.04644  -4200698.94544  23323662.3914   23323662.4884
 -19276903.41244 -15020954.30844  21232559.1194   21232558.7224
 -17278947.93844 -13464102.54544  21052157.1224   21052157.0594
  -8862627.66844  -6905937.12444  23336364.1814   23336363.3834
 96  3 24  3  5 30.0000000  0  7G20G25G 5G24G 6G16G17
 -22855985.81544 -17809851.34944  20606069.0504   20606069.0244
    -49310.08444                  25027290.6564
 -19385338.22544 -15105448.47644  21581084.0464   21581083.9494
  -5312991.84544  -4139976.44944  23338491.8274   23338490.5504
 -19329665.03644 -15062067.23844  21222518.9564   21222518.6114
 -17265097.46044 -13453309.95744  21054792.7004   21054792.8044
  -8939739.09644  -6966023.92644  23321690.4434   23321690.0664
 96  3 24  3  6  0.0000000  0  7G25G20G 5G24G 6G16G17
    -32724.88544                  25030444.6994
 -22823692.83344 -17784687.99444  20612214.1054   20612214.2894
 -19303223.89544 -15041463.30444  21596710.4304   21596710.0724
  -5235029.90444  -4079226.88744  23353327.0774   23353327.6954
 -19382260.04344 -15103050.34444  21212510.5484   21212509.9544
 -17250655.55144 -13442056.51644  21057541.0794   21057541.1984
  -9016648.27244  -7025953.12344  23307054.8594   23307054.9964
 96  3 24  3  6 30.0000000  0  7G20G25G 5G24G 6G16G17
 -22790848.79644 -17759095.24544  20618464.1824   20618464.5314
    -15744.61244                  25033679.6234
 -19220748.25244 -14977196.57844  21612404.6624   21612404.4524
  -5157035.74944  -4018452.22544  23368169.3324   23368170.6854
 -19434718.39944 -15143926.97544  21202528.0554   21202527.4244
 -17235647.42044 -13430361.86044  21060396.8504   21060397.0174
  -9093381.68044  -7085745.34444  23292452.1494   23292454.8344
 96  3 24  3  7  0.0000000  0  7G20G25G 5G24G 6G16G17
 -22757463.58944 -17733080.80844  20624817.1554   20624817.4554
      1632.62544                  25036986.6714
 -19137938.48644 -14912669.50444  21628162.6904   21628162.5974
  -5079025.04244  -3957664.68044  23383013.2854   23383013.3344
 -19487059.84644 -15184712.50144  21192567.6994   21192566.8034
 -17220084.48644 -13418234.88744  21063358.4234   21063358.1804
  -9169959.67444  -7145416.45144  23277878.8134   23277881.7014
 96  3 24  3  7 30.0000000  0  7G20G25G 5G24G 6G16G17
 -22723518.97144 -17706630.46144  20631276.5034   20631276.6144
     19423.24444                  25040371.1104
 -19054771.59444 -14847864.14444  21643988.8794   21643988.9334
  -5000993.43744  -3896860.81944  23397862.8384   23397863.5154
 -19539262.07644 -15225389.55344  21182634.0544   21182633.4854
 -17203922.46744 -13405641.10144  21066433.8154   21066433.7854
  -9246359.69144  -7204948.87644  23263341.8374   23263342.9034
 96  3 24  3  8  0.0000000  0  7G20G25G 5G24G 6G16G17
 -22689013.49944 -17679743.08644  20637842.4774   20637842.7044
     37627.88444     29319.28944  25043834.6644   25043833.7524
 -18971267.43744 -14782795.98344  21659879.1394   21659879.2504
  -4922970.18844  -3836063.44344  23412710.0684   23412710.6654
 -19591338.21644 -15265968.34644  21172723.9424   21172723.3504
 -17187170.19944 -13392587.37944  21069621.7774   21069621.6984
  -9322575.90244  -7264338.10944  23248838.1294   23248838.6934
 96  3 24  3  8 30.0000000  0  7G20G25G 5G24G 6G16G17
 -22653929.20944 -17652404.68544  20644519.2164   20644519.3204
     56262.85344     43840.22544  25047381.2334
 -18887439.97644 -14717475.89744  21675830.7724   21675830.8784
  -4844960.44044  -3775276.60844  23427553.8184   23427553.9854
 -19643257.64444 -15306425.02944  21162844.0114   21162843.6644
 -17169816.81744 -13379065.25444  21072924.3894   21072923.9864
  -9398581.39944  -7323563.14944  23234374.8864   23234376.1394
 96  3 24  3  9  0.0000000  0  7G25G20G 5G24G 6G16G17
     75318.99644     58689.27444  25051008.8314   25051008.3324
 -22618271.59144 -17624619.53544  20651304.6214   20651304.6084
 -18803281.14644 -14651897.59844  21691845.6354   21691845.7104
  -4766979.93544  -3714512.58344  23442393.8164   23442394.9724
 -19694996.69744 -15346741.15944  21152998.8034   21152997.9444
 -17151855.18144 -13365069.16344  21076342.0744   21076342.2884
  -9474368.83044  -7382618.24144  23219952.6714   23219953.4674
 96  3 24  3  9 30.0000000  0  7G20G25G 5G24G 6G16G17
 -22582034.88644 -17596383.14744  20658200.2654   20658200.2594
     94792.79344     73863.79444  25054715.9214   25054714.5374
 -18718775.94644 -14586049.40544  21707926.4524   21707926.7854
  -4689030.05944  -3653772.42144  23457227.0614   23457228.1704
 -19746544.22644 -15386908.04944  21143189.3014   21143188.8934
 -17133296.26844 -13350607.66344  21079873.5894   21079873.2814
  -9549937.25644  -7441502.68744  23205572.7804   23205574.1484
 96  3 24  3 10  0.0000000  0  7G25G 5G20G24G 6G16G17
    114708.69444     89384.36044  25058505.8904   25058507.1994
 -18633903.22644 -14519914.82744  21724077.2884   21724077.6514
 -22545191.22544 -17567673.80744  20665210.9474   20665211.2204
  -4611074.33444  -3593027.69944  23472062.1564   23472062.1434
 -19797870.77044 -15426902.73844  21133422.3154   21133421.7764
 -17114134.52044 -13335676.41644  21083520.0684   21083520.1064
  -9625253.97244  -7500190.98544  23191239.9934   23191241.4874
 96  3 24  3 10 30.0000000  0  7G20G25G 5G24G 6G16G17
 -22507765.64444 -17538511.02444  20672333.2084   20672333.6784
    135036.83744    105229.54244  25062373.8494   25062373.3154
 -18548650.51744 -14453484.16844  21740300.2634   21740300.5694
  -4533105.98744  -3532273.16044  23486898.8044   23486898.2324
 -19848983.69344 -15466730.97844  21123695.7804   21123694.8014
 -17094377.00644 -13320280.94644  21087279.9094   21087279.7554
  -9700345.06644  -7558703.48244  23176951.3364   23176951.9874
 96  3 24  3 11  0.0000000  0  7G20G25G 5G24G 6G16G17
 -22469779.46744 -17508911.41344  20679561.4564   20679561.5374
    155753.86244    121382.01244  25066316.5364   25066316.1514
 -18463014.97644 -14386755.18544  21756596.2784   21756596.1024
  -4455126.49844  -3471509.91444  23501737.2264   23501738.4724
 -19899904.88144 -15506409.81144  21114005.7444   21114004.9444
 -17074039.13944 -13304433.24544  21091149.8334   21091150.0224
  -9775226.69744  -7617052.77744  23162700.9454   23162702.1884
 96  3 24  3 11 30.0000000  0  7G20G25G 5G24G 6G16G17
 -22431217.32244 -17478862.99444  20686899.7844   20686899.8584
    176883.85544    137864.29744  25070337.0064   25070336.7854
 -18376978.12244 -14319713.50044  21772968.9734   21772969.0284
  -4377096.25944  -3410707.12644  23516586.5324   23516585.8944
 -19950629.18844 -15545935.23244  21104353.4874   21104352.5874
 -17053096.80144 -13288114.53144  21095135.2144   21095134.9884
  -9849862.68344  -7675210.65144  23148498.2224   23148499.5874
 96  3 24  3 12  0.0000000  0  7G25G20G 5G24G 6G16G17
    198416.00744    154641.42944  25074434.1884   25074434.0164
 -22392102.14044 -17448383.63944  20694343.1804   20694343.3264
 -18290560.18544 -14252374.86144  21789413.3144   21789413.4924
  -4299027.77644  -3349874.54944  23531442.6554   23531443.9274
 -20001175.52244 -15585321.97244  21094734.6834   21094733.7504
 -17031555.02644 -13271328.72044  21099234.1424   21099233.8414
  -9924266.25844  -7733187.42744  23134339.5384   23134341.0654
 96  3 24  3 12 30.0000000  0  7G20G25G 5G24G 6G16G17
 -22352441.37544 -17417479.15444  20701890.2874   20701890.6714
    220343.40144    171714.28444  25078607.0674   25078606.6764
 -18203767.30644 -14184744.06344  21805929.5214   21805929.4914
  -4220936.97944  -3289024.57444  23546302.6084   23546303.7214
 -20051552.67744 -15624576.88444  21085147.9884   21085147.2504
 -17009429.26244 -13254087.85244  21103444.6904   21103444.3294
  -9998461.18444  -7791001.62544  23120220.9634   23120222.4354
 96  3 24  3 13  0.0000000  0  7G25G20G 5G24G 6G16G17
    242668.12644    189101.42044  25082855.0854   25082855.3754
 -22312240.75544 -17386154.00544  20709540.2194   20709540.3724
 -18116626.18044 -14116841.89644  21822512.0714   21822511.6624
  -4142848.84244  -3228176.65344  23561161.8454   23561161.3874
 -20101778.05944 -15663713.52344  21075590.4204   21075589.9114
 -16986745.36644 -13236412.08044  21107761.4334   21107761.6284
 -10072462.72044  -7848665.11644  23106138.6894   23106140.0834
 96  3 24  3 13 30.0000000  0  6G 5G24G 6G16G17G20
 -18029129.57244 -14048662.73144  21839162.1524   21839161.8694
  -4064766.39044  -3167333.18744  23576020.3734   23576021.7534
 -20151839.89844 -15702722.72944  21066064.1844   21066063.3594
 -16963493.77044 -13218293.94144  21112185.8254   21112185.9334
 -10146263.03744  -7906171.79344  23092094.8254   23092095.2464
 -22271488.18444 -17354398.76244  20717295.3374   20717295.6154
 96  3 24  3 14  0.0000000  0  6G 5G20G24G 6G16G17
 -17941319.22444 -13980239.09744  21855871.8294   21855871.9554
 -22230212.82444 -17322236.15044  20725149.5324   20725149.7304
  -3986729.62744  -3106525.32344  23590870.7944   23590871.0104
 -20201759.25044 -15741620.90444  21056564.7284   21056564.1094
 -16939710.40144 -13199761.43744  21116711.7634   21116711.7664
 -10219898.10444  -7963549.72544  23078082.8924   23078084.9064
 96  3 24  3 14 30.0000000  0  7G23G20G 5G24G 6G16G17
        -0.44254         0.37754  25270976.0664
 -22188389.00644 -17289646.16944  20733108.6504   20733108.8024
 -17853177.94244 -13911557.59644  21872644.1134   21872644.1344
  -3908716.66944  -3045736.03244  23605715.9184   23605715.8874
 -20251513.08944 -15780390.10844  21047096.8034   21047096.1154
 -16915370.79544 -13180795.49844  21121343.2454   21121343.6564
 -10293330.71844  -8020769.89844  23064109.4114   23064110.9504
 96  3 24  3 15  0.0000000  0  7G23G20G 5G24G 6G16G17
   -107282.57544    -83596.10944  25250558.9144
 -22146012.68844 -17256625.67044  20741172.3084   20741172.6314
 -17764710.15244 -13842621.66444  21889479.6094   21889479.5644
  -3830703.40544  -2984946.44144  23620561.9294   23620561.7154
 -20301083.33744 -15819016.26044  21037664.1434   21037663.0264
 -16890454.93744 -13161380.53944  21126084.8124   21126084.5864
 -10366531.12544  -8077809.14544  23050179.7704   23050181.5274
 96  3 24  3 15 30.0000000  0  6G 5G24G 6G16G17G20
 -17675935.45344 -13773446.59444  21906372.4844   21906372.7844
  -3752689.56044  -2924156.43444  23635407.0374   23635406.0924
 -20350459.54744 -15857491.21244  21028268.1724   21028267.3634
 -16864967.87844 -13141520.48344  21130934.9104   21130934.6644
 -10439500.39944  -8134668.26044  23036293.7984   23036295.2254
 -22103095.46344 -17223183.68444  20749339.3744   20749339.5244
 96  3 24  3 16  0.0000000  0  6G 5G24G20G 6G16G17
 -17586873.82944 -13704047.94444  21923320.5444   21923320.9604
  -3674677.97944  -2863368.17144  23650251.8244   23650250.5644
 -22059642.29744 -17189324.07944  20757608.3244   20757608.1494
 -20399649.65944 -15895821.15044  21018907.2944   21018906.9604
 -16838920.00744 -13121223.43244  21135891.3914   21135891.3944
 -10512260.76044  -8191364.59944  23022448.4864   23022450.0304
 96  3 24  3 16 30.0000000  0  7G23G20G 5G24G 6G16G17
        -0.56054        -0.51354  25189271.8854
 -22015638.36844 -17155035.30944  20765982.0194   20765982.1414
 -17497511.93744 -13634415.32244  21940325.8764   21940325.6064
  -3596650.48744  -2802567.55144  23665100.3484   23665101.4174
 -20448638.06044 -15933993.91444  21009585.3054   21009584.7544
 -16812300.39944 -13100480.87144  21140956.9884   21140956.8934
 -10584810.02444  -8247896.44544  23008642.9774   23008643.3154
 96  3 24  3 17  0.0000000  0  7G23G20G 5G24G 6G16G17
   -107402.32344    -83690.17144  25168834.2784
 -21971093.55144 -17120325.06844  20774458.5624   20774458.8544
 -17407855.14944 -13564552.90544  21957386.5314   21957386.9364
  -3518618.74444  -2741763.57044  23679949.4404   23679950.0634
 -20497427.05144 -15972011.29144  21000300.9864   21000300.1704
 -16785114.33344 -13079296.91344  21146130.3864   21146130.3074
 -10657177.24144  -8304286.45344  22994870.8914   22994871.6024
 96  3 24  3 17 30.0000000  0  7G23G20G 5G24G 6G16G17
   -214798.51344                  25148397.3884
 -21926002.40244 -17085189.11644  20783038.8314   20783039.2194
 -17317900.14144 -13494458.10844  21974504.5234   21974504.0804
  -3440600.04844  -2680969.78644  23694794.9194   23694797.3964
 -20546019.53744 -16009875.54944  20991054.2684   20991053.1994
 -16757359.21844 -13057669.54544  21151411.8584   21151411.7314
 -10729370.58444  -8360540.95944  22981133.4524   22981134.5054
 96  3 24  3 18  0.0000000  0  7G 5G23G24G16G17G20G 6
 -17227632.12644 -13424119.40444  21991682.3894   21991682.1614
   -322164.46444                  25127967.3024
  -3362587.89644  -2620181.11544  23709640.3024   23709640.8624
 -16729022.83844 -13035589.24044  21156804.0134   21156803.8014
 -10801367.65844  -8416642.52044  22967432.0904   22967433.9214
 -21880354.23344 -17049619.12444  20791725.3864   20791725.7544
 -20594413.14344 -16047584.83844  20981845.0994   20981844.4744
 96  3 24  3 18 30.0000000  0  7G 5G23G24G16G17G20G 6
 -17137070.36744 -13353551.81544  22008915.1794   22008915.7014
   -429498.07944   -334673.72144  25107541.1244
  -3284613.87744  -2559422.10944  23724479.4934   23724480.4414
 -16700128.44044 -13013074.11544  21162302.4454   21162302.7664
 -10873164.38644  -8472587.97544  22953769.5864   22953771.3814
 -21834178.82944 -17013638.29944  20800512.4354   20800512.6744
 -20642613.28544 -16085143.37644  20972672.5944   20972671.8954
 96  3 24  3 19  0.0000000  0  7G 5G23G24G16G17G20G 6
 -17046195.41044 -13282740.16844  22026208.2364   22026207.9624
   -536789.34544                  25087127.9154
  -3206665.92144  -2498683.44744  23739312.0024   23739312.0224
 -16670664.25644 -12990115.00444  21167909.6244   21167909.3554
 -10944728.60444  -8528352.24844  22940152.0034   22940153.7484
 -21787462.39344 -16977235.89144  20809402.4394   20809402.2154
 -20690591.68844 -16122529.13144  20963542.7524   20963541.9844
 96  3 24  3 19 30.0000000  0  7G 5G23G24G16G17G20G 6
 -16954996.83344 -13211676.35844  22043562.8694   22043563.4274
   -644143.13444                  25066712.4064
  -3128727.16244  -2437951.94244  23754143.1204   23754142.4744
 -16640633.25044 -12966714.20744  21173624.1634   21173624.3514
 -11016033.89144  -8583914.76744  22926582.9634   22926583.5564
 -21740194.43144 -16940403.71944  20818397.1324   20818397.3014
 -20738336.18144 -16159732.61644  20954457.2444   20954456.6504
 96  3 24  3 20  0.0000000  0  6G 5G24G16G17G20G 6
 -16863473.57944 -13140359.56544  22060979.6514   22060980.3714
  -3050798.21244  -2377228.10044  23768973.1074   23768972.3884
 -16610043.78044 -12942878.25544  21179445.3954   21179445.1714
 -11087097.87344  -8639289.25944  22913060.0314   22913059.4124
 -21692388.37944 -16903152.26144  20827494.1664   20827494.5184
 -20785849.93444 -16196756.30544  20945416.0464   20945415.0824
 96  3 24  3 20 30.0000000  0  6G 5G24G16G17G20G 6
 -16771625.45744 -13068789.61544  22078456.6284   22078457.2464
  -2972866.53644  -2316502.12944  23783802.7254   23783801.3074
 -16578894.72844 -12918606.25544  21185372.6254   21185372.4964
 -11157936.77144  -8694488.36244  22899579.3254   22899579.3054
 -21644041.78944 -16865479.60444  20836694.2114   20836694.2724
 -20833124.78144 -16233593.83544  20936419.6634   20936419.1534
 96  3 24  3 21  0.0000000  0  6G 5G24G16G17G20G 6
 -16679447.68944 -12996962.80844  22095998.6474   22095998.8024
  -2894920.13644  -2255764.67044  23798634.4214   23798634.7244
 -16547180.39544 -12893893.78244  21191407.7474   21191407.5784
 -11228572.44944  -8749529.10544  22886137.9714   22886138.2534
 -21595156.01844 -16827386.80244  20845997.0104   20845997.3064
 -20880183.05244 -16270262.60044  20927464.7004   20927463.7494
 96  3 24  3 21 30.0000000  0  7G23G 5G24G16G17G20G 6
        -0.19754         0.40854  24985062.4274
 -16586928.41544 -12924869.88544  22113604.2594   22113604.5274
  -2816945.10944  -2195004.88144  23813472.9824   23813472.9234
 -16514872.43844 -12868718.73944  21197555.4224   21197555.4544
 -11298991.94644  -8804401.38444  22872737.6034   22872738.8024
 -21545715.44244 -16788861.68844  20855405.2574   20855405.1754
 -20927017.26344 -16306756.77844  20918552.7614   20918552.0944
 96  3 24  3 22  0.0000000  0  7G 5G23G24G16G17G20G 6
 -16494099.44744 -12852535.63844  22131268.7444   22131269.0884
   -107254.13844    -83574.05644  24964652.8794   24964653.6404
  -2738970.79244  -2134245.66844  23828311.0794   23828312.5064
 -16481983.53544 -12843091.01644  21203814.0644   21203813.7694
 -11369216.85244  -8859122.05944  22859374.6944   22859375.1354
 -21495745.67344 -16749924.21444  20864914.0414   20864914.4694
 -20973639.32644 -16343085.64144  20909680.8634   20909680.0634
 96  3 24  3 22 30.0000000  0  7G23G 5G24G16G17G20G 6
   -214458.78044   -167110.06644  24944253.7204
 -16400963.13844 -12779961.90544  22148992.8124   22148992.2734
  -2660986.79844  -2073478.92744  23843151.7904   23843148.6824
 -16448513.66944 -12817010.59344  21210183.4864   21210183.4094
 -11439214.27244  -8913665.45744  22846053.9494   22846054.5404
 -21445236.51644 -16710566.43944  20874525.8634   20874526.1934
 -21020048.12644 -16379248.33244  20900849.0804   20900848.4624
 96  3 24  3 23  0.0000000  0  7G23G 5G24G16G17G20G 6
   -321627.72644   -250618.27944  24923859.8694   24923863.0984
 -16307548.02744 -12707170.92244  22166768.2114   22166768.6894
  -2583029.82444  -2012733.23844  23857986.2934   23857985.0004
 -16414495.62944 -12790503.02244  21216656.9514   21216656.8614
 -11508995.75644  -8968040.60744  22832775.0594   22832775.8204
 -21394207.15344 -16670803.30844  20884236.5174   20884236.8754
 -21066273.35644 -16415267.97744  20892053.1444   20892052.2724
 96  3 24  3 23 30.0000000  0  7G23G 5G24G16G17G20G 6
   -428744.72444   -334086.01244  24903475.7064   24903481.8224
 -16213864.81144 -12634171.02844  22184595.6604   22184595.6194
  -2505105.31344  -1952012.83544  23872813.7604   23872814.8444
 -16379944.43344 -12763580.00344  21223231.4494   21223231.4744
 -11578549.79944  -9022238.53544  22819539.1124   22819540.4354
 -21342657.84044 -16630635.02644  20894046.1094   20894046.2804
 -21112293.23744 -16451127.61444  20883295.7244   20883294.8784
 96  3 24  3 24  0.0000000  0  7G23G 5G24G16G17G20G 6
   -535793.08744   -417500.26744  24883103.7784   24883106.6964
 -16119909.48544 -12560959.10244  22202474.3264   22202474.2024
  -2427199.47944  -1891306.99544  23887638.9844   23887640.8124
 -16344864.21944 -12736244.76544  21229906.9674   21229906.8644
 -11647866.10944  -9076251.20544  22806348.8424   22806350.5524
 -21290573.80244 -16590050.07244  20903957.3274   20903957.2884
 -21158097.81444 -16486819.47044  20874579.4834   20874578.7324
 96  3 24  3 24 30.0000000  0  7G23G 5G24G16G17G20G 6
   -642798.31244   -500880.82644  24862741.6684   24862744.7584
 -16025687.51344 -12487539.41544  22220404.3634   22220404.6684
  -2349322.92844  -1830623.96344  23902458.6274   23902460.1494
 -16309276.54544 -12708514.10444  21236679.2354   21236679.2284
 -11716955.66244  -9130087.17744  22793201.0724   22793203.2044
 -21237973.15544 -16549062.56844  20913966.7764   20913966.8224
 -21203704.82644 -16522357.38244  20865900.9164   20865900.0474
 96  3 24  3 25  0.0000000  0  7G23G 5G24G16G17G20G 6
   -749779.90544   -584243.04044  24842384.6954
 -15931197.10144 -12413910.53244  22238385.4354   22238385.5394
  -2271485.18844  -1769971.17044  23917271.3114   23917271.1584
 -16273170.49344 -12680379.50844  21243550.0204   21243550.3764
 -11785831.66444  -9183756.74944  22780094.4864   22780096.4694
 -21184862.64344 -16507677.76544  20924073.2784   20924073.6804
 -21249090.57844 -16557722.89144  20857263.9484   20857263.3184
 96  3 24  3 25 30.0000000  0  7G20G23G 5G24G 6G16G17
 -21131250.05344 -16465901.73344  20934275.3764   20934275.7384
   -856731.15244   -667581.64544  24822032.5324   24822036.6164
 -15836437.19544 -12340071.67044  22256418.0034   22256418.0244
  -2193681.49344  -1709344.90644  23932076.7374   23932074.5144
 -21294240.55544 -16592904.68444  20848672.3874   20848671.4174
 -16236525.90844 -12651825.27744  21250523.1654   21250523.0844
 -11854491.35944  -9237257.76144  22767029.1154   22767030.6844
 96  3 24  3 26  0.0000000  0  7G23G20G 5G24G 6G16G17
   -963640.16344   -750887.24644  24801688.4014   24801694.4984
 -21077126.10544 -16423727.23844  20944574.9934   20944575.1254
 -15741388.58944 -12266007.84044  22274505.5504   22274505.4474
  -2115893.73044  -1648731.03244  23946879.2364   23946879.9424
 -21339141.75544 -16627892.61944  20840127.7454   20840127.1664
 -16199317.65944 -12622831.82544  21257603.4854   21257603.2474
 -11922911.76544  -9290572.32444  22754009.6154   22754009.9494
 96  3 24  3 26 30.0000000  0  7G23G 5G24G16G17G20G 6
  -1070536.79444   -834183.20544  24781345.2444   24781348.7004
 -15646065.97744 -12191730.49944  22292644.4744   22292644.2324
  -2038143.71244  -1588146.63444  23961674.5794   23961674.7854
 -16161559.50944 -12593409.87944  21264788.4854   21264788.7784
 -11991122.06444  -9343723.17844  22741029.4184   22741030.0714
 -21022526.16544 -16381181.84044  20954964.7664   20954965.1074
 -21383813.91144 -16662702.07244  20831627.0234   20831626.1084
 96  3 24  3 27  0.0000000  0  7G23G 5G24G16G17G20G 6
  -1177387.65744   -917443.59644  24761012.7594   24761015.9334
 -15550460.11044 -12117232.42444  22310837.4664   22310837.7044
  -1960411.80844  -1527576.31044  23976466.6414   23976466.4254
 -16123227.63144 -12563540.87744  21272083.2264   21272082.7284
 -12059116.91344  -9396706.14444  22728090.2544   22728090.7214
 -20967415.63144 -16338238.57744  20965452.0614   20965452.1724
 -21428243.95844 -16697322.87444  20823172.2894   20823171.3554
 96  3 24  3 27 30.0000000  0  7G16G23G 5G24G17G20G 6
 -16084333.60844 -12533233.83344  21279484.5704   21279484.0994
  -1284176.97844  -1000655.92144  24740691.3514   24740694.7574
 -15454575.08044 -12042516.84144  22329083.6044   22329084.0864
  -1882687.10644  -1467011.60944  23991256.1354   23991259.1834
 -12126895.91544  -9449520.91644  22715192.4864   22715194.0944
 -20911793.70744 -16294896.83244  20976036.5924   20976036.8704
 -21472449.02544 -16731768.36744  20814760.2074   20814759.2404
 96  3 24  3 28  0.0000000  0  7G20G23G 5G24G 6G16G17
 -20855689.73844 -16251179.46444  20986712.6484   20986712.9204
  -1390950.64344  -1083856.07744  24720373.0614   24720377.8014
 -15358442.30544 -11967608.20044  22347376.9434   22347377.0554
  -1805003.34544  -1406478.83144  24006038.4384   24006039.5864
 -21516462.67844 -16766064.71044  20806384.8254   20806383.8374
 -16044921.59544 -12502523.16344  21286984.4384   21286984.2264
 -12194498.85544  -9502198.48644  22702327.7444   22702328.2134
 96  3 24  3 28 30.0000000  0  7G20G23G 5G24G 6G16G17
 -20799072.48944 -16207062.13844  20997486.8414   20997486.9614
  -1497700.83844  -1167037.95144  24700057.7504   24700067.9274
 -15262060.76644 -11892505.71244  22365718.3764   22365718.6384
  -1727348.06644  -1345968.20144  24020816.1934   24020815.7144
 -21560274.44144 -16800203.73544  20798047.7754   20798046.6004
 -16004974.66744 -12471395.67944  21294585.8854   21294585.7314
 -12261922.62244  -9554736.45144  22689498.0384   22689498.7634
 96  3 24  3 29  0.0000000  0  7G20G23G 5G24G 6G16G17
 -20741924.07144 -16162530.91444  21008361.8534   21008362.1494
  -1604414.24944  -1250191.16944  24679751.4784   24679754.6394
 -15165432.44244 -11817210.94844  22384105.8854   22384106.4064
  -1649708.57444  -1285469.87044  24035589.9914   24035591.9824
 -21603861.25944 -16834167.47744  20789753.4104   20789752.3134
 -15964479.64444 -12439841.10144  21302292.0084   21302291.5644
 -12329143.35944  -9607116.20844  22676706.4464   22676706.8064
 96  3 24  3 29 30.0000000  0  7G20G23G 5G24G 6G16G17
 -20684254.38844 -16117593.50844  21019335.9664   21019336.3254
  -1711085.56344  -1333311.55244  24659451.7124   24659454.9294
 -15068545.44144 -11741714.59544  22402542.5954   22402542.9264
  -1572068.32844  -1224971.00844  24050364.4274   24050366.4754
 -21647189.20544 -16867929.50244  20781508.2894   20781507.2644
 -15923420.47844 -12407846.93944  21310104.6644   21310104.7794
 -12396134.48944  -9659317.05244  22663958.9644   22663959.3254
 96  3 24  3 30  0.0000000  0  7G20G23G 5G24G 6G16G17
 -20626069.41644 -16072254.57744  21030408.3004   21030408.4774
  -1817714.35444  -1416398.83044  24639162.1554   24639167.7954
 -14971404.99444 -11666020.74744  22421028.1914   22421028.5464
  -1494434.38844  -1164477.00944  24065138.6694   24065135.9904
 -21690255.64944 -16901487.75944  20773313.1324   20773312.0364
 -15881790.12144 -12375407.68944  21318027.0884   21318027.0234
 -12462888.64744  -9711333.25244  22651255.3484   22651255.7904
 96  3 24  3 30 30.0000000  0  7G20G23G 5G24G 6G16G17
 -20567376.80744 -16026520.08744  21041577.1024   21041577.5374
  -1924271.66544  -1499430.38944  24618886.0594   24618890.7644
 -14874020.69544 -11590136.90344  22439559.8904   22439560.3884
  -1416795.60544  -1103979.23544  24079912.9374   24079911.4424
 -21733054.68244 -16934837.64344  20765168.6144   20765167.7204
 -15839593.37644 -12342527.10044  21326056.9764   21326056.9304
 -12529396.34544  -9763157.39344  22638599.0424   22638600.0724
 96  3 24  3 31  0.0000000  0  7G20G23G 5G24G 6G16G17
 -20508210.57544 -15980416.54144  21052835.8974   21052836.3704
  -2030751.88044  -1582401.89044  24598623.0274   24598626.3564
 -14776398.42444 -11514067.63244  22458136.7384   22458137.6044
  -1339165.19644  -1043488.02744  24094685.8474   24094684.8734
 -21775584.65444 -16967977.87244  20757075.1894   20757074.4634
 -15796849.99544 -12309220.56344  21334190.7634   21334190.6404
 -12595662.49844  -9814793.32944  22625989.2604   22625990.6244
 96  3 24  3 31 30.0000000  0  7G20G23G 5G24G 6G16G17
 -20448574.89744 -15933947.19344  21064184.0144   21064184.5824
  -2137146.41644  -1665306.60844  24578376.4364   24578379.9584
 -14678527.86444 -11437804.87244  22476761.0694   22476760.7414
  -1261553.02644   -983011.01144  24109454.9964   24109455.1644
 -21817856.93244 -17000917.29644  20749031.3084   20749030.3684
 -15753576.87844 -12275501.23944  21342425.6094   21342425.5004
 -12661694.52444  -9866246.82344  22613423.5634   22613424.9404
 96  3 24  3 32  0.0000000  0  7G20G23G 5G24G 6G16G17
 -20388459.70644 -15887104.19444  21075623.8064   21075624.3034
  -2243446.13744  -1748137.46844  24558148.7094   24558153.4154
 -14580417.08744 -11361354.93944  22495430.8894   22495430.6414
  -1183968.75744   -922555.73544  24124218.8554   24124221.0494
 -21859885.11844 -17033666.52244  20741033.6684   20741032.4184
 -15709787.60344 -12241379.71444  21350757.9174   21350757.8924
 -12727500.93844  -9917524.51544  22600901.1704   22600901.9214
 96  3 24  3 32 30.0000000  0  7G20G23G 5G24G 6G16G17
 -20327852.96844 -15839878.17544  21087156.9894   21087157.4524
  -2349653.31744  -1830896.17944  24537937.6844   24537939.7844
 -14482064.62144 -11284716.67744  22514146.7114   22514147.1694
  -1106421.46044   -862129.25044  24138973.6464   24138974.0314
 -21901669.25644 -17066225.57744  20733082.4374   20733081.4544
 -15665491.05644 -12206862.91644  21359187.5184   21359187.2464
 -12793099.92244  -9968640.57144  22588417.6694   22588418.1474
 96  3 24  3 33  0.0000000  0  7G20G23G 5G24G 6G16G17
 -20266756.31344 -15792270.40344  21098783.2634   21098783.3344
  -2455793.71944  -1913602.91644  24517739.4184   24517741.3894
 -14383471.27044 -11207890.70144  22532908.4404   22532908.4254
  -1028939.39744   -801753.64144  24153720.1094   24153723.2994
 -21943229.47844 -17098610.15044  20725173.6934   20725173.0824
 -15620696.86044 -12171958.34144  21367711.6844   21367711.5634
 -12858507.90944 -10019607.79844  22575970.6464   22575971.1844
 96  3 24  3 33 30.0000000  0  7G20G23G 5G24G 6G16G17
 -20205160.53244 -15744273.69844  21110504.7584   21110505.1394
  -2561871.22644  -1996260.60144  24497552.9934   24497558.2264
 -14284632.78444 -11130873.71644  22551716.8344   22551717.3534
   -951509.72344   -741418.87244  24168453.5114   24168455.4894
 -21984563.98144 -17130818.84144  20717307.8654   20717307.2504
 -15575402.73044 -12136664.20144  21376330.6284   21376330.5044
 -12923724.51744 -10070425.90144  22563560.1754   22563560.9294
 96  3 24  3 34  0.0000000  0  7G20G23G 5G24G 6G16G17
 -20143064.55844 -15695887.23244  21122320.9864   21122321.3274
  -2667884.01544  -2078867.85044  24477381.2654   24477386.5674
 -14185558.73644 -11053673.16344  22570570.2474   22570571.0244
   -874117.57044   -681113.32644  24183180.3504   24183180.9144
 -22025658.01644 -17162840.15844  20709488.2184   20709487.2084
 -15529601.54844 -12100974.96444  21385046.5244   21385046.1184
 -12988750.27244 -10121095.29644  22551186.6494   22551187.8524
 96  3 24  3 34 30.0000000  0  7G20G23G 5G24G 6G16G17
 -20080470.57544 -15647112.71044  21134232.1544   21134232.5654
  -2773828.89544  -2161422.21944  24457220.3914   24457222.3654
 -14086235.37844 -10976278.37144  22589470.8834   22589471.3034
   -796750.39944   -620827.21344  24197903.4824   24197901.5294
 -22066498.11044 -17194663.59144  20701716.5104   20701715.5424
 -15483292.04744 -12064889.63344  21393858.6314   21393858.5064
 -13053565.27144 -10171600.44844  22538852.7634   22538853.5954
 96  3 24  3 35  0.0000000  0  7G20G23G 5G24G 6G16G17
 -20017404.90244 -15597970.63744  21146233.0784   21146233.5574
  -2879717.67644  -2243932.85944  24437070.2174   24437074.1024
 -13986683.42844 -10898705.44444  22608414.2894   22608414.4354
   -719398.36844   -560552.87544  24212624.2464   24212622.2894
 -22107080.26444 -17226286.03544  20693993.7124   20693993.0904
 -15436481.98244 -12028414.24344  21402766.5874   21402766.2304
 -13118165.77244 -10221938.46544  22526559.7094   22526560.8384
 96  3 24  3 35 30.0000000  0  7G20G23G 5G24G 6G16G17
 -19953862.57944 -15548457.14944  21158325.2564   21158325.4834
  -2985523.10944  -2326378.55044  24416934.8754   24416937.1974
 -13886900.52644 -10820952.55044  22627402.3024   22627402.5994
   -642042.04044   -500275.21644  24227344.7104   24227345.1974
 -22147382.25444 -17257690.16444  20686324.6184   20686323.9374
 -15389154.16244 -11991535.41344  21411772.2864   21411772.7094
 -13182531.80244 -10272093.77944  22514311.1514   22514311.9014
 96  3 24  3 36  0.0000000  0  7G20G23G 5G24G 6G16G17
 -19889835.45544 -15498565.89144  21170508.8744   21170509.2094
  -3091220.64044  -2408740.12844  24396823.3454   24396825.6634
 -13786892.14444 -10743023.96044  22646433.3284   22646433.2684
   -564684.82344   -439996.82244  24242065.7424   24242066.2224
 -22187398.15744 -17288871.37544  20678709.9324   20678708.7564
 -15341295.54644 -11954242.98044  21420879.4314   21420879.4334
 -13246642.88344 -10322050.42644  22502110.9864   22502111.9854
 96  3 24  3 36 30.0000000  0  7G20G23G 5G24G 6G16G17
 -19825349.68244 -15448317.24644  21182780.1804   21182780.5824
  -3196821.70744  -2491026.60044  24376726.7084   24376729.9354
 -13686681.30344 -10664937.61944  22665503.5024   22665504.0054
   -487350.94444   -379736.63844  24256780.8714   24256778.2324
 -22227148.35044 -17319845.53744  20671145.6324   20671144.6694
 -15292916.38944 -11916544.92344  21430085.9524   21430085.9564
 -13310513.13344 -10371819.41244  22489957.1974   22489957.8234
 96  3 24  3 37  0.0000000  0  7G20G23G 5G24G 6G16G17
 -19760410.27144 -15397715.11544  21195137.9384   21195138.0274
  -3302324.77144  -2573236.68644  24356651.5164   24356654.5544
 -13586271.12244 -10586695.94244  22684610.5504   22684610.3544
   -410046.20944   -319499.18644  24271491.5584   24271489.8284
 -22266631.34744 -17350611.49144  20663632.2204   20663631.5904
 -15244006.03244 -11878432.95444  21439392.9884   21439392.8414
 -13374152.19644 -10421408.26344  22477846.7534   22477847.3134
 96  3 24  3 37 30.0000000  0  7G20G23G 5G24G 6G16G17
 -19695016.11844 -15346758.64044  21207582.0654   21207582.1804
  -3407723.44344  -2655365.41644  24336594.4474   24336597.5684
 -13485652.91344 -10508292.14044  22703757.7474   22703757.8574
   -332784.70644   -259295.40344  24286194.2844   24286193.6944
 -22305854.74944 -17381175.16444  20656168.0434   20656167.5314
 -15194570.71344 -11839911.91944  21448800.3374   21448799.7254
 -13437552.77744 -10470811.26444  22465781.9504   22465782.8014
 96  3 24  3 38  0.0000000  0  7G20G23G 5G24G 6G16G17
 -19629169.23044 -15295449.38444  21220112.4974   21220112.6554
  -3513037.11744  -2737427.92144  24316553.4324   24316555.6294
 -13384823.80944 -10429724.03244  22722944.6294   22722945.3884
   -255557.25644   -199118.15744  24300889.0244   24300888.6934
 -22344816.78444 -17411535.17244  20648754.1414   20648753.3984
 -15144624.15744 -11800992.51344  21458305.0624   21458304.6704
 -13500725.36844 -10520036.62844  22453761.0114   22453761.9804
 96  3 24  3 38 30.0000000  0  7G20G23G 5G24G 6G16G17
 -19562875.45244 -15243791.90244  21232727.5634   21232727.8644
  -3618298.76044  -2819449.90844  24296522.5094   24296522.3374
 -13283777.15944 -10350986.40544  22742173.5894   22742173.6904
   -178366.15044   -138969.29344  24315576.7634   24315580.9444
 -22383528.85744 -17441700.40644  20641387.4714   20641386.0334
 -15094186.12544 -11761690.14044  21467903.1924   21467902.7674
 -13563690.09444 -10569100.00844  22441778.9264   22441780.2814
 96  3 24  3 39  0.0000000  0  7G20G23G 5G24G 6G16G17
 -19496123.87644 -15191777.69744  21245430.0114   21245430.1524
  -3723514.38044  -2901436.02744  24276500.5764   24276501.3474
 -13182519.55844 -10272084.41344  22761441.6114   22761442.1264
   -101212.31944    -78849.47044  24330257.7374   24330259.1804
 -22421986.86544 -17471667.67444  20634068.9014   20634067.9944
 -15043274.87744 -11722019.03344  21477590.9184   21477590.6354
 -13626448.62544 -10618002.72044  22429836.2494   22429836.8784
 96  3 24  3 39 30.0000000  0  7G20G23G 5G24G 6G16G17
 -19428895.90244 -15139392.26944  21258223.4254   21258223.6244
  -3828658.42644  -2983366.36244  24256492.1634   24256495.2974
 -13081053.44044 -10193019.91344  22780750.5154   22780751.0864
    -24063.41644    -18733.44444  24344940.0114   24344939.6714
 -22460173.70944 -17501423.64144  20626802.3584   20626801.6634
 -14991877.57644 -11681969.17644  21487371.7514   21487371.3844
 -13688983.87244 -10666731.44544  22417936.0264   22417937.0704
 96  3 24  3 40  0.0000000  0  7G20G23G 5G24G 6G16G17
 -19361207.37144 -15086647.96244  21271103.7754   21271104.0594
  -3933734.15744  -3065243.44944  24236496.9964   24236499.8634
 -12979406.12144 -10113814.23444  22800093.3324   22800093.2154
     53069.43444     41370.06444  24359619.6714   24359619.4034
 -22498099.86244 -17530976.47144  20619585.4064   20619584.7194
 -14940007.72244 -11641551.10244  21497242.1004   21497241.9774
 -13751315.75744 -10715301.71644  22406074.7924   22406076.0944
 96  3 24  3 40 30.0000000  0  7G20G23G 5G24G 6G16G17
 -19293075.59744 -15033558.27544  21284068.8194   21284068.9224
  -4038726.35944  -3147055.49644  24216517.1454   24216517.2054
 -12877607.40044 -10034490.57544  22819465.2344   22819464.7964
    130157.66144    101438.80244  24374288.1394   24374288.7164
 -22535773.74144 -17560332.72144  20612416.0254   20612414.9504
 -14887677.05344 -11600773.95444  21507200.7064   21507200.3004
 -13813453.12144 -10763720.40844  22394250.6744   22394251.3644
 96  3 24  3 41  0.0000000  0  7G20G23G 5G24G 6G16G17
 -19224486.43744 -14980112.18344  21297120.7884   21297121.1564
  -4143571.46544  -3228752.91244  24196565.4274   24196569.5604
 -12775641.76444  -9955036.84844  22838868.6674   22838867.6364
    207219.02244    161486.62644  24388953.8974   24388952.2224
 -22573161.33044 -17589465.89244  20605301.6334   20605300.4244
 -14834854.91444 -11559613.82644  21517252.3644   21517252.2654
 -13875366.70444 -10811964.72344  22382468.5304   22382469.5814
 96  3 24  3 41 30.0000000  0  7G20G23G 5G24G 6G16G17
 -19155444.43144 -14926313.22844  21310258.8564   21310259.1854
  -4248253.34244  -3310323.07944  24176644.6004   24176647.6584
 -12673491.27344  -9875439.08744  22858306.9474   22858307.2804
    284252.89044    221513.00844  24403612.7604   24403610.7474
 -22610257.93644 -17618372.32644  20598242.2114   20598241.4854
 -14781525.30644 -11518058.28344  21527400.1644   21527399.9034
 -13937050.33144 -10860029.86044  22370730.7574   22370731.4094
 96  3 24  3 42  0.0000000  0  7G20G23G 5G24G 6G16G17
 -19085970.39744 -14872177.62644  21323479.3024   21323479.9244
  -4352792.27144  -3391781.94644  24156753.3904   24156754.8534
 -12571165.03444  -9795704.37044  22877779.2994   22877779.8494
    361215.78344    281484.13344  24418257.9154   24418253.6844
 -22647077.11444 -17647062.58044  20591235.9304   20591234.8784
 -14727714.69744 -11476127.93044  21537640.0474   21537639.7384
 -13998529.92544 -10907936.00344  22359032.0404   22359032.4424
 96  3 24  3 42 30.0000000  0  7G20G23G 5G24G 6G16G17
 -19016064.91744 -14817705.83544  21336781.8254   21336782.3894
  -4457194.67844  -3473134.44344  24136886.1934   24136887.2694
 -12468651.78844  -9715823.94044  22897286.0084   22897286.1444
    438107.25944    341399.67044  24432890.3694   24432887.1674
 -22683609.88744 -17675529.66244  20584283.7684   20584282.6264
 -14673415.90344 -11433817.16644  21547972.9634   21547972.5484
 -14059806.94044 -10955684.28844  22347370.9754   22347371.7874
 96  3 24  3 43  0.0000000  0  7G20G23G 5G24G 6G16G17
 -18945747.96844 -14762913.41544  21350162.9144   21350163.3304
  -4561502.25344  -3554412.99344  24117037.1684   24117038.9154
 -12365962.06644  -9635805.99244  22916828.2484   22916828.7054
    514915.40944    401250.18444  24447505.6114   24447509.5654
 -22719870.51644 -17703784.68444  20577383.5624   20577382.6724
 -14618643.07244 -11391137.02644  21558395.7604   21558395.5664
 -14120900.33744 -11003289.50244  22335744.8494   22335745.6474
 96  3 24  3 43 30.0000000  0  7G20G23G 5G24G 6G16G17
 -18875006.40944 -14707790.13144  21363624.8894   21363625.2244
  -4665724.79044  -3635625.26344  24097203.0894   24097204.9424
 -12263091.55144  -9555647.16844  22936403.0544   22936403.1704
    591665.51444    461055.40944  24462108.0274   24462109.5804
 -22755836.27044 -17731809.93144  20570539.5214   20570538.5744
 -14563383.22544 -11348077.39144  21568911.4284   21568911.2284
 -14181792.95744 -11050738.26744  22324157.4144   22324157.8704
 96  3 24  3 44  0.0000000  0  7G20G23G 5G24G 6G16G17
 -18803821.46244 -14652321.34644  21377170.6464   21377170.9424
  -4769846.77344  -3716759.21644  24077388.8214   24077390.9344
 -12160031.46944  -9475340.63544  22956014.8304   22956015.4914
    668385.51844    520837.20344  24476707.4664   24476710.6424
 -22791486.09144 -17759589.00144  20563755.6504   20563754.5104
 -14507625.01744 -11304629.42144  21579521.8704   21579521.9774
 -14242455.98144 -11098008.11244  22312613.9334   22312614.3124
 96  3 24  3 44 30.0000000  0  7G20G23G 5G24G 6G16G17
 -18732194.02944 -14596507.76444  21390800.9394   21390800.9924
  -4873873.43844  -3797818.88844  24057593.1364   24057593.5734
 -12056787.95944  -9394891.17244  22975661.8724   22975661.6844
    745090.40444    580607.19444  24491306.5704   24491308.0424
 -22826835.80944 -17787134.22144  20557028.5344   20557027.8404
 -14451368.79544 -11260793.39744  21590226.8844   21590226.5364
 -14302877.43544 -11145089.73344  22301115.7174   22301116.2744
 96  3 24  3 45  0.0000000  0  8G20G23G 5G26G24G 6G16G17
 -18660106.74444 -14540335.85644  21404518.7354   21404519.0764
  -4977776.98844  -3878782.62344  24037822.5504   24037824.2514
 -11953361.96244  -9314299.51544  22995343.0334   22995342.9444
         0.11354                  24072229.0904
    821801.79944    640382.30544  24505904.5334   24505904.5644
 -22861884.27544 -17814444.70144  20550359.1834   20550358.1224
 -14394614.91244 -11216569.57744  21601026.8314   21601026.7004
 -14363042.31244 -11191971.41344  22289666.8944   22289667.2174
 96  3 24  3 45 30.0000000  0  7G20G23G 5G24G 6G16G17
 -18587561.79444 -14483807.32944  21418323.6044   21418324.0474
  -5081542.57444  -3959638.86344  24018076.1364   24018077.7404
 -11849754.30644  -9233566.28244  23015059.1764   23015060.1774
    898525.81244    700167.19944  24520505.2644   24520506.6694
 -22896642.34744 -17841528.89944  20543745.1244   20543744.1404
 -14337370.25444 -11171963.34644  21611920.2714   21611920.0434
 -14422938.96144 -11238644.08144  22278268.9754   22278269.4784
 96  3 24  3 46  0.0000000  0  7G20G23G 5G24G 6G16G17
 -18514590.55144 -14426946.62544  21432209.6414   21432210.0014
  -5185191.78644  -4040404.45044  23998351.9144   23998352.8524
 -11745990.11644  -9152711.07644  23034804.5704   23034805.1244
    975222.92844    759931.17544  24535100.3494   24535097.6684
 -22931146.61844 -17868415.33444  20537179.1114   20537177.9514
 -14279675.25044 -11127006.18844  21622899.2314   21622899.5144
 -14482601.40544 -11285134.26144  22266916.0064   22266916.4074
 96  3 24  3 46 30.0000000  0  8G20G23G 5G26G24G 6G16G17
 -18441183.48344 -14369746.32044  21446178.3344   21446178.8474
  -5288695.28144  -4121056.47144  23978655.8244   23978659.1434
 -11642055.32244  -9071722.95044  23054582.2844   23054582.9594
        -1.05254                  24027338.7554
   1051904.91544    819683.38544  24549692.4034   24549691.3704
 -22965369.65444 -17895082.62044  20530666.6654   20530665.6884
 -14221510.67644 -11081683.13044  21633967.5504   21633967.5224
 -14542026.53744 -11331439.51844  22255607.2534   22255607.6534
 96  3 24  3 47  0.0000000  0  8G20G23G 5G26G24G 6G16G17
 -18367380.79044 -14312237.73844  21460222.4184   21460223.1204
  -5392066.09344  -4201605.09844  23958984.0614   23958985.8984
 -11537971.33844  -8990618.58444  23074389.3054   23074389.8964
    -78462.76944                  24012408.6994
   1128536.63644    879396.45144  24564273.7924   24564272.5234
 -22999303.69644 -17921524.71744  20524209.1624   20524208.2964
 -14162897.48544 -11036010.51444  21645121.3874   21645121.1864
 -14601247.87644 -11377585.97844  22244337.6934   22244338.2714
 96  3 24  3 47 30.0000000  0  8G20G23G 5G26G24G 6G16G17
 -18293188.94144 -14254425.91544  21474341.1154   21474341.5984
  -5495299.24144  -4282046.46244  23939339.7844   23939340.8744
 -11433731.74544  -8909392.94544  23094225.8344   23094226.6544
   -156830.36344                  23997495.9224
   1205110.57044    939064.50544  24578846.2404   24578841.1344
 -23032919.48744 -17947718.82944  20517812.2234   20517811.3974
 -14103818.27144 -10989974.75644  21656363.8024   21656363.5784
 -14660271.04544 -11423578.02144  22233106.8114   22233106.7554
 96  3 24  3 48  0.0000000  0  8G20G23G 5G26G24G 6G16G17
 -18218619.86944 -14196320.14944  21488531.1064   21488530.9904
  -5598397.43044  -4362382.68244  23919721.7614   23919722.5974
 -11329352.35744  -8828058.37344  23114088.5554   23114088.8864
   -235125.60244                  23982596.2874
   1281602.02644                  24593401.8504
 -23066220.34644 -17973667.53844  20511475.1294   20511474.3694
 -14044282.49044 -10943583.22744  21667692.6654   21667692.6024
 -14719134.50544 -11469445.61544  22221904.6044   22221905.6224
 96  3 24  3 48 30.0000000  0  7G20G23G 5G26G 6G16G17
 -18143653.14844 -14137904.52844  21502796.5834   21502797.0294
  -5701345.61144  -4442602.00144  23900130.8684   23900134.8144
 -11224822.11044  -8746606.24944  23133979.6424   23133979.9904
   -313343.19144                  23967712.6534
 -23099183.41944 -17999353.04044  20505202.6234   20505201.7374
 -13984257.89544 -10896810.80044  21679115.0234   21679115.3454
 -14777821.34244 -11515175.57844  22210737.3134   22210737.6534
 96  3 24  3 49  0.0000000  0  7G20G23G 5G26G 6G16G17
 -18068258.51344 -14079155.46144  21517143.6684   21517143.6834
  -5804136.27244  -4522698.58344  23880570.0474   23880571.2694
 -11120115.92944  -8665017.04844  23153904.9214   23153905.4534
   -391467.11944                  23952847.3424
 -23131797.79844 -18024766.82744  20498996.5194   20498995.5614
 -13923723.67744 -10849641.27644  21690634.5704   21690634.7414
 -14836302.01144 -11560744.87344  22199608.6304   22199608.9804
 96  3 24  3 49 30.0000000  0  7G20G23G 5G26G 6G16G17
 -17992459.56644 -14020091.34844  21531567.5834   21531567.7474
  -5906812.48244  -4602705.94444  23861031.6754   23861034.9814
 -11015283.51844  -8583329.47744  23173853.6164   23173854.4884
   -469543.32644                  23937988.7014
 -23164121.81044 -18049954.35744  20492845.4164   20492844.4724
 -13862732.55044 -10802115.70544  21702240.9894   21702240.7994
 -14894610.03244 -11606179.65444  22188512.7904   22188513.4514
 96  3 24  3 50  0.0000000  0  7G20G23G 5G26G 6G16G17
 -17916245.73344 -13960703.94944  21546071.0174   21546071.3634
  -6009357.84344  -4682611.39044  23841517.9284   23841517.7404
 -10910310.67144  -8501532.45644  23193829.9934   23193831.1734
   -547555.19844                  23923143.7544
 -23196155.03844 -18074915.30344  20486749.5644   20486748.5994
 -13801288.58844 -10754237.28444  21713933.1814   21713933.2754
 -14952704.81244 -11651448.26544  22177457.8124   22177458.2934
 96  3 24  3 50 30.0000000  0  7G20G23G 5G26G 6G16G17
 -17839606.64244 -13900985.18444  21560654.8124   21560655.2164
  -6111757.59844  -4762403.36144  23822032.0394   23822032.3214
 -10805187.44344  -8419618.28644  23213833.1634   23213834.0724
   -625454.70744                  23908319.8914
 -23227877.92044 -18099634.42344  20480712.8374   20480711.8344
 -13739395.88244 -10706009.19244  21725711.1084   21725710.9904
 -15010550.56044 -11696522.82744  22166449.9834   22166450.4274
 96  3 24  3 51  0.0000000  0  7G20G23G 5G26G 6G16G17
 -17762559.47344 -13840948.43744  21575316.7224   21575316.9194
  -6213995.05644  -4842068.87144  23802577.1084   23802579.6444
 -10699915.92044  -8337588.56544  23233866.0164   23233866.6294
   -703225.87744                  23893521.0044
 -23259300.88244 -18124119.83544  20474733.2374   20474732.2274
 -13677087.21644 -10657456.97844  21737568.0084   21737567.7834
 -15068153.32844 -11741408.05344  22155488.6594   22155489.3264
 96  3 24  3 51 30.0000000  0  7G20G23G 5G26G 6G16G17
 -17685111.86244 -13780599.64944  21590054.2474   21590054.7414
  -6316044.76544  -4921588.06744  23783156.3944   23783157.9904
 -10594496.99344  -8255443.97344  23253927.7524   23253928.4574
   -780840.04144                  23878751.4074
 -23290403.67044 -18148355.76544  20468814.5844   20468813.2994
 -13614361.58144 -10608579.85544  21749504.6224   21749503.9134
 -15125507.03044 -11786099.20244  22144574.3974   22144575.7834
 96  3 24  3 52  0.0000000  0  7G20G23G 5G26G 6G16G17
 -17607267.64544 -13719941.82344  21604867.1954   21604867.6434
  -6417902.25544  -5000957.50444  23763774.8624   23763775.3244
 -10488927.75844  -8173182.25144  23274015.8634   23274016.6654
   -858279.65144                  23864018.2854
 -23321173.22944 -18172332.03344  20462959.2944   20462958.3284
 -13551208.86144 -10559369.93044  21761521.5554   21761521.1934
 -15182607.28944 -11830592.85944  22133708.4354   22133709.5874
 96  3 24  3 52 30.0000000  0  7G20G23G 5G26G 6G16G17
 -17529040.96144 -13658985.97344  21619753.3714   21619753.8394
  -6519594.02344  -5080197.79444  23744422.6184   23744423.1694
 -10383226.98844  -8090818.02044  23294130.4434   23294131.4904
   -935566.16044                  23849307.1724
 -23351623.73044 -18196059.68444  20457164.7544   20457163.7924
 -13487637.43644 -10509833.74244  21773618.9174   21773618.5514
 -15239484.89644 -11874913.02144  22122884.9844   22122885.3624
 96  3 24  3 53  0.0000000  0  6G20G23G 5G 6G16G17
 -17450431.19144 -13597731.60944  21634712.3634   21634712.5974
  -6621125.84144  -5159313.44444  23725101.7514   23725102.3214
 -10277397.21244  -8008353.26744  23314268.6594   23314268.9594
 -23381751.91344 -18219536.18044  20451431.7144   20451430.8374
 -13423622.13444 -10459951.67544  21785800.9034   21785800.6484
 -15296140.20344 -11919059.96144  22112104.1034   22112104.7964
 96  3 24  3 53 30.0000000  0  7G20G23G 5G26G 6G16G17
 -17371416.04744 -13536161.37044  21649748.8744   21649748.9534
  -6722503.01444  -5238308.60144  23705809.8744   23705809.3614
 -10171437.04744  -7925786.92244  23334432.7844   23334433.4274
        -0.49854                  23819971.2784
 -23411532.32244 -18242741.68344  20445764.6764   20445763.4034
 -13359128.04044 -10409696.52644  21798073.4604   21798072.9714
 -15352555.96844 -11963020.24644  22101368.3534   22101368.8464
 96  3 24  3 54  0.0000000  0  7G20G23G 5G26G 6G16G17
 -17292017.29644 -13474292.21544  21664857.8174   21664858.1074
  -6823746.54244  -5317199.61944  23686544.9994   23686546.0814
 -10065366.60244  -7843134.65044  23354617.2164   23354617.5254
    -76909.93844                  23805336.2024
 -23440993.31644 -18265698.29144  20440158.2284   20440157.3964
 -13294178.89944 -10359086.79344  21810432.8614   21810432.5294
 -15408768.15844 -12006821.90244  22090671.1734   22090671.6624
 96  3 24  3 54 30.0000000  0  7G20G23G 5G26G 6G16G17
 -17212240.82744 -13412128.72644  21680038.7024   21680039.0754
  -6924859.84044  -5395989.13344  23667303.2784   23667305.1414
  -9959191.24444  -7760400.65044  23374821.5824   23374822.3244
   -153725.02844                  23790718.1804
 -23470142.13644 -18288411.64244  20434611.4464   20434610.6824
 -13228788.38044 -10308133.12944  21822876.5824   21822876.0394
 -15464788.07144 -12050473.73044  22080011.4264   22080011.6494
 96  3 24  3 55  0.0000000  0  7G20G23G 5G26G 6G16G17
 -17132084.58444 -13349669.31744  21695291.2344   21695291.7494
  -7025825.13944  -5474663.32544  23648090.2454   23648091.5094
  -9852916.38244  -7677589.11344  23395045.5764   23395045.9404
   -230421.04244                  23776124.3694
 -23498969.15644 -18310874.24644  20429125.9314   20429124.8154
 -13162957.46144 -10256836.30344  21835403.0834   21835403.1264
 -15520618.77344 -12093978.11844  22069386.8124   22069387.2224
 96  3 24  3 55 30.0000000  0  7G20G23G 5G26G 6G16G17
 -17051531.72844 -13286900.85844  21710620.1134   21710620.9114
  -7126604.78244  -5553192.86444  23628912.5104   23628912.7194
  -9746518.45244  -7594681.63944  23415291.7294   23415292.6074
   -306964.34944                  23761556.2894
 -23527452.18144 -18333068.80444  20423705.7264   20423704.5694
 -13096671.86344 -10205185.17044  21848016.6484   21848016.6024
 -15576236.65644 -12137316.66344  22058802.7344   22058803.6364
 96  3 24  3 56  0.0000000  0  7G20G23G 5G26G 6G16G17
 -16970591.40844 -13223830.48444  21726022.7354   21726023.3364
  -7227189.51944  -5631570.53944  23609772.1584   23609775.0534
  -9640000.15344  -7511680.37044  23435561.2934   23435562.3284
   -383355.21844                  23747020.4154
 -23555601.42144 -18355003.26344  20418348.9554   20418348.0454
 -13029953.60344 -10153196.90244  21860713.2684   21860713.0054
 -15631632.85544 -12180482.48644  22048261.4274   22048261.9814
 96  3 24  3 56 30.0000000  0  7G20G23G 5G26G 6G16G17
 -16889266.24044 -13160460.22944  21741498.6124   21741498.9544
  -7327584.04644  -5709799.97344  23590665.8564   23590668.4194
  -9533367.03644  -7428589.63344  23455853.6024   23455853.9184
   -459568.84444                  23732517.8434
 -23583413.34144 -18376674.87844  20413056.7954   20413055.4054
 -12962801.37444 -10100870.48044  21873491.6044   21873491.6774
 -15686781.31544 -12223455.25444  22037767.3474   22037767.4894
 96  3 24  3 57  0.0000000  0  7G20G23G 5G26G 6G16G17
 -16807595.13544 -13096820.40944  21757040.3064   21757040.5254
  -7427806.40744  -5787895.24644  23571594.7114   23571595.8564
  -9426655.26144  -7345437.60444  23476159.7804   23476159.7874
   -535639.04144                  23718042.3854
 -23610921.79544 -18398110.02944  20407821.8324   20407820.8204
 -12895241.63544 -10048226.52044  21886347.8564   21886347.4324
 -15741710.28244 -12266256.99644  22027314.2014   22027315.0004
 96  3 24  3 57 30.0000000  0  7G20G23G 5G26G 6G16G17
 -16725557.67944 -13032895.11944  21772651.5644   21772651.6764
  -7527830.66644  -5865836.15644  23552561.3714   23552562.2614
  -9319830.95844  -7262197.92544  23496488.2544   23496488.8604
   -611549.50744                  23703598.2024
 -23638103.24444 -18419290.36744  20402649.6164   20402648.5834
 -12827264.42944  -9995257.25044  21899283.8214   21899283.5764
 -15796383.28244 -12308859.27644  22016910.6504   22016911.1844
 96  3 24  3 58  0.0000000  0  7G20G23G 5G26G 6G16G17
 -16643174.15944 -12968700.17044  21788328.3384   21788328.4864
  -7627669.08444  -5943632.27844  23533563.4234   23533564.2294
  -9212914.64144  -7178886.54344  23516833.5014   23516834.6864
   -687303.83944                  23689180.4204
 -23664967.84044 -18440223.80944  20397537.2484   20397536.2854
 -12758903.53244  -9941989.00944  21912292.7644   21912292.9044
 -15850827.92644 -12351283.61844  22006549.9014   22006550.1154
 96  3 24  3 58 30.0000000  0  7G20G23G 5G26G 6G16G17
 -16560461.48044 -12904248.73044  21804067.8674   21804067.6764
  -7727326.49944  -6021287.32744  23514598.4214   23514599.1354
  -9105911.44344  -7095507.45344  23537195.9624   23537194.8404
   -762897.69744                  23674797.2504
 -23691513.19044 -18460908.48644  20392485.8584   20392484.8214
 -12690152.25744  -9888416.57844  21925375.1634   21925374.8304
 -15905071.67044 -12393551.42044  21996227.2844   21996228.3364
 96  3 24  3 59  0.0000000  0  8G20G23G 5G26G22G 6G16G17
 -16477421.57344 -12839542.31244  21819870.1744   21819870.3634
  -7826796.82844  -6098796.62744  23495670.6124   23495670.3844
  -8998833.41944  -7012070.05344  23557572.0374   23557573.3664
   -838330.23644   -653243.24644  23660443.1714
        -0.90754        -0.00554  24877016.4084
 -23717738.78044 -18481344.00044  20387495.4724   20387494.0814
 -12621016.71644  -9834544.71844  21938531.6184   21938531.0664
 -15959126.26844 -12435671.83744  21985941.5174   21985941.9104
 96  3 24  3 59 30.0000000  0  8G20G23G 5G26G22G 6G16G17
 -16394067.88044 -12774591.38544  21835731.4814   21835731.6334
  -7926092.35744  -6176169.71344  23476775.4464   23476775.8594
  -8891676.28244  -6928571.01544  23577963.0454   23577964.6144
   -913596.96944                  23646119.6194
    -82112.29944                  24861391.3334
 -23743635.95844 -18501523.60644  20382567.3424   20382566.4364
 -12551495.25844  -9780372.14344  21951760.8224   21951760.2744
 -16012997.63744 -12477649.47944  21975689.6864   21975690.1684
 96  3 24  4  0  0.0000000  0  7G20G23G 5G26G 6G16G17
 -16310400.08344 -12709395.70044  21851652.7144   21851653.3994
  -8025220.67644  -6253412.47844  23457911.5814   23457913.1174
  -8784449.87644  -6845017.99044  23598367.7224   23598368.1854
   -988698.32344                  23631826.7944
 -23769201.15744 -18521444.52644  20377702.3954   20377701.2794
 -12481575.83944  -9725889.47344  21965065.8254   21965066.0714
 -16066694.92744 -12519491.47444  21965471.8274   21965472.0894
 96  3 24  4  0 30.0000000  0  7G20G23G 5G26G 6G16G17
 -16226424.36244 -12643960.08044  21867633.2764   21867634.1504
  -8124214.04744  -6330550.09244  23439073.3604   23439074.2454
  -8677164.20044  -6761418.77344  23618782.8914   23618784.8474
  -1063651.40744                  23617564.5954
 -23794449.42844 -18541118.49644  20372897.7484   20372896.7034
 -12411261.48744  -9671099.06444  21978446.6894   21978446.2074
 -16120217.50644 -12561197.33544  21955286.9874   21955287.0604
 96  3 24  4  1  0.0000000  0  8G20G23G 5G26G22G 6G16G17
 -16142109.66244 -12578260.31744  21883677.6044   21883678.2684
  -8223047.55144  -6407563.14144  23420264.4024   23420267.5284
  -8569800.66444  -6677758.88144  23639213.8584   23639216.9404
  -1138446.27944   -887099.75144  23603332.1984
        -0.41654                  24814818.5694
 -23819362.84144 -18560531.53744  20368156.9554   20368155.9944
 -12340535.70744  -9615988.04744  21991905.4514   21991905.1254
 -16173541.86844 -12602748.73744  21945139.9124   21945139.9904
 96  3 24  4  1 30.0000000  0  8G20G23G 5G26G22G 6G16G17
 -16057444.78044 -12512287.68344  21899789.1984   21899789.6924
  -8321722.22744  -6484452.42144  23401487.5754   23401488.5324
  -8462347.90044  -6594029.49444  23659661.0314   23659662.3904
  -1213083.93444   -945258.88044  23589127.8444
    -80958.81444    -63082.95644  24799413.6264
 -23843930.56244 -18579675.20244  20363481.6794   20363480.8634
 -12269410.27044  -9560565.62444  22005439.5074   22005439.2404
 -16226664.28744 -12644142.78344  21935030.1024   21935030.6514
 96  3 24  4  2  0.0000000  0  8G20G23G 5G26G22G 6G16G17
 -15972407.34044 -12446024.74544  21915971.3194   21915971.6594
  -8420226.28644  -6561208.76944  23382743.4624   23382744.8374
  -8354824.93644  -6510245.38044  23680122.1594   23680124.4464
  -1287560.27544  -1003292.42444  23574956.5294   23574954.2194
   -161579.17744   -125903.89444  24784071.2644
 -23868155.66244 -18598551.89144  20358871.9414   20358870.7904
 -12197899.10744  -9504842.63244  22019047.8154   22019047.5014
 -16279571.57344 -12685369.19544  21924962.1524   21924962.4584
 96  3 24  4  2 30.0000000  0  8G20G23G 5G26G22G 6G16G17
 -15886992.89844 -12379468.03944  21932225.3324   21932225.2104
  -8518535.78344  -6637813.48744  23364036.0434   23364036.7964
  -8247229.33944  -6426404.68644  23700596.9334   23700598.7254
  -1361863.42344  -1061190.90044  23560817.1404   23560815.7684
   -241850.97344                  24768795.9104
 -23892029.07544 -18617154.54144  20354328.9154   20354327.9114
 -12125994.54544  -9448813.09844  22032731.1404   22032731.1724
 -16332250.83244 -12726417.92144  21914937.7904   21914938.2664
 96  3 24  4  3  0.0000000  0  8G20G23G 5G26G22G 6G16G17
 -15801210.71844 -12312624.78044  21948548.8274   21948548.9724
  -8616628.56944  -6714249.37344  23345369.0364   23345369.9544
  -8139575.46244  -6342518.56344  23721083.2954   23721085.4724
  -1435986.45544  -1118949.07544  23546711.2974   23546712.6774
   -321788.19144   -250741.87744  24753583.8184
 -23915545.89044 -18635479.31944  20349853.7864   20349852.7784
 -12053701.10744  -9392480.54944  22046487.6344   22046487.0814
 -16384704.46944 -12767290.84144  21904955.9804   21904956.5614
 96  3 24  4  3 30.0000000  0  8G20G23G 5G26G22G 6G16G17
 -15715064.26344 -12245497.67044  21964941.8434   21964941.7244
  -8714481.21944  -6790498.11444  23326746.8394   23326748.4174
  -8031855.76944  -6258581.15944  23741580.3144   23741582.1794
  -1509894.56744  -1176539.77144  23532646.6354   23532647.1974
   -401386.55944                  24738435.2744
 -23938674.85044 -18653501.87344  20345452.5084   20345451.5464
 -11981005.09344  -9335834.28844  22060321.3804   22060321.0184
 -16436907.77644 -12807968.70044  21895022.4684   21895022.9674
 96  3 24  4  4  0.0000000  0  8G20G23G 5G26G22G 6G16G17
 -15628576.71244 -12178104.76844  21981399.7694   21981399.3884
  -8812084.19444  -6866552.28344  23308174.9754   23308176.6464
  -7924076.91144  -6174597.65444  23762090.3904   23762091.2114
  -1583573.90344  -1233952.21444  23518626.7674   23518625.5954
   -480637.40144                  24723354.7264
 -23961407.32944 -18671215.48644  20341126.6914   20341125.7464
 -11907888.76344  -9278860.51044  22074234.6084   22074234.2344
 -16488872.67344 -12848460.78144  21885134.0414   21885133.7094
 96  3 24  4  4 30.0000000  0  8G20G23G 5G26G22G 6G16G17
 -15541790.37344 -12110479.05044  21997914.8304   21997915.1664
  -8909449.12244  -6942421.01144  23289646.1874   23289647.2754
  -7816233.63244  -6090563.94544  23782613.2284   23782614.4304
  -1657028.01944  -1291189.15144  23504648.3854   23504648.3304
   -559544.79344   -436006.79244  24708335.7314   24708336.6474
 -23983739.73344 -18688617.35144  20336877.0354   20336875.9914
 -11834355.69844  -9221562.01144  22088227.6334   22088227.2744
 -16540623.63244 -12888786.14844  21875285.5664   21875285.8254
 96  3 24  4  5  0.0000000  0  8G20G23G 5G26G22G 6G16G17
 -15454705.60744 -12042620.79144  22014486.3884   22014487.1524
  -9006577.76444  -7018105.59344  23271163.9024   23271164.8894
  -7708317.84844  -6006473.74844  23803148.4664   23803150.9204
  -1730245.04844  -1348241.33344  23490716.3704   23490715.9894
   -638106.46544   -497223.58744  24693384.9394
 -24005657.68144 -18705696.26044  20332706.1334   20332705.0654
 -11760411.19844  -9163942.92344  22102298.8544   22102298.5444
 -16592166.04444 -12928949.02044  21865477.4194   21865477.6774
 96  3 24  4  5 30.0000000  0  8G20G23G 5G26G22G 6G16G17
 -15367323.29444 -11974530.68244  22031114.1464   22031115.2434
  -9103479.98944  -7093613.74044  23252724.3164   23252726.3114
  -7600311.16544  -5922312.72144  23823701.5054   23823702.2164
  -1803234.06144  -1405115.87244  23476827.5674   23476824.3734
   -716315.14244                  24678504.4814
 -24027158.62644 -18722450.23144  20328614.5594   20328613.3934
 -11686067.67344  -9106012.89044  22116446.0924   22116446.4244
 -16643504.19544 -12968952.72944  21855708.0934   21855708.6034
 96  3 24  4  6  0.0000000  0  8G20G23G 5G26G22G 6G16G17
 -15279674.19144 -11906232.68144  22047793.7394   22047794.9994
  -9200205.15144  -7168983.92244  23234317.4384   23234318.9734
  -7492249.36944  -5838108.73644  23844264.8554   23844265.9484
  -1876054.62244  -1461859.10944  23462969.7844   23462966.4004
   -794207.66844                  24663681.5904
 -24048301.72444 -18738925.36444  20324591.1854   20324589.9974
 -11611383.12244  -9047817.12344  22130657.7404   22130657.7934
 -16694679.02244 -13008829.17444  21845969.6874   21845970.0144
 96  3 24  4  6 30.0000000  0  8G20G23G 5G26G22G 6G16G17
 -15191713.81444 -11837692.13444  22064532.3954   22064532.8274
  -9296721.60244  -7244191.47744  23215951.7214   23215952.1894
  -7384097.50544  -5753834.58144  23864846.2614   23864846.6704
  -1948679.52644  -1518449.90744  23449149.4184   23449150.4044
   -871766.12744                  24648921.6384
 -24069075.28644 -18755112.55144  20320638.2004   20320637.1394
 -11536342.99044  -8989344.28144  22144937.7674   22144937.2414
 -16745645.58544 -13048543.33544  21836271.5244   21836271.2694
 96  3 24  4  7  0.0000000  0  8G20G23G 5G26G22G 6G16G17
 -15103420.42344 -11768892.09444  22081333.9254   22081334.2334
  -9393020.07544  -7319229.18944  23197627.0274   23197627.1174
  -7275858.39344  -5669492.42244  23885443.2064   23885444.4944
  -2021098.05344  -1574879.86444  23435368.3154   23435368.0174
   -948989.10644                  24634230.0704
 -24089495.07844 -18771024.06244  20316752.3864   20316751.4554
 -11460958.32444  -8930602.97344  22159283.0554   22159282.8924
 -16796388.16644 -13088082.96844  21826615.1464   21826614.8744
 96  3 24  4  7 30.0000000  0  8G20G23G 5G26G22G 6G16G17
 -15014773.94544 -11699816.91444  22098202.8644   22098202.9444
  -9489066.77444  -7394070.69244  23179349.0534   23179349.6604
  -7167517.31044  -5585070.83544  23906060.2694   23906062.3114
  -2093281.23044  -1631126.43144  23421631.9204   23421630.8674
  -1025838.85344                  24619603.8784
 -24109558.67344 -18786658.02744  20312934.4264   20312932.9684
 -11385202.06644  -8871572.12144  22173698.7214   22173698.6854
 -16846873.00344 -13127421.76244  21817008.4174   21817008.3044
 96  3 24  4  8  0.0000000  0  8G20G23G 5G26G22G 6G16G17
 -14925769.55044 -11630462.82944  22115139.6534   22115139.7034
  -9584849.64044  -7468706.63044  23161122.8884   23161123.5174
  -7059092.62444  -5500584.10844  23926692.6134   23926691.2844
  -2165201.56344  -1687168.23044  23407946.2224   23407944.5894
  -1102312.12244                  24605051.4594
 -24129267.46244 -18802015.52044  20309183.9744   20309182.9924
 -11309050.96344  -8812233.59344  22188190.1124   22188189.5114
 -16897095.78844 -13166556.35544  21807451.2914   21807451.6924
 96  3 24  4  8 30.0000000  0  8G20G23G 5G26G22G 6G16G17
 -14836451.05344 -11560864.00044  22132136.3644   22132136.4694
  -9680400.87144  -7543162.06344  23142940.2764   23142940.5794
  -6950632.75144  -5416069.92144  23947331.2924   23947331.5004
  -2236865.27044  -1743010.07244  23394309.3614   23394307.1804
  -1178443.48544                  24590563.1604
 -24148637.08844 -18817108.72144  20305497.9714   20305497.0634
 -11232525.89744  -8752603.66444  22202752.2584   22202752.1954
 -16947093.29444 -13205515.40844  21797936.8524   21797937.1774
 96  3 24  4  9  0.0000000  0  8G20G23G 5G26G22G 6G16G17
 -14746833.11844 -11491031.84544  22149189.7574   22149190.3364
  -9775729.68344  -7617444.17844  23124799.1524   23124800.0144
  -6842167.88144  -5331551.87144  23967971.7354   23967972.5234
  -2308288.40344  -1798664.40944  23380718.1904   23380717.1054
  -1254228.27144   -977318.10344  24576142.9254
 -24167659.68144 -18831931.51344  20301878.2024   20301876.9044
 -11155628.83144  -8692683.86944  22217385.3014   22217384.6854
 -16996873.69344 -13244305.29344  21788463.8304   21788463.6784
 96  3 24  4  9 30.0000000  0  2G20G23
 -14656945.73444 -11420989.75444  22166306.5214   22166306.8694
  -9870853.54644  -7691566.59744  23106703.2784   23106703.2474
 96  3 24  4 10  0.0000000  0  3G23G 5G16
  -9966379.71544                  23088629.5524
        -0.75354         0.21554  24009236.8734   24009238.5584
        -1.04154        -1.20954  22246855.5074   22246854.7384
 96  3 24  4 10 30.0000000  0  5G 5G26G22G16G17
    108429.92644     84491.65244  24029869.4294   24029870.2644
        -0.76454        -0.92054  23340201.9704   23340200.1714
        -0.58354                  24533252.7944
     77986.68144     60768.45644  22261695.8164   22261695.6604
        -0.69254         0.15554  21760285.9914   21760286.3484
 96  3 24  4 11  0.0000000  0  5G 5G26G22G16G17
    216859.40544    168982.10044  24050501.6064
    -70525.08044    -54954.92144  23326779.6474   23326779.3984
    -74466.27144                  24519082.4324
    156321.59644    121808.65644  22276601.9894   22276601.7274
    -48899.06044    -38102.43344  21750980.8934   21750980.9244
 96  3 24  4 11 30.0000000  0  8G20G23G 5G26G22G 6G16G17
        -0.76654         0.14954  22235209.0774   22235209.3744
        -0.73954         0.19954  23034710.0754   23034710.7824
    325272.76044                  24071131.2134
   -140853.32344   -109756.10644  23313397.6164   23313395.3744
   -148628.23444   -115812.96044  24504971.5034
         0.05454         0.55654  20284868.0784   20284866.7914
    234969.05344    183092.39344  22291568.2314   22291568.2984
    -97621.73844    -76068.10944  21741709.4274   21741708.7824
 96  3 24  4 12  0.0000000  0  8G20G23G 5G26G22G 6G16G17
     91109.18244     70994.91744  22252546.4354   22252546.8064
    -94072.49944    -73302.39744  23016809.3564   23016809.6434
    433658.76544                  24091758.8704
   -211021.33144   -164432.43744  23300044.7964   23300042.7094
   -222502.35044                  24490909.9424
    -16783.68844    -13077.67744  20281674.0584   20281672.9534
    313891.04944    244590.05344  22306586.9144   22306586.6664
   -146214.14644   -113932.27744  21732462.3064   21732462.4374
 96  3 24  4 12 30.0000000  0  8G20G23G 5G26G22G 6G16G17
    182459.59544    142177.05644  22269929.9304   22269930.4224
   -187966.59944   -146466.57444  22998941.7504   22998942.1124
    542023.77244                  24112378.2004
   -281020.01744   -218976.83644  23286724.5504   23286723.2684
   -296070.82444                  24476912.3104
    -33249.80544    -25908.41344  20278540.5494   20278539.4324
    393106.50244    306316.38944  22321661.2064   22321660.9104
   -194679.91944   -151697.77044  21723239.2914   21723239.5484
 96  3 24  4 13  0.0000000  0  8G20G23G 5G26G22G 6G16G17
    274114.25144    213596.26344  22287371.4054   22287371.8264
   -281611.63444   -219436.67044  22981122.0144   22981121.7764
    650435.38344                  24133010.3374
   -350764.79144   -273323.39444  23273452.2814   23273450.8544
   -369243.78244                  24462988.4824
    -49341.41744    -38447.32244  20275478.1644   20275476.9874
    472673.97144    368317.02744  22336801.8684   22336801.7024
   -242959.32144   -189318.04544  21714051.9654   21714051.9554
 96  3 24  4 13 30.0000000  0  8G20G23G 5G26G22G 6G16G17
    366077.48644    285255.92844  22304871.0564   22304870.7634
   -375007.91344   -292212.93844  22963349.7964   22963349.2574
    758899.85944                  24153650.9964
   -420243.09844   -327462.29544  23260231.0964   23260229.9144
   -442013.82544   -344424.93944  24449140.2404
    -65047.48444    -50685.80944  20272489.6364   20272488.5924
    552578.93644    430580.64044  22352007.5794   22352007.6104
   -291047.00144   -226788.92444  21704901.0914   21704901.0314
 96  3 24  4 14  0.0000000  0  8G20G23G 5G26G22G 6G16G17
    458359.94744    357164.34044  22322432.2784   22322432.2254
   -468154.70544   -364794.79344  22945623.4964   22945623.5334
    867416.23144                  24174297.3794
   -489445.66944   -381386.35444  23247062.1984   23247062.5084
   -514369.28344   -400805.82144  24435369.0404
    -80357.83244    -62615.94244  20269576.1564   20269575.2554
    632825.79644    493110.66344  22367278.0604   22367278.1764
   -338906.61444   -264082.08144  21695793.6584   21695793.5024
 96  3 24  4 14 30.0000000  0  8G20G23G 5G26G22G 6G16G17
    550940.57944    429305.09144  22340049.5674   22340049.9084
   -561050.12844   -437180.78044  22927946.2934   22927946.9324
    975973.15844                  24194955.4744
   -558349.06944   -435077.27944  23233951.0174   23233949.7794
   -586306.16644                  24421679.8064
    -95261.67944    -74229.32144  20266740.1084   20266738.9754
    713419.99444    555911.34044  22382614.8944   22382614.4394
   -386518.52244   -301182.23044  21686733.8454   21686733.3014
 96  3 24  4 15  0.0000000  0  7G20G23G26G22G 6G16G17
    643778.47244    501646.30844  22357715.9774   22357716.6644
   -653704.13044   -509378.65044  22910314.0354   22910315.0234
   -626949.43344   -488532.07944  23220896.6104   23220895.3844
   -657830.77444                  24408067.6984
   -109756.96944    -85524.34444  20263981.9454   20263980.7614
    794344.58844    618969.47244  22398014.2874   22398013.7874
   -433890.85844   -338095.70144  21677718.6364   21677718.4234
 96  3 24  4 15 30.0000000  0  7G20G23G26G22G 6G16G17
    736855.87744    574174.15444  22375428.2424   22375428.7954
   -746135.09344   -581402.70644  22892725.0554   22892726.5284
   -695267.51444   -541766.91944  23207896.3334   23207895.4494
   -728973.44644                  24394531.4174
   -123842.35144    -96499.96144  20261301.4064   20261300.4294
    875592.35044    682279.43244  22413474.6824   22413474.7974
   -481025.83344   -374824.21644  21668749.6414   21668749.4354
 96  3 24  4 16  0.0000000  0  7G20G23G26G22G 6G16G17
    830168.15944    646885.03144  22393184.7794   22393185.2444
   -838326.23744   -653239.90944  22875181.6104   22875182.0744
   -763298.33344   -594777.92344  23194950.2094   23194948.8054
   -799744.02744                  24381061.7824
   -137520.30644   -107158.09944  20258698.5884   20258697.4914
    957171.92844    745847.93144  22428999.2424   22428998.8424
   -527930.38244   -411373.17444  21659824.0864   21659823.8154
 96  3 24  4 16 30.0000000  0  7G20G23G26G22G 6G16G17
    923721.71544    719783.90344  22410987.1064   22410988.2334
   -930244.71544   -724864.63544  22857689.4624   22857691.0294
   -831033.48544   -647558.52844  23182059.8844   23182059.3354
   -870134.08044   -678024.91444  24367671.6404
   -150779.84644   -117490.20344  20256175.3654   20256174.3294
   1039099.58944    809687.66044  22444589.6444   22444588.9954
   -574627.71644   -447760.67044  21650937.4324   21650937.7064
 96  3 24  4 17  0.0000000  0  7G20G23G26G22G 6G16G17
   1017507.25644    792863.52944  22428833.9974   22428835.1714
  -1021888.89544   -796275.61544  22840251.1964   22840251.7394
   -898508.80944   -700136.66244  23169219.8874   23169219.3664
   -940166.89344                  24354341.9314
   -163656.59244   -127524.02644  20253724.9974   20253723.6654
   1121343.84044    873774.09844  22460239.8564   22460238.7864
   -621145.84144   -484008.52544  21642085.2424   21642085.6814
 96  3 24  4 17 30.0000000  0  7G20G23G26G22G 6G16G17
   1111540.51444    866136.19344  22446728.4724   22446729.0554
  -1113238.03144   -867456.71344  22822868.2824   22822868.0154
   -965733.13144   -752519.21544  23156427.2594   23156425.4594
  -1009843.78244   -786889.51244  24341082.9994
   -176145.18344   -137255.38744  20251348.4554   20251347.2584
   1203899.22044    938102.96444  22475948.9664   22475949.5954
   -667472.46444   -520107.16044  21633269.8224   21633270.0704
 96  3 24  4 18  0.0000000  0  7G20G23G26G22G 6G16G17
   1205823.81444    939603.70644  22464669.6054   22464669.4384
  -1204277.65344   -938396.63044  22805544.4774   22805543.8154
  -1032698.36044   -804699.87744  23143684.5274   23143684.1574
  -1079143.44044   -840889.26044  24327895.7894
   -188237.62044   -146678.05944  20249047.2374   20249046.2074
   1286776.08444   1002682.34044  22491720.2744   22491719.9204
   -713599.91044   -556050.59244  21624491.8644   21624491.5544
 96  3 24  4 18 30.0000000  0  7G20G23G26G22G 6G16G17
   1300350.04044   1013260.51044  22482657.1464   22482658.1124
  -1295029.26144  -1009112.11944  22788274.6344   22788274.2494
  -1099414.12744   -856686.16544  23130988.5634   23130988.0964
  -1148058.66244   -894589.39344  24314781.4864
   -199928.29644   -155787.67144  20246822.5524   20246821.3614
   1369956.88544   1067498.55244  22507549.4284   22507549.2904
   -759525.00244   -591836.34144  21615752.5704   21615752.4154
 96  3 24  4 19  0.0000000  0  7G20G23G26G22G 6G16G17
   1395111.14244   1087100.33544  22500689.6384   22500689.7434
  -1385512.22044  -1079618.26344  22771055.5784   22771056.0194
  -1165877.31344   -908475.63444  23118341.0674   23118340.7154
  -1216592.26844   -947992.17444  24301739.0924   24301739.6054
   -211203.35844   -164573.42744  20244677.0484   20244675.7314
   1453420.65644   1132535.26144  22523432.2544   22523432.0344
   -805233.96144   -627453.68444  21607054.1634   21607054.5204
 96  3 24  4 19 30.0000000  0  7G20G23G26G22G 6G16G17
   1490115.78944   1161129.93844  22518768.7144   22518768.8594
  -1475722.58444  -1149911.99244  22753888.8944   22753890.0774
  -1232053.78344   -960041.67744  23105748.3404   23105746.6924
  -1284723.45544  -1001081.37244  24288774.9024   24288771.4874
   -222037.67844   -173015.74744  20242615.4064   20242614.3734
   1537194.30744   1197813.43144  22539373.6324   22539373.7134
   -850720.63244   -662897.80944  21598398.4124   21598398.6394
 96  3 24  4 20  0.0000000  0  7G20G23G26G22G 6G16G17
   1585357.04144   1235343.89944  22536892.0634   22536893.0374
  -1565670.57344  -1220001.27444  22736771.7314   22736772.8294
  -1297915.64944  -1011362.57944  23093215.6374   23093214.1854
  -1352442.90744  -1053849.73544  24275885.9504
   -232438.52944   -181120.29644  20240636.1464   20240635.0594
   1621286.53044   1263339.83644  22555375.3904   22555374.8164
   -895996.60944   -698177.75844  21589782.5964   21589782.7364
 96  3 24  4 20 30.0000000  0  7G20G23G26G22G 6G16G17
   1680822.67644   1309732.69244  22555058.9204   22555059.3904
  -1655372.93144  -1289899.16044  22719701.9174   22719702.7264
  -1363465.08544  -1062440.03544  23080741.6194   23080740.3644
  -1419768.63244                  24263075.7164
   -242423.96944   -188901.15744  20238735.9994   20238734.9124
   1705673.72844   1329096.10144  22571433.9964   22571433.6834
   -941082.65544   -733309.71144  21581203.0714   21581202.9284
 96  3 24  4 21  0.0000000  0  7G20G23G26G22G 6G16G17
   1776518.29244   1384300.69844  22573269.2664   22573269.4844
  -1744805.05444  -1359586.46544  22702684.1784   22702684.7764
  -1428683.41244  -1113259.46244  23068330.8854   23068331.1944
  -1486685.44644  -1158454.26044  24250341.0204
   -251995.97244   -196359.85544  20236914.7294   20236913.7204
   1790369.24744   1395092.61044  22587551.6104   22587551.1324
   -985974.75244   -768290.53444  21572660.4724   21572660.1394
 96  3 24  4 21 30.0000000  0  7G20G23G26G22G 6G16G17
   1872454.99744   1459056.56344  22591525.1414   22591525.4244
  -1833955.18344  -1429054.04744  22685719.7164   22685719.4614
  -1493549.44044  -1163804.38544  23055987.6784   23055987.9994
  -1553175.33244                  24237689.2974
   -261148.10044   -203491.37944  20235172.9044   20235171.6544
   1875397.14044   1461348.11244  22603732.0044   22603731.4134
  -1030654.16344   -803105.63444  21564158.3544   21564157.9704
 96  3 24  4 22  0.0000000  0  7G17G20G23G26G22G 6G16
  -1075104.01544   -837741.85544  21555699.6324   21555699.7974
   1968631.31944   1533999.15444  22609827.1184   22609827.0484
  -1922835.20944  -1498311.17044  22668806.3544   22668805.8994
  -1558080.29744  -1214088.14944  23043707.2484   23043706.1184
  -1619241.19744  -1261744.50544  24225117.2374   24225116.2614
   -269877.15944   -210293.23644  20233512.0354   20233510.5814
   1960736.63344   1527846.42544  22619971.6474   22619969.9234
 96  3 24  4 22 30.0000000  0  7G17G20G23G26G22G 6G16
  -1119332.00844   -872205.20244  21547283.3784   21547283.0404
   2065032.16444   1609116.70144  22628172.0344   22628171.8324
  -2011458.60944  -1567368.31644  22651941.8954   22651942.4414
  -1622307.47944  -1264135.26844  23031485.3724   23031485.0474
  -1684904.34044  -1312910.54444  24212622.5834   24212624.1114
   -278196.99244   -216776.21944  20231928.5604   20231927.2704
   2046358.52644   1594564.77744  22636263.9364   22636263.6194
 96  3 24  4 23  0.0000000  0  7G17G20G23G26G22G 6G16
  -1163330.18644   -906489.46844  21538910.6174   21538910.5914
   2161653.34344   1684405.93844  22646558.3994   22646558.3374
  -2099819.37744  -1636220.80844  22635127.1234   22635127.1314
  -1686229.48444  -1313944.59844  23019321.5684   23019321.0064
  -1750157.14044  -1363756.80044  24200205.2594   24200204.7664
   -286102.04744   -222935.99644  20230424.1244   20230422.9654
   2132268.42944   1661507.53944  22652612.1854   22652611.8314
 96  3 24  4 23 30.0000000  0  7G17G20G23G26G22G 6G16
  -1207097.38244   -940593.75444  21530581.9934   21530582.3374
   2258473.97444   1759850.58244  22664982.2234   22664982.3534
  -2187936.64444  -1704883.56944  22618358.6814   22618359.0214
  -1749857.20444  -1363524.61044  23007214.0564   23007212.4864
  -1815018.04544  -1414297.74444  24187862.9054   24187859.5004
   -293595.02144   -228774.67544  20228998.3964   20228997.3454
   2218451.94944   1728663.54444  22669013.1714   22669012.8274
 96  3 24  4 24  0.0000000  0  7G17G20G23G26G22G 6G16
  -1250644.11244   -974526.24544  21522295.4744   21522295.7004
   2355489.54444   1835447.12544  22683443.5544   22683444.1194
  -2275789.07544  -1773339.95744  22601640.3544   22601641.1874
  -1813188.59944  -1412873.71744  22995162.4584   22995161.6274
  -1879478.83244  -1464526.86644  24175595.9964   24175593.9364
   -300671.39344   -234288.72444  20227651.8934   20227650.6214
   2304905.67244   1796030.08744  22685464.5364   22685463.7154
 96  3 24  4 24 30.0000000  0  7G20G23G26G22G 6G16G17
   2452688.72144   1911186.73744  22701939.8794   22701940.5534
  -2363348.68944  -1841568.18044  22584977.9054   22584978.6444
  -1876205.88044  -1461978.07344  22983169.8734   22983169.6954
  -1943533.97544  -1514439.98144  24163406.6214   24163403.5164
   -307329.04744   -239476.50544  20226384.9344   20226383.8324
   2391643.31344   1863617.85744  22701969.7474   22701969.3734
  -1293989.21544  -1008301.62944  21514047.3074   21514047.2354
 96  3 24  4 25  0.0000000  0  7G20G23G26G22G 6G16G17
   2550076.48544   1987073.30244  22720472.7394   22720472.9024
  -2450606.63044  -1909561.32944  22568373.7834   22568375.0024
  -1938887.95444  -1510821.21644  22971242.5124   22971242.1414
  -2007163.77144  -1564021.66544  24151297.8464   24151297.7584
   -313555.50344   -244328.28344  20225200.0834   20225199.0644
   2478678.16244   1931437.22644  22718531.7964   22718532.1244
  -1337140.62344  -1041926.08044  21505835.7224   21505835.4134
 96  3 24  4 25 30.0000000  0  7G20G23G26G22G 6G16G17
   2647655.04944   2063108.54144  22739041.7884   22739041.9594
  -2537561.21544  -1977318.09544  22551827.1064   22551827.7324
  -2001221.17744  -1559392.53644  22959380.1984   22959380.7134
  -2070364.14044  -1613268.62744  24139271.7654   24139272.6874
   -319351.42944   -248844.58644  20224096.9924   20224095.6004
   2566000.07944   1999480.27844  22735148.4654   22735149.1794
  -1380109.36344  -1075408.19444  21497659.1034   21497658.5804
 96  3 24  4 26  0.0000000  0  7G17G20G23G26G22G 6G16
  -1422911.97344  -1108760.85144  21489514.0114   21489513.5364
   2745444.57444   2139308.16844  22757649.6594   22757650.6224
  -2624202.69944  -2044830.89644  22535339.6534   22535340.1644
  -2063194.49344  -1607683.40744  22947587.6064   22947587.0824
  -2133122.61744  -1662171.31544  24127329.3414   24127328.8394
   -324716.93844   -253025.49944  20223076.1204   20223074.7154
   2653617.86644   2067753.87744  22751821.6374   22751821.1884
 96  3 24  4 26 30.0000000  0  7G20G23G26G22G 6G16G17
   2843428.99144   2215659.67044  22776295.6964   22776296.3334
  -2710567.01544  -2112127.71844  22518905.2944   22518905.9244
  -2124831.97344  -1655712.57744  22935857.8334   22935857.0354
  -2195468.01644  -1710752.12444  24115464.7964   24115465.8574
   -329679.86044   -256892.70944  20222131.6194   20222130.5004
   2741503.59144   2136236.25944  22768546.2604   22768546.1934
  -1465560.37944  -1141993.35244  21481398.0324   21481398.0774
 96  3 24  4 27  0.0000000  0  7G20G23G26G22G 6G16G17
   2941617.28444   2292170.02144  22794980.0434   22794980.2824
  -2796661.32144  -2179214.14244  22502522.6034   22502522.5464
  -2186125.03444  -1703473.38144  22924194.3564   22924193.7244
  -2257398.71844  -1759009.79744  24103680.2464   24103680.9244
   -334225.14344   -260434.48744  20221266.7204   20221265.6174
   2829655.87744   2204926.35344  22785321.0354   22785321.0044
  -1508031.68544  -1175087.85044  21473315.9454   21473315.9844
 96  3 24  4 27 30.0000000  0  7G20G23G26G22G 6G16G17
   3039999.54344   2368831.51844  22813701.4934   22813702.0684
  -2882469.89244  -2246077.92044  22486193.8764   22486193.6144
  -2247084.90744  -1750974.54044  22912594.0644   22912593.4674
  -2318929.97844  -1806956.19144  24091971.0834   24091970.0794
   -338352.22144   -263650.38944  20220481.6684   20220480.3144
   2918071.08444   2273821.30244  22802145.8254   22802145.3784
  -1550312.21244  -1208033.69244  21465270.0734   21465270.0134
 96  3 24  4 28  0.0000000  0  7G20G23G26G22G 6G16G17
   3138558.46544   2445630.67444  22832457.1694   22832456.8184
  -2967994.45844  -2312720.39544  22469918.7354   22469918.3144
  -2307732.58444  -1798232.44344  22901053.2984   22901051.7944
  -2380066.43044  -1854594.94244  24080338.3004   24080338.9104
   -342067.19544   -266545.16744  20219774.4504   20219773.3384
   3006748.45344   2342920.54844  22819020.2994   22819019.7554
  -1592394.69844  -1240825.21244  21457262.0194   21457261.9194
 96  3 24  4 28 30.0000000  0  7G20G23G26G22G 6G16G17
   3237266.67844   2522546.17844  22851240.9184   22851241.3384
  -3053237.39944  -2379143.42844  22453697.3354   22453697.2074
  -2368071.08244  -1845249.43044  22889570.7564   22889570.6234
  -2440817.81844  -1901933.66444  24068777.3504   24068776.4634
   -345369.70444   -269118.54944  20219146.0964   20219144.8224
   3095668.40944   2412208.82544  22835941.2374   22835941.4984
  -1634266.92144  -1273452.89344  21449293.8444   21449294.1584
 96  3 24  4 29  0.0000000  0  7G20G23G26G22G 6G16G17
   3336131.92344   2599584.03044  22870054.1454   22870054.7054
  -3138179.16044  -2445331.77344  22437533.0044   22437533.2754
  -2428082.45744  -1892011.50444  22878151.4894   22878150.6234
  -2501162.81444  -1948955.73844  24057293.7084   24057292.3594
   -348249.61744   -271362.63544  20218598.2424   20218597.1634
   3184831.52444   2481686.58844  22852908.8494   22852909.1054
  -1675927.62144  -1305915.75944  21441365.8674   21441365.9314
 96  3 24  4 29 30.0000000  0  7G20G23G26G22G 6G16G17
   3435156.67144   2676746.16844  22888897.5634   22888898.0724
  -3222825.00044  -2511289.52844  22421424.8724   22421425.4034
  -2487765.71744  -1938517.91444  22866793.5184   22866793.2094
  -2561078.99744  -1995643.65744  24045892.2064   24045892.9144
   -350720.07344   -273287.66744  20218127.7804   20218126.8104
   3274228.57444   2551346.62844  22869920.1514   22869920.6724
  -1717376.02144  -1338213.19544  21433479.0814   21433478.3854
 96  3 24  4 30  0.0000000  0  7G20G23G26G22G 6G16G17
   3534351.40444   2754040.76544  22907774.0094   22907774.5944
  -3307178.26644  -2577019.30744  22405372.8694   22405374.1684
  -2547098.56544  -1984751.26844  22855503.3614   22855502.9594
  -2620552.14544  -2041986.40244  24034573.8284   24034575.2224
   -352769.17944   -274884.37044  20217738.0314   20217736.6864
   3363847.23544   2621179.35444  22886974.5444   22886974.2264
  -1758602.73144  -1370337.87844  21425634.0644   21425633.5904
 96  3 24  4 30 30.0000000  0  7G20G23G26G22G 6G16G17
   3633741.33144   2831487.46144  22926687.3684   22926688.3724
  -3391209.89544  -2642498.44244  22389381.7574   22389382.7164
  -2606043.09344  -2030682.05644  22844286.7004   22844285.9224
  -2679562.52344  -2087968.71344  24023344.4764   24023343.8714
   -354368.34444   -276130.47044  20217433.6474   20217432.2854
   3453698.94944   2691193.67244  22904072.1854   22904071.4064
  -1799597.45944  -1402281.79944  21417833.0414   21417832.5954
 96  3 24  4 31  0.0000000  0  7G20G23G26G22G 6G16G17
   3733319.23444   2909080.63644  22945636.3974   22945636.4354
  -3474923.16844  -2707729.51944  22373452.4724   22373452.8464
  -2664617.03844  -2076324.06444  22833140.3634   22833138.2254
  -2738114.28144  -2133593.07344  24012202.8854   24012202.9374
   -355527.02044   -277033.33444  20217213.2094   20217211.9614
   3543781.09344   2761387.56544  22921214.9074   22921213.9234
  -1840387.88844  -1434066.52544  21410070.8834   21410070.5334
 96  3 24  4 31 30.0000000  0  7G20G23G26G22G 6G16G17
   3833052.09644   2986794.54444  22964615.0124   22964615.5114
  -3558326.59244  -2772719.16544  22357582.0734   22357581.9884
  -2722838.22944  -2121691.21944  22822061.6884   22822060.2764
  -2796229.03644  -2178877.31544  24001142.7574   24001140.5444
   -356247.43144   -277594.69544  20217076.0174   20217074.8144
   3634093.90844   2831761.18544  22938400.2614   22938399.3244
  -1880984.21944  -1465700.00544  21402345.7554   21402345.2204
 96  3 24  4 32  0.0000000  0  7G20G23G26G22G 6G16G17
   3932927.38444   3064619.45044  22983621.0854   22983621.5114
  -3641398.99144  -2837450.86944  22341774.4944   22341773.6404
  -2780701.64444  -2166779.58044  22811050.2174   22811049.1754
  -2853922.30744  -2223833.10844  23990164.3384   23990162.2154
   -356519.62344   -277806.79144  20217024.2784   20217023.0994
   3724640.00444   2902316.58744  22955631.0684   22955629.9634
  -1921395.64544  -1497189.40244  21394655.3204   21394655.1654
 96  3 24  4 32 30.0000000  0  7G20G23G26G22G 6G16G17
   4032937.24544   3142549.19744  23002651.6784   23002651.7464
  -3724145.40944  -2901928.56944  22326028.1954   22326027.7504
  -2838208.95244  -2211590.45244  22800106.7994   22800106.4864
  -2911185.87644  -2268454.06144  23979268.0794   23979268.8034
   -356344.98144   -277670.70744  20217057.3054   20217056.2024
   3815433.86244   2973065.05844  22972908.7214   22972907.6984
  -1961635.36344  -1528545.00344  21386997.6034   21386997.5594
 96  3 24  4 33  0.0000000  0  7G20G23G26G22G 6G16G17
   4133074.41944   3220578.17544  23021707.2464   23021707.3044
  -3806571.41744  -2966156.58844  22310342.1584   22310342.6224
  -2895357.96844  -2256122.14444  22789231.8064   22789231.2534
  -2968012.88844  -2312734.84144  23968453.8684   23968452.2954
   -355709.00144   -277175.13944  20217178.5344   20217177.5494
   3906482.11044   3044011.74744  22990234.0544   22990234.3034
  -2001691.32244  -1559757.41944  21379375.5014   21379375.3804
 96  3 24  4 33 30.0000000  0  7G20G23G26G22G 6G16G17
   4233329.38044   3298698.91644  23040784.3184   23040786.3874
  -3888692.15344  -3030146.73744  22294715.2244   22294715.4044
  -2952138.53544  -2300366.72044  22778426.9174   22778426.2264
  -3024406.90744  -2356678.23144  23957721.6614   23957720.6464
   -354615.16844   -276322.80144  20217386.6484   20217385.5704
   3997766.42044   3115142.38244  23007605.5694   23007604.8574
  -2041546.42744  -1590813.31944  21371791.1414   21371791.4064
 96  3 24  4 34  0.0000000  0  7G20G23G26G22G 6G16G17
   4333733.49544   3376935.87844  23059891.6724   23059892.3154
  -3970492.25144  -3093887.03244  22279149.3364   22279149.7594
  -3008520.66544  -2344300.83244  22767697.9304   22767696.7414
  -3080350.52944  -2400270.63644  23947076.1714   23947076.7544
   -353049.21944   -275102.58444  20217684.7854   20217683.4114
   4089284.70244   3186455.33344  23025020.4234   23025020.3444
  -2081190.00944  -1621704.39944  21364247.2274   21364247.1574
 96  3 24  4 34 30.0000000  0  7G20G23G26G22G 6G16G17
   4434298.34644   3455298.08744  23079028.5294   23079028.3504
  -4051972.71844  -3157378.27044  22263644.0174   22263644.0524
  -3064497.13444  -2387918.83644  22757045.6104   22757044.9824
  -3135822.92044  -2443495.86744  23936520.1054   23936519.8164
   -351001.44844   -273506.91944  20218074.3614   20218073.4384
   4181047.65144   3257958.90244  23042482.1734   23042482.4404
  -2120607.34444  -1652419.18444  21356746.4784   21356746.4964
 96  3 24  4 35  0.0000000  0  7G20G23G26G22G 6G16G17
   4535027.72444   3533788.51344  23098196.9144   23098196.4624
  -4133122.05944  -3220611.49144  22248201.2464   22248201.6044
  -3120075.84344  -2431226.89944  22746469.0274   22746468.4784
  -3190826.50244  -2486355.78544  23926053.5844   23926053.1624
   -348473.33944   -271536.96844  20218555.5044   20218554.2134
   4273037.83844   3329639.57744  23059987.6544   23059986.9074
  -2159782.61244  -1682945.34544  21349291.8874   21349291.5854
 96  3 24  4 35 30.0000000  0  7G20G23G26G22G 6G16G17
   4635924.58644   3612409.44744  23117396.4364   23117396.8994
  -4213942.28644  -3283588.25444  22232821.8734   22232822.2194
  -3175258.25244  -2474226.16744  22735968.2104   22735967.5714
  -3245361.07144  -2528850.23744  23915675.8844   23915675.6774
   -345487.96244   -269210.70244  20219123.5124   20219122.4534
   4365244.38044   3401488.85244  23077533.7014   23077533.0194
  -2198730.01244  -1713293.94644  21341880.3444   21341879.9924
 96  3 24  4 36  0.0000000  0  7G20G23G26G22G 6G16G17
   4736975.14244   3691150.13144  23136625.5654   23136625.4754
  -4294438.32844  -3346312.40944  22217503.7654   22217504.1454
  -3230058.95244  -2516927.99144  22725540.4024   22725539.2714
  -3299429.42644  -2570981.41044  23905387.3554   23905386.8974
   -342057.22844   -266537.40644  20219776.4364   20219775.1774
   4457666.77444   3473506.30644  23095120.9314   23095120.3844
  -2237478.22644  -1743487.33844  21334506.8964   21334506.5344
 96  3 24  4 36 30.0000000  0  7G20G23G26G22G 6G16G17
   4838174.21144   3770006.55344  23155883.2604   23155883.7384
  -4374619.15944  -3408790.93944  22202245.8444   22202246.2924
  -3284481.93244  -2559335.49144  22715183.2644   22715182.8234
  -3353020.60144  -2612740.75144  23895189.2394   23895188.6164
   -338184.66744   -263519.82544  20220513.2924   20220512.1824
   4550319.90744   3545703.53644  23112752.1784   23112751.5024
  -2276026.10644  -1773524.62744  21327171.3794   21327171.0014
 96  3 24  4 37  0.0000000  0  7G20G23G26G22G 6G16G17
   4939515.53144   3848973.80344  23175167.7244   23175168.3114
  -4454485.19344  -3471024.18244  22187048.0694   22187048.3814
  -3338510.92244  -2601435.97944  22704902.8494   22704901.6664
  -3406135.16844  -2654128.70744  23885081.2384   23885080.6144
   -333869.96044   -260157.71844  20221334.3964   20221333.4454
   4643208.50244   3618084.27344  23130428.4494   23130428.1124
  -2314384.75844  -1803414.47244  21319872.0034   21319871.7794
 96  3 24  4 37 30.0000000  0  7G20G23G26G22G 6G16G17
   5040976.06844   3928033.96344  23194474.8784   23194474.6044
  -4534050.85844  -3533023.37444  22171908.0484   22171907.3164
  -3392132.57844  -2643219.06844  22694697.9714   22694698.0614
  -3458787.94144  -2695156.81744  23875063.3714   23875061.6884
   -329127.08244   -256461.97344  20222236.8914   20222235.7184
   4736334.80344   3690650.22644  23148150.1084   23148149.5894
  -2352582.51544  -1833178.94044  21312602.9434   21312602.9094
 96  3 24  4 38  0.0000000  0  7G20G23G26G22G 6G16G17
   5142539.22144   4007174.07444  23213802.0244   23213802.6024
  -4613325.88844  -3594796.09744  22156821.9494   22156821.4004
  -3445356.94244  -2684692.57844  22684570.5274   22684568.5154
  -3511008.31244  -2735847.97144  23865126.8904   23865125.6064
   -323955.37944   -252432.07344  20223220.9414   20223220.0444
   4829681.41544   3763387.83844  23165913.4484   23165912.6664
  -2390627.22144  -1862824.15144  21305363.3244   21305363.3324
 96  3 24  4 38 30.0000000  0  7G20G23G26G22G 6G16G17
   5244192.43444   4086384.37444  23233146.6884   23233146.0394
  -4692317.29944  -3656347.82344  22141789.9954   22141789.6244
  -3498188.13944  -2725859.71944  22674516.2514   22674514.6484
  -3562817.83444  -2776219.00144  23855267.2974   23855264.1954
   -318358.28044   -248070.69844  20224286.2884   20224284.9704
   4923220.73544   3836275.61844  23183713.1314   23183712.7234
  -2428510.33444  -1892343.44744  21298154.4334   21298154.3524
 96  3 24  4 39  0.0000000  0  7G20G23G26G22G 6G16G17
   5345958.25544   4165682.42144  23252511.0164   23252510.9744
  -4770977.48844  -3717641.44944  22126821.6564   22126821.3074
  -3550601.98544  -2766701.64944  22664542.8814   22664541.9464
  -3614198.29444  -2816255.72144  23845489.6074   23845487.3804
   -312302.74944   -243352.10344  20225438.4524   20225437.4004
   5016966.46944   3909324.24744  23201551.8344   23201551.4494
  -2466194.22044  -1921707.50244  21290983.4654   21290983.3484
 96  3 24  4 39 30.0000000  0  7G20G23G26G22G 6G16G17
   5447843.06944   4245073.19444  23271898.7244   23271899.3684
  -4849292.93244  -3778666.44544  22111918.9604   22111918.1814
  -3602615.76844  -2807231.85844  22654645.1634   22654644.4694
  -3665153.49844  -2855961.05644  23835792.7504   23835790.7154
   -305782.40744   -238271.31944  20226679.2754   20226678.0664
   5110905.18544   3982523.25344  23219427.9374   23219428.2874
  -2503669.96944  -1950909.37244  21283852.0574   21283851.7944
 96  3 24  4 40  0.0000000  0  7G20G23G26G22G 6G16G17
   5549828.80444   4324542.57744  23291307.0234   23291308.4754
  -4927270.33344  -3839428.02844  22097079.9454   22097080.0404
  -3654254.03744  -2847469.45444  22644818.0324   22644817.3324
  -3715680.92044  -2895333.06444  23826178.1514   23826176.2094
   -298802.98044   -232832.80544  20228007.3494   20228006.1884
   5205022.68144   4055861.57644  23237337.6924   23237338.3044
  -2540938.56744  -1979949.82444  21276760.1264   21276759.9604
 96  3 24  4 40 30.0000000  0  7G20G23G26G22G 6G16G17
   5651946.51744   4404114.83444  23310739.1044   23310739.3714
  -5004854.49644  -3899883.18944  22082316.2244   22082316.2754
  -3705464.66344  -2887373.82544  22635073.5454   22635073.0394
  -3765704.56244  -2934312.54144  23816658.8514   23816657.4634
   -291334.68544   -227013.35644  20229428.5324   20229427.5034
   5299366.39344   4129376.15044  23255291.0304   23255290.1784
  -2577959.69844  -2008797.44544  21269714.9854   21269714.6974
 96  3 24  4 41  0.0000000  0  8G20G23G21G26G22G 6G16G17
   5754151.42044   4483755.02144  23330188.0014   23330188.2444
  -5082086.11144  -3960063.64844  22067619.2664   22067619.1244
         0.04854                  25586619.2364
  -3756287.45644  -2926975.98144  22625402.0314   22625400.3404
  -3815253.40444  -2972922.00744  23807229.6524   23807229.2734
   -283418.99444   -220845.28844  20230934.7894   20230933.7454
   5393903.57644   4203041.49644  23273281.7344   23273280.3134
  -2614796.80044  -2037501.66144  21262705.3004   21262704.9274
 96  3 24  4 41 30.0000000  0  7G20G23G26G22G 6G16G17
   5856418.16044   4563443.37644  23349648.2674   23349648.0224
  -5158987.00244  -4019986.39444  22052985.4434   22052985.5024
  -3806714.92344  -2966270.10044  22615806.1894   22615805.7564
  -3864328.78344  -3011162.56644  23797892.0834   23797889.7984
   -275077.12944   -214345.13644  20232522.3554   20232521.1954
   5488618.46644   4276845.32044  23291305.1064   23291304.6024
  -2651459.19244  -2066069.74444  21255728.7114   21255728.3994
 96  3 24  4 42  0.0000000  0  7G20G23G26G22G 6G16G17
   5958752.28044   4643184.24844  23369122.1644   23369122.4294
  -5235551.04744  -4079646.66344  22038416.0994   22038416.5354
  -3856710.08944  -3005227.35444  22606292.2504   22606291.8574
  -3912905.69144  -3049014.67944  23788647.6204   23788647.1884
   -266302.99644   -207508.15344  20234191.8294   20234190.7714
   5583519.03144   4350793.80444  23309363.6974   23309364.4164
  -2687923.26344  -2094483.28744  21248789.7514   21248789.2014
 96  3 24  4 42 30.0000000  0  7G20G23G26G22G 6G16G17
   6061176.25544   4722995.13444  23388612.5104   23388612.6564
  -5311777.38044  -4139043.78444  22023910.2664   22023910.2984
  -3906265.47244  -3043841.94344  22596862.4134   22596861.0164
  -3960988.42144  -3086481.73644  23779497.9854   23779498.3184
   -257079.61144   -200321.10044  20235946.9924   20235946.0724
   5678593.01144   4424877.42744  23327455.4424   23327455.9474
  -2724183.97944  -2122738.37444  21241889.4954   21241889.0364
 96  3 24  4 43  0.0000000  0  7G20G23G26G22G 6G16G17
   6163696.40244   4802880.95244  23408121.2054   23408121.6824
  -5387671.58744  -4198182.10544  22009468.1974   22009468.1234
  -3955391.35644  -3082121.85144  22587513.9784   22587512.8634
  -4008602.55944  -3123583.65244  23770435.7894   23770437.3744
   -247391.24444   -192771.72944  20237790.6784   20237789.7194
   5773839.25844   4499095.27344  23345580.0954   23345580.3744
  -2760233.50344  -2150828.89444  21235029.2534   21235028.9214
 96  3 24  4 43 30.0000000  0  8G20G23G21G26G22G 6G16G17
   6266344.16644   4882866.21144  23427655.0834   23427655.1354
  -5463210.60544  -4257043.65744  21995094.0774   21995093.7944
        -0.86154        -0.51854  25491354.3114
  -4004063.65044  -3120048.30744  22578251.6974   22578249.7904
  -4055729.68644  -3160306.09044  23761467.3924   23761467.9774
   -237213.86144   -184841.30244  20239727.4704   20239726.3834
   5869279.45944   4573464.26144  23363741.2234   23363741.5564
  -2796035.43244  -2178726.49144  21228216.5324   21228216.1144
 96  3 24  4 44  0.0000000  0  8G20G23G21G26G22G 6G16G17
   6369078.88344   4962919.24644  23447204.7854   23447205.1804
  -5538439.93344  -4315663.90044  21980777.7774   21980777.3944
    -99910.28344    -77851.88844  25472342.1864   25472344.1364
  -4052341.72744  -3157667.58944  22569065.2684   22569064.4694
  -4102419.35144  -3196687.64144  23752582.6274   23752582.2384
   -226577.06644   -176552.89644  20241751.9044   20241750.5724
   5964879.24744   4647957.61344  23381933.5444   23381934.1954
  -2831656.33044  -2206483.02444  21221438.0594   21221437.7964
 96  3 24  4 44 30.0000000  0  8G20G23G21G26G22G 6G16G17
   6471915.16244   5043051.41544  23466772.4584   23466773.9454
  -5613334.08944  -4374022.95744  21966525.8834   21966526.3464
   -199762.31444   -155658.53444  25453340.2934   25453338.4704
  -4100228.52244  -3194981.96444  22559951.8634   22559951.7624
  -4148666.14244  -3232724.08844  23743782.1134   23743781.7634
   -215463.23244   -167892.77044  20243866.4794   20243865.4894
   6060666.28244   4722596.85544  23400161.2964   23400160.1474
  -2867092.64344  -2234095.72444  21214694.7884   21214694.4044
 96  3 24  4 45  0.0000000  0  8G20G23G21G26G22G 6G16G17
   6574843.85044   5123255.56244  23486360.0054   23486360.4804
  -5687871.35744  -4432103.92644  21952341.8824   21952342.1144
   -299534.55344   -233402.99044  25434353.0084   25434356.8664
  -4147693.09644  -3231967.32744  22550919.9564   22550918.5984
  -4194442.65144  -3268394.09344  23735070.6404   23735071.5744
   -203873.32944   -158861.68444  20246072.2494   20246070.9654
   6156670.82044   4797405.57244  23418430.5404   23418430.1964
  -2902322.51044  -2261547.56044  21207990.5384   21207990.4214
 96  3 24  4 45 30.0000000  0  8G20G23G21G26G22G 6G16G17
   6677843.35544   5203514.90944  23505961.4534   23505961.5974
  -5762060.44344  -4489913.58044  21938224.1374   21938224.6744
   -399214.61644   -311075.63644  25415384.7074
  -4194726.98744  -3268617.09044  22541969.8444   22541968.7654
  -4239735.74444  -3303687.39744  23726452.9454   23726452.8644
   -191814.86044   -149465.47744  20248366.4964   20248365.5124
   6252874.74044   4872369.65844  23436738.3124   23436736.8864
  -2937361.05444  -2288850.31544  21201322.9654   21201323.1164
 96  3 24  4 46  0.0000000  0  8G20G23G21G26G22G 6G16G17
   6780871.96444   5283796.92444  23525565.8394   23525566.2744
  -5835914.15244  -4547461.90944  21924170.5634   21924170.8874
   -498823.32144   -388692.68344  25396428.6904
  -4241341.57144  -3304940.13744  22533099.3954   22533098.8984
  -4284558.41344  -3338614.11644  23717921.9894   23717923.2414
   -179309.76744   -139721.25444  20250746.2694   20250744.9634
   6349241.39244   4947460.55844  23455076.1684   23455075.6184
  -2972237.97244  -2316027.12044  21194685.9554   21194685.8384
 96  3 24  4 46 30.0000000  0  8G20G23G21G26G22G 6G16G17
   6883939.22844   5364109.06344  23545179.7704   23545179.7914
  -5909419.86544  -4604739.07344  21910183.1154   21910182.8674
   -598350.66944   -466246.28344  25377486.6874
  -4287508.81544  -3340914.60444  22524313.7174   22524312.8474
  -4328891.81644  -3373159.58444  23709487.5434   23709486.3794
   -166353.30744   -129625.31644  20253211.8324   20253210.6814
   6445757.75344   5022668.11244  23473441.9604   23473441.4214
  -3006925.53144  -2343056.37544  21188085.3744   21188085.1344
 96  3 24  4 47  0.0000000  0  8G20G23G21G26G22G 6G16G17
   6987056.24244   5444459.98344  23564802.7494   23564802.9884
  -5982568.29144  -4661737.83144  21896263.5404   21896263.2124
   -697788.87444                  25358561.8404
  -4333188.13144  -3376508.85744  22515621.2944   22515620.0214
  -4372713.31444  -3407306.21844  23701148.2924   23701146.1584
   -152923.32144   -119160.39544  20255767.6214   20255766.2064
   6542423.90544   5097992.36644  23491836.9474   23491836.7054
  -3041415.60244  -2369931.74344  21181522.1794   21181521.6614
 96  3 24  4 47 30.0000000  0  8G20G23G21G26G22G 6G16G17
   7090251.37344   5524871.75944  23584439.4044   23584438.9784
  -6055342.29444  -4718444.82844  21882415.0074   21882414.7254
   -797138.24044                  25339653.9374
  -4378367.26344  -3411713.35744  22507024.5654   22507022.9894
  -4416017.88444  -3441050.06544  23692907.5734   23692907.4964
   -138994.84144   -108307.04144  20258417.9524   20258416.8364
   6639241.19044   5173434.40544  23510260.8554   23510259.6134
  -3075713.31144  -2396657.21544  21174995.6134   21174995.1184
 96  3 24  4 48  0.0000000  0  8G20G23G21G26G22G 6G16G17
   7193533.43844   5605351.27244  23604093.2794   23604092.8864
  -6127748.47444  -4774865.20944  21868636.5394   21868636.4204
   -896408.96944                  25320766.0404
  -4423056.34644  -3446536.00944  22498519.6034   22498518.3654
  -4458828.07644  -3474408.65944  23684761.2864   23684761.7464
   -124577.89344    -97073.05844  20261161.2114   20261160.1104
   6736215.05944   5248998.45544  23528714.2274   23528713.7004
  -3109819.62244  -2423233.54944  21168505.3654   21168505.2304
 96  3 24  4 48 30.0000000  0  8G20G23G21G26G22G 6G16G17
   7296910.06844   5685904.50444  23623765.4694   23623766.2164
  -6199803.09844  -4831011.65444  21854924.9864   21854924.7394
   -995605.91744   -775795.12144  25301892.6504   25301895.3294
  -4467265.31944  -3480984.54744  22490107.2344   22490106.3044
  -4501164.01644  -3507397.75444  23676703.9474   23676704.1124
   -109678.47444    -85463.12844  20263996.8284   20263995.5554
   6833348.38344   5324686.78144  23547198.2664   23547198.6884
  -3143729.41744  -2449656.75644  21162052.7844   21162052.4374
 96  3 24  4 49  0.0000000  0  8G20G23G21G26G22G 6G16G17
   7400364.87844   5766518.61944  23643452.6034   23643452.6164
  -6271518.78744  -4886893.99244  21841277.8034   21841277.4804
  -1094738.58044   -853041.19644  25283030.7504   25283030.9124
  -4511016.48544  -3515076.33744  22481781.5994   22481780.9254
  -4543041.86544  -3540029.82944  23668735.3694   23668735.6004
    -94308.23244    -73486.31644  20266921.5304   20266920.4664
   6930642.87344   5400500.66344  23565713.2464   23565714.5834
  -3177459.83644  -2475940.19144  21155633.8724   21155633.6214
 96  3 24  4 49 30.0000000  0  8G20G23G21G26G22G 6G16G17
   7503890.11344   5847187.63444  23663151.9844   23663152.7584
  -6342899.74744  -4942515.50444  21827694.4484   21827694.1214
  -1193798.64244   -930230.67644  25264180.9984   25264182.7964
  -4554330.98344  -3548827.88044  22473539.1974   22473538.4014
  -4584462.50944  -3572305.64544  23660853.0674   23660854.2254
    -78469.04744    -61144.10444  20269935.8144   20269934.4024
   7028094.50344   5476437.00244  23584258.1714   23584259.2004
  -3211000.07344  -2502075.42744  21149251.4264   21149251.1444
 96  3 24  4 50  0.0000000  0  8G20G23G21G26G22G 6G16G17
   7607456.97444   5927889.08444  23682860.2754   23682860.8294
  -6413969.32644  -4997894.38144  21814170.4154   21814170.3114
  -1292798.45244  -1007373.26644  25245343.5264   25245343.8834
  -4597233.34744  -3582258.29544  22465375.6934   22465373.8654
  -4625438.66444  -3604235.09244  23653056.8514   23653056.9974
    -62179.00944    -48450.57144  20273035.5744   20273034.5294
   7125684.60844   5552481.22444  23602828.3724   23602827.2924
  -3244359.07844  -2528069.44744  21142903.5004   21142903.4504
 96  3 24  4 50 30.0000000  0  8G20G23G21G26G22G 6G16G17
   7711062.89744   6008620.95944  23702576.2174   23702575.8694
  -6484702.15844  -5053010.85644  21800710.1584   21800710.2244
  -1391735.84344  -1084467.21244  25226515.8274   25226514.6274
  -4639709.08844  -3615356.28144  22457292.2444   22457291.2134
  -4665943.90944  -3635797.61044  23645348.9274   23645349.0614
    -45426.78244    -35396.89344  20276223.2884   20276222.0434
   7223406.13444   5628627.86144  23621424.2014   23621423.9664
  -3277528.97844  -2553916.11444  21136591.1554   21136590.8014
 96  3 24  4 51  0.0000000  0  8G20G23G21G26G22G 6G16G17
   7814716.41944   6089389.91944  23722300.4204   23722302.1404
  -6555057.17044  -5107832.92844  21787322.1634   21787321.8694
  -1490592.15144  -1161497.96944  25207703.4314   25207703.4094
  -4681738.02844  -3648106.10144  22449294.5474   22449293.4274
  -4705928.60844  -3666954.49944  23637740.2464   23637739.0034
    -28187.52644    -21963.71144  20279503.8494   20279502.7804
   7321274.88344   5704889.22344  23640047.6604   23640047.6614
  -3310494.01644  -2579603.15444  21130318.2904   21130317.9824
 96  3 24  4 51 30.0000000  0  8G20G23G21G26G22G 6G16G17
   7918410.99544   6170190.89244  23742032.0284   23742033.3354
  -6625027.75144  -5162355.44344  21774007.4644   21774007.3314
  -1589354.55444  -1238455.56444  25188909.5444   25188910.6694
  -4723311.55844  -3680501.04344  22441383.8324   22441381.9144
  -4745388.55244  -3697702.53244  23630229.9624   23630230.0424
    -10449.60844     -8141.96344  20282879.3034   20282878.2604
   7419288.60044   5781263.55744  23658699.5154   23658698.9844
  -3343256.33544  -2605132.22644  21124084.0924   21124083.5384
 96  3 24  4 52  0.0000000  0  8G20G23G21G26G22G 6G16G17
   8022129.91244   6251010.81144  23761770.3634   23761772.0014
  -6694610.30044  -5216575.59744  21760765.8124   21760765.5454
  -1688020.88244  -1315338.33244  25170133.1804   25170130.3164
  -4764427.26844  -3712539.24344  22433559.1174   22433558.3644
  -4784330.50444  -3728046.90944  23622820.2764   23622820.7094
      7778.00744      6061.36844  20286348.0234   20286347.0044
   7517441.90144   5857746.65344  23677376.5184   23677377.2144
  -3375821.64544  -2630507.78644  21117887.1024   21117886.5524
